<?xml version="1.0" encoding="UTF-8" standalone="no" ?>
<gpx xmlns="http://www.topografix.com/GPX/1/1" xmlns:xsi="http://www.w3.org/2001/XMLSchema-instance" xsi:schemaLocation="http://www.topografix.com/GPX/1/1 http://www.topografix.com/GPX/1/1/gpx.xsd" version="1.1" creator="VisuGPX - https://www.visugpx.com">
  <metadata>
    <name>Rando VTT Olima / Bambois /Olima</name>
    <desc><![CDATA[Niveau difficile ...]]></desc>
  </metadata>
  <trk>
    <name><![CDATA[rando Olima/Bambois 31kms D+1400]]></name>
    <trkseg>
      <trkpt lat="48.16894" lon="6.41913">
        <ele>359.19</ele>
        <time>2012-04-09T07:15:17Z</time>
      </trkpt>
      <trkpt lat="48.16902" lon="6.41908">
        <ele>360.63</ele>
        <time>2012-04-09T07:15:21Z</time>
      </trkpt>
      <trkpt lat="48.16908" lon="6.41907">
        <ele>361.59</ele>
        <time>2012-04-09T07:15:24Z</time>
      </trkpt>
      <trkpt lat="48.16917" lon="6.41909">
        <ele>363.52</ele>
        <time>2012-04-09T07:15:29Z</time>
      </trkpt>
      <trkpt lat="48.16944" lon="6.4192">
        <ele>365.92</ele>
        <time>2012-04-09T07:15:42Z</time>
      </trkpt>
      <trkpt lat="48.16946" lon="6.41918">
        <ele>366.4</ele>
        <time>2012-04-09T07:15:43Z</time>
      </trkpt>
      <trkpt lat="48.16941" lon="6.41895">
        <ele>369.28</ele>
        <time>2012-04-09T07:15:54Z</time>
      </trkpt>
      <trkpt lat="48.16901" lon="6.41855">
        <ele>371.69</ele>
        <time>2012-04-09T07:16:11Z</time>
      </trkpt>
      <trkpt lat="48.16881" lon="6.4184">
        <ele>375.05</ele>
        <time>2012-04-09T07:16:22Z</time>
      </trkpt>
      <trkpt lat="48.16855" lon="6.41822">
        <ele>380.82</ele>
        <time>2012-04-09T07:16:34Z</time>
      </trkpt>
      <trkpt lat="48.16829" lon="6.41799">
        <ele>386.11</ele>
        <time>2012-04-09T07:16:46Z</time>
      </trkpt>
      <trkpt lat="48.16799" lon="6.41779">
        <ele>391.39</ele>
        <time>2012-04-09T07:16:58Z</time>
      </trkpt>
      <trkpt lat="48.16774" lon="6.41767">
        <ele>398.6</ele>
        <time>2012-04-09T07:17:10Z</time>
      </trkpt>
      <trkpt lat="48.16746" lon="6.4172">
        <ele>403.41</ele>
        <time>2012-04-09T07:17:24Z</time>
      </trkpt>
      <trkpt lat="48.16723" lon="6.41647">
        <ele>397.16</ele>
        <time>2012-04-09T07:17:37Z</time>
      </trkpt>
      <trkpt lat="48.16697" lon="6.41588">
        <ele>392.84</ele>
        <time>2012-04-09T07:17:52Z</time>
      </trkpt>
      <trkpt lat="48.16674" lon="6.41555">
        <ele>392.84</ele>
        <time>2012-04-09T07:18:04Z</time>
      </trkpt>
      <trkpt lat="48.16652" lon="6.41524">
        <ele>394.28</ele>
        <time>2012-04-09T07:18:14Z</time>
      </trkpt>
      <trkpt lat="48.16627" lon="6.41477">
        <ele>393.8</ele>
        <time>2012-04-09T07:18:26Z</time>
      </trkpt>
      <trkpt lat="48.166" lon="6.41439">
        <ele>390.91</ele>
        <time>2012-04-09T07:18:37Z</time>
      </trkpt>
      <trkpt lat="48.16568" lon="6.41396">
        <ele>387.07</ele>
        <time>2012-04-09T07:18:49Z</time>
      </trkpt>
      <trkpt lat="48.16542" lon="6.41354">
        <ele>385.63</ele>
        <time>2012-04-09T07:19:01Z</time>
      </trkpt>
      <trkpt lat="48.16509" lon="6.41305">
        <ele>384.18</ele>
        <time>2012-04-09T07:19:15Z</time>
      </trkpt>
      <trkpt lat="48.16481" lon="6.41268">
        <ele>385.63</ele>
        <time>2012-04-09T07:19:26Z</time>
      </trkpt>
      <trkpt lat="48.16457" lon="6.41238">
        <ele>391.39</ele>
        <time>2012-04-09T07:19:37Z</time>
      </trkpt>
      <trkpt lat="48.16431" lon="6.41194">
        <ele>396.2</ele>
        <time>2012-04-09T07:19:49Z</time>
      </trkpt>
      <trkpt lat="48.16408" lon="6.41143">
        <ele>398.6</ele>
        <time>2012-04-09T07:20:02Z</time>
      </trkpt>
      <trkpt lat="48.16377" lon="6.41103">
        <ele>401.97</ele>
        <time>2012-04-09T07:20:16Z</time>
      </trkpt>
      <trkpt lat="48.16351" lon="6.41063">
        <ele>404.37</ele>
        <time>2012-04-09T07:20:28Z</time>
      </trkpt>
      <trkpt lat="48.16327" lon="6.41011">
        <ele>405.33</ele>
        <time>2012-04-09T07:20:40Z</time>
      </trkpt>
      <trkpt lat="48.16307" lon="6.40955">
        <ele>405.33</ele>
        <time>2012-04-09T07:20:54Z</time>
      </trkpt>
      <trkpt lat="48.16289" lon="6.40905">
        <ele>406.77</ele>
        <time>2012-04-09T07:21:05Z</time>
      </trkpt>
      <trkpt lat="48.16286" lon="6.4089">
        <ele>407.26</ele>
        <time>2012-04-09T07:21:09Z</time>
      </trkpt>
      <trkpt lat="48.16277" lon="6.4088">
        <ele>408.22</ele>
        <time>2012-04-09T07:21:13Z</time>
      </trkpt>
      <trkpt lat="48.16265" lon="6.4088">
        <ele>411.1</ele>
        <time>2012-04-09T07:21:18Z</time>
      </trkpt>
      <trkpt lat="48.16238" lon="6.40853">
        <ele>411.58</ele>
        <time>2012-04-09T07:21:29Z</time>
      </trkpt>
      <trkpt lat="48.16213" lon="6.40805">
        <ele>411.1</ele>
        <time>2012-04-09T07:21:41Z</time>
      </trkpt>
      <trkpt lat="48.1619" lon="6.40738">
        <ele>408.7</ele>
        <time>2012-04-09T07:21:53Z</time>
      </trkpt>
      <trkpt lat="48.16164" lon="6.40691">
        <ele>406.29</ele>
        <time>2012-04-09T07:22:05Z</time>
      </trkpt>
      <trkpt lat="48.16143" lon="6.40654">
        <ele>410.62</ele>
        <time>2012-04-09T07:22:17Z</time>
      </trkpt>
      <trkpt lat="48.16128" lon="6.40584">
        <ele>413.02</ele>
        <time>2012-04-09T07:22:31Z</time>
      </trkpt>
      <trkpt lat="48.16126" lon="6.40537">
        <ele>412.54</ele>
        <time>2012-04-09T07:22:42Z</time>
      </trkpt>
      <trkpt lat="48.16118" lon="6.40475">
        <ele>411.1</ele>
        <time>2012-04-09T07:22:56Z</time>
      </trkpt>
      <trkpt lat="48.16117" lon="6.40467">
        <ele>411.1</ele>
        <time>2012-04-09T07:22:59Z</time>
      </trkpt>
      <trkpt lat="48.16091" lon="6.40412">
        <ele>415.43</ele>
        <time>2012-04-09T07:23:12Z</time>
      </trkpt>
      <trkpt lat="48.16066" lon="6.40356">
        <ele>417.83</ele>
        <time>2012-04-09T07:23:26Z</time>
      </trkpt>
      <trkpt lat="48.16044" lon="6.4034">
        <ele>420.71</ele>
        <time>2012-04-09T07:23:36Z</time>
      </trkpt>
      <trkpt lat="48.16024" lon="6.40313">
        <ele>424.56</ele>
        <time>2012-04-09T07:23:46Z</time>
      </trkpt>
      <trkpt lat="48.16006" lon="6.40305">
        <ele>426</ele>
        <time>2012-04-09T07:23:52Z</time>
      </trkpt>
      <trkpt lat="48.15988" lon="6.40305">
        <ele>427.92</ele>
        <time>2012-04-09T07:23:56Z</time>
      </trkpt>
      <trkpt lat="48.15967" lon="6.40298">
        <ele>427.92</ele>
        <time>2012-04-09T07:24:00Z</time>
      </trkpt>
      <trkpt lat="48.15946" lon="6.40282">
        <ele>428.4</ele>
        <time>2012-04-09T07:24:04Z</time>
      </trkpt>
      <trkpt lat="48.15881" lon="6.40176">
        <ele>421.68</ele>
        <time>2012-04-09T07:24:16Z</time>
      </trkpt>
      <trkpt lat="48.15851" lon="6.40131">
        <ele>417.83</ele>
        <time>2012-04-09T07:24:24Z</time>
      </trkpt>
      <trkpt lat="48.15849" lon="6.40131">
        <ele>416.87</ele>
        <time>2012-04-09T07:24:25Z</time>
      </trkpt>
      <trkpt lat="48.15848" lon="6.40131">
        <ele>416.39</ele>
        <time>2012-04-09T07:24:26Z</time>
      </trkpt>
      <trkpt lat="48.15849" lon="6.40132">
        <ele>416.39</ele>
        <time>2012-04-09T07:24:27Z</time>
      </trkpt>
      <trkpt lat="48.15852" lon="6.40134">
        <ele>416.39</ele>
        <time>2012-04-09T07:24:28Z</time>
      </trkpt>
      <trkpt lat="48.15875" lon="6.40162">
        <ele>416.39</ele>
        <time>2012-04-09T07:24:38Z</time>
      </trkpt>
      <trkpt lat="48.15903" lon="6.40206">
        <ele>415.91</ele>
        <time>2012-04-09T07:24:50Z</time>
      </trkpt>
      <trkpt lat="48.15907" lon="6.4021">
        <ele>415.91</ele>
        <time>2012-04-09T07:24:51Z</time>
      </trkpt>
      <trkpt lat="48.1594" lon="6.40256">
        <ele>414.47</ele>
        <time>2012-04-09T07:25:02Z</time>
      </trkpt>
      <trkpt lat="48.15952" lon="6.40287">
        <ele>413.5</ele>
        <time>2012-04-09T07:25:10Z</time>
      </trkpt>
      <trkpt lat="48.15971" lon="6.40331">
        <ele>415.91</ele>
        <time>2012-04-09T07:25:21Z</time>
      </trkpt>
      <trkpt lat="48.15983" lon="6.40356">
        <ele>415.43</ele>
        <time>2012-04-09T07:25:27Z</time>
      </trkpt>
      <trkpt lat="48.15985" lon="6.40359">
        <ele>414.47</ele>
        <time>2012-04-09T07:25:28Z</time>
      </trkpt>
      <trkpt lat="48.15987" lon="6.40362">
        <ele>413.5</ele>
        <time>2012-04-09T07:25:29Z</time>
      </trkpt>
      <trkpt lat="48.16005" lon="6.40406">
        <ele>419.27</ele>
        <time>2012-04-09T07:25:42Z</time>
      </trkpt>
      <trkpt lat="48.16017" lon="6.40474">
        <ele>424.56</ele>
        <time>2012-04-09T07:25:55Z</time>
      </trkpt>
      <trkpt lat="48.16018" lon="6.40527">
        <ele>431.29</ele>
        <time>2012-04-09T07:26:09Z</time>
      </trkpt>
      <trkpt lat="48.16015" lon="6.40566">
        <ele>438.98</ele>
        <time>2012-04-09T07:26:19Z</time>
      </trkpt>
      <trkpt lat="48.16025" lon="6.40626">
        <ele>442.34</ele>
        <time>2012-04-09T07:26:31Z</time>
      </trkpt>
      <trkpt lat="48.16037" lon="6.40688">
        <ele>437.06</ele>
        <time>2012-04-09T07:26:43Z</time>
      </trkpt>
      <trkpt lat="48.16047" lon="6.40754">
        <ele>434.17</ele>
        <time>2012-04-09T07:26:56Z</time>
      </trkpt>
      <trkpt lat="48.16048" lon="6.40759">
        <ele>433.21</ele>
        <time>2012-04-09T07:26:57Z</time>
      </trkpt>
      <trkpt lat="48.16049" lon="6.40763">
        <ele>433.21</ele>
        <time>2012-04-09T07:26:58Z</time>
      </trkpt>
      <trkpt lat="48.16049" lon="6.40768">
        <ele>433.21</ele>
        <time>2012-04-09T07:26:59Z</time>
      </trkpt>
      <trkpt lat="48.16049" lon="6.40773">
        <ele>432.73</ele>
        <time>2012-04-09T07:27:00Z</time>
      </trkpt>
      <trkpt lat="48.16049" lon="6.40778">
        <ele>432.25</ele>
        <time>2012-04-09T07:27:01Z</time>
      </trkpt>
      <trkpt lat="48.16049" lon="6.40782">
        <ele>432.25</ele>
        <time>2012-04-09T07:27:02Z</time>
      </trkpt>
      <trkpt lat="48.1605" lon="6.40786">
        <ele>431.77</ele>
        <time>2012-04-09T07:27:03Z</time>
      </trkpt>
      <trkpt lat="48.16052" lon="6.40829">
        <ele>431.77</ele>
        <time>2012-04-09T07:27:14Z</time>
      </trkpt>
      <trkpt lat="48.16051" lon="6.40896">
        <ele>426.96</ele>
        <time>2012-04-09T07:27:28Z</time>
      </trkpt>
      <trkpt lat="48.16051" lon="6.40907">
        <ele>425.52</ele>
        <time>2012-04-09T07:27:31Z</time>
      </trkpt>
      <trkpt lat="48.1605" lon="6.4091">
        <ele>426</ele>
        <time>2012-04-09T07:27:32Z</time>
      </trkpt>
      <trkpt lat="48.16049" lon="6.40913">
        <ele>426.48</ele>
        <time>2012-04-09T07:27:33Z</time>
      </trkpt>
      <trkpt lat="48.16027" lon="6.40959">
        <ele>433.21</ele>
        <time>2012-04-09T07:27:49Z</time>
      </trkpt>
      <trkpt lat="48.16021" lon="6.40967">
        <ele>435.61</ele>
        <time>2012-04-09T07:27:54Z</time>
      </trkpt>
      <trkpt lat="48.16019" lon="6.40968">
        <ele>436.1</ele>
        <time>2012-04-09T07:27:55Z</time>
      </trkpt>
      <trkpt lat="48.16018" lon="6.40969">
        <ele>436.1</ele>
        <time>2012-04-09T07:27:56Z</time>
      </trkpt>
      <trkpt lat="48.15996" lon="6.40992">
        <ele>435.13</ele>
        <time>2012-04-09T07:28:08Z</time>
      </trkpt>
      <trkpt lat="48.15974" lon="6.41011">
        <ele>436.1</ele>
        <time>2012-04-09T07:28:20Z</time>
      </trkpt>
      <trkpt lat="48.15964" lon="6.41015">
        <ele>437.06</ele>
        <time>2012-04-09T07:28:24Z</time>
      </trkpt>
      <trkpt lat="48.1596" lon="6.41016">
        <ele>437.06</ele>
        <time>2012-04-09T07:28:25Z</time>
      </trkpt>
      <trkpt lat="48.15941" lon="6.41022">
        <ele>437.54</ele>
        <time>2012-04-09T07:28:34Z</time>
      </trkpt>
      <trkpt lat="48.15938" lon="6.41024">
        <ele>437.54</ele>
        <time>2012-04-09T07:28:35Z</time>
      </trkpt>
      <trkpt lat="48.15901" lon="6.41037">
        <ele>438.02</ele>
        <time>2012-04-09T07:28:48Z</time>
      </trkpt>
      <trkpt lat="48.15893" lon="6.41037">
        <ele>437.54</ele>
        <time>2012-04-09T07:28:52Z</time>
      </trkpt>
      <trkpt lat="48.1589" lon="6.41037">
        <ele>437.54</ele>
        <time>2012-04-09T07:28:53Z</time>
      </trkpt>
      <trkpt lat="48.15887" lon="6.41037">
        <ele>437.54</ele>
        <time>2012-04-09T07:28:54Z</time>
      </trkpt>
      <trkpt lat="48.15884" lon="6.41037">
        <ele>437.54</ele>
        <time>2012-04-09T07:28:55Z</time>
      </trkpt>
      <trkpt lat="48.15881" lon="6.41038">
        <ele>437.54</ele>
        <time>2012-04-09T07:28:56Z</time>
      </trkpt>
      <trkpt lat="48.15879" lon="6.41037">
        <ele>437.54</ele>
        <time>2012-04-09T07:28:57Z</time>
      </trkpt>
      <trkpt lat="48.15876" lon="6.41037">
        <ele>437.54</ele>
        <time>2012-04-09T07:28:58Z</time>
      </trkpt>
      <trkpt lat="48.15872" lon="6.41038">
        <ele>437.54</ele>
        <time>2012-04-09T07:28:59Z</time>
      </trkpt>
      <trkpt lat="48.15868" lon="6.41038">
        <ele>437.54</ele>
        <time>2012-04-09T07:29:00Z</time>
      </trkpt>
      <trkpt lat="48.15827" lon="6.41046">
        <ele>438.02</ele>
        <time>2012-04-09T07:29:14Z</time>
      </trkpt>
      <trkpt lat="48.15783" lon="6.41064">
        <ele>441.38</ele>
        <time>2012-04-09T07:29:30Z</time>
      </trkpt>
      <trkpt lat="48.15681" lon="6.41105">
        <ele>448.11</ele>
        <time>2012-04-09T07:29:44Z</time>
      </trkpt>
      <trkpt lat="48.15653" lon="6.41124">
        <ele>450.52</ele>
        <time>2012-04-09T07:29:56Z</time>
      </trkpt>
      <trkpt lat="48.15637" lon="6.41127">
        <ele>458.21</ele>
        <time>2012-04-09T07:30:07Z</time>
      </trkpt>
      <trkpt lat="48.15633" lon="6.41128">
        <ele>459.17</ele>
        <time>2012-04-09T07:30:08Z</time>
      </trkpt>
      <trkpt lat="48.1563" lon="6.41129">
        <ele>459.65</ele>
        <time>2012-04-09T07:30:09Z</time>
      </trkpt>
      <trkpt lat="48.15626" lon="6.41131">
        <ele>460.13</ele>
        <time>2012-04-09T07:30:10Z</time>
      </trkpt>
      <trkpt lat="48.15622" lon="6.41133">
        <ele>460.61</ele>
        <time>2012-04-09T07:30:11Z</time>
      </trkpt>
      <trkpt lat="48.1562" lon="6.41133">
        <ele>461.57</ele>
        <time>2012-04-09T07:30:12Z</time>
      </trkpt>
      <trkpt lat="48.15617" lon="6.41134">
        <ele>462.53</ele>
        <time>2012-04-09T07:30:13Z</time>
      </trkpt>
      <trkpt lat="48.15615" lon="6.41134">
        <ele>463.49</ele>
        <time>2012-04-09T07:30:14Z</time>
      </trkpt>
      <trkpt lat="48.15575" lon="6.41168">
        <ele>474.07</ele>
        <time>2012-04-09T07:30:25Z</time>
      </trkpt>
      <trkpt lat="48.15586" lon="6.41193">
        <ele>471.66</ele>
        <time>2012-04-09T07:30:36Z</time>
      </trkpt>
      <trkpt lat="48.15638" lon="6.4122">
        <ele>455.32</ele>
        <time>2012-04-09T07:30:52Z</time>
      </trkpt>
      <trkpt lat="48.15686" lon="6.41236">
        <ele>450.52</ele>
        <time>2012-04-09T07:31:06Z</time>
      </trkpt>
      <trkpt lat="48.15729" lon="6.41249">
        <ele>450.03</ele>
        <time>2012-04-09T07:31:18Z</time>
      </trkpt>
      <trkpt lat="48.15781" lon="6.41263">
        <ele>448.59</ele>
        <time>2012-04-09T07:31:31Z</time>
      </trkpt>
      <trkpt lat="48.15811" lon="6.41307">
        <ele>448.11</ele>
        <time>2012-04-09T07:31:43Z</time>
      </trkpt>
      <trkpt lat="48.15799" lon="6.41338">
        <ele>450.03</ele>
        <time>2012-04-09T07:31:52Z</time>
      </trkpt>
      <trkpt lat="48.15772" lon="6.41359">
        <ele>454.36</ele>
        <time>2012-04-09T07:32:04Z</time>
      </trkpt>
      <trkpt lat="48.15726" lon="6.41385">
        <ele>460.13</ele>
        <time>2012-04-09T07:32:17Z</time>
      </trkpt>
      <trkpt lat="48.15681" lon="6.41399">
        <ele>464.45</ele>
        <time>2012-04-09T07:32:30Z</time>
      </trkpt>
      <trkpt lat="48.15643" lon="6.41409">
        <ele>469.26</ele>
        <time>2012-04-09T07:32:41Z</time>
      </trkpt>
      <trkpt lat="48.15599" lon="6.41398">
        <ele>475.51</ele>
        <time>2012-04-09T07:32:55Z</time>
      </trkpt>
      <trkpt lat="48.15548" lon="6.41381">
        <ele>479.35</ele>
        <time>2012-04-09T07:33:09Z</time>
      </trkpt>
      <trkpt lat="48.15527" lon="6.4138">
        <ele>480.8</ele>
        <time>2012-04-09T07:33:16Z</time>
      </trkpt>
      <trkpt lat="48.1549" lon="6.41432">
        <ele>482.72</ele>
        <time>2012-04-09T07:33:29Z</time>
      </trkpt>
      <trkpt lat="48.15505" lon="6.41483">
        <ele>481.76</ele>
        <time>2012-04-09T07:33:40Z</time>
      </trkpt>
      <trkpt lat="48.15533" lon="6.41558">
        <ele>475.03</ele>
        <time>2012-04-09T07:33:54Z</time>
      </trkpt>
      <trkpt lat="48.15539" lon="6.41574">
        <ele>473.59</ele>
        <time>2012-04-09T07:33:57Z</time>
      </trkpt>
      <trkpt lat="48.15543" lon="6.41586">
        <ele>473.11</ele>
        <time>2012-04-09T07:33:59Z</time>
      </trkpt>
      <trkpt lat="48.15547" lon="6.41608">
        <ele>471.66</ele>
        <time>2012-04-09T07:34:03Z</time>
      </trkpt>
      <trkpt lat="48.15547" lon="6.41614">
        <ele>471.66</ele>
        <time>2012-04-09T07:34:04Z</time>
      </trkpt>
      <trkpt lat="48.15547" lon="6.41621">
        <ele>471.18</ele>
        <time>2012-04-09T07:34:05Z</time>
      </trkpt>
      <trkpt lat="48.15542" lon="6.41681">
        <ele>469.26</ele>
        <time>2012-04-09T07:34:15Z</time>
      </trkpt>
      <trkpt lat="48.15541" lon="6.41688">
        <ele>469.26</ele>
        <time>2012-04-09T07:34:16Z</time>
      </trkpt>
      <trkpt lat="48.15539" lon="6.41693">
        <ele>469.26</ele>
        <time>2012-04-09T07:34:17Z</time>
      </trkpt>
      <trkpt lat="48.15538" lon="6.41699">
        <ele>469.26</ele>
        <time>2012-04-09T07:34:18Z</time>
      </trkpt>
      <trkpt lat="48.15537" lon="6.41704">
        <ele>468.78</ele>
        <time>2012-04-09T07:34:19Z</time>
      </trkpt>
      <trkpt lat="48.15536" lon="6.41709">
        <ele>468.78</ele>
        <time>2012-04-09T07:34:20Z</time>
      </trkpt>
      <trkpt lat="48.1554" lon="6.41754">
        <ele>469.26</ele>
        <time>2012-04-09T07:34:29Z</time>
      </trkpt>
      <trkpt lat="48.15582" lon="6.41817">
        <ele>472.63</ele>
        <time>2012-04-09T07:34:40Z</time>
      </trkpt>
      <trkpt lat="48.15626" lon="6.41868">
        <ele>474.07</ele>
        <time>2012-04-09T07:34:51Z</time>
      </trkpt>
      <trkpt lat="48.15628" lon="6.41871">
        <ele>474.07</ele>
        <time>2012-04-09T07:34:52Z</time>
      </trkpt>
      <trkpt lat="48.15629" lon="6.41874">
        <ele>474.07</ele>
        <time>2012-04-09T07:34:53Z</time>
      </trkpt>
      <trkpt lat="48.1563" lon="6.41878">
        <ele>474.07</ele>
        <time>2012-04-09T07:34:54Z</time>
      </trkpt>
      <trkpt lat="48.15618" lon="6.41897">
        <ele>474.07</ele>
        <time>2012-04-09T07:35:04Z</time>
      </trkpt>
      <trkpt lat="48.15616" lon="6.41898">
        <ele>474.07</ele>
        <time>2012-04-09T07:35:05Z</time>
      </trkpt>
      <trkpt lat="48.15594" lon="6.41895">
        <ele>483.2</ele>
        <time>2012-04-09T07:35:18Z</time>
      </trkpt>
      <trkpt lat="48.15576" lon="6.41893">
        <ele>490.89</ele>
        <time>2012-04-09T07:35:27Z</time>
      </trkpt>
      <trkpt lat="48.15551" lon="6.41876">
        <ele>497.14</ele>
        <time>2012-04-09T07:35:40Z</time>
      </trkpt>
      <trkpt lat="48.15548" lon="6.41872">
        <ele>497.14</ele>
        <time>2012-04-09T07:35:42Z</time>
      </trkpt>
      <trkpt lat="48.15525" lon="6.41844">
        <ele>500.98</ele>
        <time>2012-04-09T07:35:57Z</time>
      </trkpt>
      <trkpt lat="48.15506" lon="6.41821">
        <ele>505.31</ele>
        <time>2012-04-09T07:36:08Z</time>
      </trkpt>
      <trkpt lat="48.15478" lon="6.41787">
        <ele>506.75</ele>
        <time>2012-04-09T07:36:21Z</time>
      </trkpt>
      <trkpt lat="48.15459" lon="6.41752">
        <ele>507.71</ele>
        <time>2012-04-09T07:36:32Z</time>
      </trkpt>
      <trkpt lat="48.15438" lon="6.41721">
        <ele>509.64</ele>
        <time>2012-04-09T07:36:44Z</time>
      </trkpt>
      <trkpt lat="48.15428" lon="6.41669">
        <ele>511.56</ele>
        <time>2012-04-09T07:36:55Z</time>
      </trkpt>
      <trkpt lat="48.15426" lon="6.41653">
        <ele>511.08</ele>
        <time>2012-04-09T07:36:58Z</time>
      </trkpt>
      <trkpt lat="48.154" lon="6.4161">
        <ele>511.56</ele>
        <time>2012-04-09T07:37:13Z</time>
      </trkpt>
      <trkpt lat="48.1538" lon="6.41566">
        <ele>517.81</ele>
        <time>2012-04-09T07:37:25Z</time>
      </trkpt>
      <trkpt lat="48.15353" lon="6.41546">
        <ele>519.73</ele>
        <time>2012-04-09T07:37:34Z</time>
      </trkpt>
      <trkpt lat="48.15336" lon="6.41509">
        <ele>514.92</ele>
        <time>2012-04-09T07:37:42Z</time>
      </trkpt>
      <trkpt lat="48.15324" lon="6.41493">
        <ele>512.04</ele>
        <time>2012-04-09T07:37:47Z</time>
      </trkpt>
      <trkpt lat="48.15307" lon="6.41456">
        <ele>511.56</ele>
        <time>2012-04-09T07:37:54Z</time>
      </trkpt>
      <trkpt lat="48.15272" lon="6.41365">
        <ele>507.71</ele>
        <time>2012-04-09T07:38:09Z</time>
      </trkpt>
      <trkpt lat="48.1526" lon="6.41327">
        <ele>503.87</ele>
        <time>2012-04-09T07:38:15Z</time>
      </trkpt>
      <trkpt lat="48.1526" lon="6.41322">
        <ele>503.39</ele>
        <time>2012-04-09T07:38:16Z</time>
      </trkpt>
      <trkpt lat="48.15264" lon="6.41303">
        <ele>501.46</ele>
        <time>2012-04-09T07:38:20Z</time>
      </trkpt>
      <trkpt lat="48.15272" lon="6.4128">
        <ele>501.46</ele>
        <time>2012-04-09T07:38:25Z</time>
      </trkpt>
      <trkpt lat="48.15264" lon="6.41248">
        <ele>501.95</ele>
        <time>2012-04-09T07:38:32Z</time>
      </trkpt>
      <trkpt lat="48.15234" lon="6.41187">
        <ele>502.43</ele>
        <time>2012-04-09T07:38:44Z</time>
      </trkpt>
      <trkpt lat="48.15229" lon="6.41175">
        <ele>501.95</ele>
        <time>2012-04-09T07:38:46Z</time>
      </trkpt>
      <trkpt lat="48.1522" lon="6.41159">
        <ele>501.95</ele>
        <time>2012-04-09T07:38:49Z</time>
      </trkpt>
      <trkpt lat="48.15217" lon="6.41155">
        <ele>501.95</ele>
        <time>2012-04-09T07:38:50Z</time>
      </trkpt>
      <trkpt lat="48.15213" lon="6.41153">
        <ele>502.43</ele>
        <time>2012-04-09T07:38:51Z</time>
      </trkpt>
      <trkpt lat="48.15209" lon="6.4115">
        <ele>502.43</ele>
        <time>2012-04-09T07:38:52Z</time>
      </trkpt>
      <trkpt lat="48.15205" lon="6.41146">
        <ele>502.43</ele>
        <time>2012-04-09T07:38:53Z</time>
      </trkpt>
      <trkpt lat="48.15197" lon="6.4114">
        <ele>502.43</ele>
        <time>2012-04-09T07:38:55Z</time>
      </trkpt>
      <trkpt lat="48.15193" lon="6.41137">
        <ele>502.43</ele>
        <time>2012-04-09T07:38:56Z</time>
      </trkpt>
      <trkpt lat="48.15188" lon="6.41132">
        <ele>501.95</ele>
        <time>2012-04-09T07:38:57Z</time>
      </trkpt>
      <trkpt lat="48.15183" lon="6.41126">
        <ele>501.95</ele>
        <time>2012-04-09T07:38:58Z</time>
      </trkpt>
      <trkpt lat="48.15179" lon="6.4112">
        <ele>501.46</ele>
        <time>2012-04-09T07:38:59Z</time>
      </trkpt>
      <trkpt lat="48.15176" lon="6.41113">
        <ele>500.98</ele>
        <time>2012-04-09T07:39:00Z</time>
      </trkpt>
      <trkpt lat="48.15173" lon="6.41105">
        <ele>500.5</ele>
        <time>2012-04-09T07:39:01Z</time>
      </trkpt>
      <trkpt lat="48.15171" lon="6.41097">
        <ele>500.5</ele>
        <time>2012-04-09T07:39:02Z</time>
      </trkpt>
      <trkpt lat="48.15168" lon="6.41089">
        <ele>500.02</ele>
        <time>2012-04-09T07:39:03Z</time>
      </trkpt>
      <trkpt lat="48.15165" lon="6.41082">
        <ele>500.02</ele>
        <time>2012-04-09T07:39:04Z</time>
      </trkpt>
      <trkpt lat="48.15163" lon="6.41074">
        <ele>499.54</ele>
        <time>2012-04-09T07:39:05Z</time>
      </trkpt>
      <trkpt lat="48.15158" lon="6.41057">
        <ele>498.58</ele>
        <time>2012-04-09T07:39:07Z</time>
      </trkpt>
      <trkpt lat="48.15159" lon="6.41049">
        <ele>498.58</ele>
        <time>2012-04-09T07:39:08Z</time>
      </trkpt>
      <trkpt lat="48.15159" lon="6.41041">
        <ele>498.1</ele>
        <time>2012-04-09T07:39:09Z</time>
      </trkpt>
      <trkpt lat="48.15158" lon="6.41023">
        <ele>497.14</ele>
        <time>2012-04-09T07:39:11Z</time>
      </trkpt>
      <trkpt lat="48.15159" lon="6.41014">
        <ele>496.66</ele>
        <time>2012-04-09T07:39:12Z</time>
      </trkpt>
      <trkpt lat="48.15161" lon="6.40996">
        <ele>495.22</ele>
        <time>2012-04-09T07:39:14Z</time>
      </trkpt>
      <trkpt lat="48.15161" lon="6.40987">
        <ele>494.26</ele>
        <time>2012-04-09T07:39:15Z</time>
      </trkpt>
      <trkpt lat="48.1516" lon="6.40978">
        <ele>494.26</ele>
        <time>2012-04-09T07:39:16Z</time>
      </trkpt>
      <trkpt lat="48.1516" lon="6.40971">
        <ele>493.77</ele>
        <time>2012-04-09T07:39:17Z</time>
      </trkpt>
      <trkpt lat="48.15161" lon="6.40965">
        <ele>493.29</ele>
        <time>2012-04-09T07:39:18Z</time>
      </trkpt>
      <trkpt lat="48.1516" lon="6.40957">
        <ele>492.33</ele>
        <time>2012-04-09T07:39:19Z</time>
      </trkpt>
      <trkpt lat="48.15158" lon="6.40951">
        <ele>492.33</ele>
        <time>2012-04-09T07:39:20Z</time>
      </trkpt>
      <trkpt lat="48.15156" lon="6.40945">
        <ele>491.85</ele>
        <time>2012-04-09T07:39:21Z</time>
      </trkpt>
      <trkpt lat="48.15155" lon="6.40939">
        <ele>491.85</ele>
        <time>2012-04-09T07:39:22Z</time>
      </trkpt>
      <trkpt lat="48.15153" lon="6.40933">
        <ele>491.85</ele>
        <time>2012-04-09T07:39:23Z</time>
      </trkpt>
      <trkpt lat="48.15151" lon="6.40929">
        <ele>491.85</ele>
        <time>2012-04-09T07:39:24Z</time>
      </trkpt>
      <trkpt lat="48.15149" lon="6.40923">
        <ele>491.85</ele>
        <time>2012-04-09T07:39:25Z</time>
      </trkpt>
      <trkpt lat="48.15138" lon="6.40881">
        <ele>494.74</ele>
        <time>2012-04-09T07:39:33Z</time>
      </trkpt>
      <trkpt lat="48.15135" lon="6.40876">
        <ele>494.74</ele>
        <time>2012-04-09T07:39:34Z</time>
      </trkpt>
      <trkpt lat="48.15133" lon="6.40873">
        <ele>495.22</ele>
        <time>2012-04-09T07:39:35Z</time>
      </trkpt>
      <trkpt lat="48.15117" lon="6.40853">
        <ele>495.7</ele>
        <time>2012-04-09T07:39:40Z</time>
      </trkpt>
      <trkpt lat="48.15109" lon="6.40846">
        <ele>496.66</ele>
        <time>2012-04-09T07:39:42Z</time>
      </trkpt>
      <trkpt lat="48.15105" lon="6.40842">
        <ele>497.14</ele>
        <time>2012-04-09T07:39:43Z</time>
      </trkpt>
      <trkpt lat="48.15102" lon="6.40838">
        <ele>497.62</ele>
        <time>2012-04-09T07:39:44Z</time>
      </trkpt>
      <trkpt lat="48.151" lon="6.40834">
        <ele>497.62</ele>
        <time>2012-04-09T07:39:45Z</time>
      </trkpt>
      <trkpt lat="48.15088" lon="6.40814">
        <ele>499.54</ele>
        <time>2012-04-09T07:39:52Z</time>
      </trkpt>
      <trkpt lat="48.15076" lon="6.40797">
        <ele>500.5</ele>
        <time>2012-04-09T07:39:56Z</time>
      </trkpt>
      <trkpt lat="48.15052" lon="6.40754">
        <ele>504.83</ele>
        <time>2012-04-09T07:40:07Z</time>
      </trkpt>
      <trkpt lat="48.15046" lon="6.40741">
        <ele>506.75</ele>
        <time>2012-04-09T07:40:11Z</time>
      </trkpt>
      <trkpt lat="48.1504" lon="6.40734">
        <ele>507.23</ele>
        <time>2012-04-09T07:40:14Z</time>
      </trkpt>
      <trkpt lat="48.1503" lon="6.40713">
        <ele>508.67</ele>
        <time>2012-04-09T07:40:18Z</time>
      </trkpt>
      <trkpt lat="48.1501" lon="6.40669">
        <ele>510.12</ele>
        <time>2012-04-09T07:40:24Z</time>
      </trkpt>
      <trkpt lat="48.14992" lon="6.40639">
        <ele>511.08</ele>
        <time>2012-04-09T07:40:28Z</time>
      </trkpt>
      <trkpt lat="48.1498" lon="6.40609">
        <ele>511.56</ele>
        <time>2012-04-09T07:40:32Z</time>
      </trkpt>
      <trkpt lat="48.14976" lon="6.40593">
        <ele>511.08</ele>
        <time>2012-04-09T07:40:34Z</time>
      </trkpt>
      <trkpt lat="48.14958" lon="6.40542">
        <ele>508.19</ele>
        <time>2012-04-09T07:40:40Z</time>
      </trkpt>
      <trkpt lat="48.14957" lon="6.40534">
        <ele>507.71</ele>
        <time>2012-04-09T07:40:41Z</time>
      </trkpt>
      <trkpt lat="48.14957" lon="6.40529">
        <ele>506.27</ele>
        <time>2012-04-09T07:40:42Z</time>
      </trkpt>
      <trkpt lat="48.14956" lon="6.40525">
        <ele>505.31</ele>
        <time>2012-04-09T07:40:43Z</time>
      </trkpt>
      <trkpt lat="48.14954" lon="6.40522">
        <ele>504.83</ele>
        <time>2012-04-09T07:40:44Z</time>
      </trkpt>
      <trkpt lat="48.14952" lon="6.40518">
        <ele>504.35</ele>
        <time>2012-04-09T07:40:45Z</time>
      </trkpt>
      <trkpt lat="48.14949" lon="6.40514">
        <ele>503.39</ele>
        <time>2012-04-09T07:40:46Z</time>
      </trkpt>
      <trkpt lat="48.14947" lon="6.40509">
        <ele>502.43</ele>
        <time>2012-04-09T07:40:47Z</time>
      </trkpt>
      <trkpt lat="48.14944" lon="6.40505">
        <ele>501.95</ele>
        <time>2012-04-09T07:40:48Z</time>
      </trkpt>
      <trkpt lat="48.14941" lon="6.40502">
        <ele>501.95</ele>
        <time>2012-04-09T07:40:49Z</time>
      </trkpt>
      <trkpt lat="48.14937" lon="6.40499">
        <ele>501.46</ele>
        <time>2012-04-09T07:40:50Z</time>
      </trkpt>
      <trkpt lat="48.14933" lon="6.40496">
        <ele>500.98</ele>
        <time>2012-04-09T07:40:51Z</time>
      </trkpt>
      <trkpt lat="48.14929" lon="6.40494">
        <ele>500.98</ele>
        <time>2012-04-09T07:40:52Z</time>
      </trkpt>
      <trkpt lat="48.14925" lon="6.4049">
        <ele>500.5</ele>
        <time>2012-04-09T07:40:53Z</time>
      </trkpt>
      <trkpt lat="48.14921" lon="6.40487">
        <ele>500.5</ele>
        <time>2012-04-09T07:40:54Z</time>
      </trkpt>
      <trkpt lat="48.14915" lon="6.40479">
        <ele>500.02</ele>
        <time>2012-04-09T07:40:56Z</time>
      </trkpt>
      <trkpt lat="48.14911" lon="6.40474">
        <ele>500.02</ele>
        <time>2012-04-09T07:40:57Z</time>
      </trkpt>
      <trkpt lat="48.14907" lon="6.40469">
        <ele>500.02</ele>
        <time>2012-04-09T07:40:58Z</time>
      </trkpt>
      <trkpt lat="48.14904" lon="6.40463">
        <ele>499.54</ele>
        <time>2012-04-09T07:40:59Z</time>
      </trkpt>
      <trkpt lat="48.149" lon="6.40457">
        <ele>499.54</ele>
        <time>2012-04-09T07:41:00Z</time>
      </trkpt>
      <trkpt lat="48.14896" lon="6.4045">
        <ele>499.06</ele>
        <time>2012-04-09T07:41:01Z</time>
      </trkpt>
      <trkpt lat="48.14887" lon="6.40436">
        <ele>498.58</ele>
        <time>2012-04-09T07:41:03Z</time>
      </trkpt>
      <trkpt lat="48.14876" lon="6.40424">
        <ele>498.1</ele>
        <time>2012-04-09T07:41:05Z</time>
      </trkpt>
      <trkpt lat="48.14871" lon="6.4042">
        <ele>498.1</ele>
        <time>2012-04-09T07:41:06Z</time>
      </trkpt>
      <trkpt lat="48.14848" lon="6.40391">
        <ele>496.66</ele>
        <time>2012-04-09T07:41:11Z</time>
      </trkpt>
      <trkpt lat="48.14842" lon="6.40376">
        <ele>494.26</ele>
        <time>2012-04-09T07:41:13Z</time>
      </trkpt>
      <trkpt lat="48.14828" lon="6.40342">
        <ele>486.08</ele>
        <time>2012-04-09T07:41:21Z</time>
      </trkpt>
      <trkpt lat="48.14819" lon="6.40339">
        <ele>476.95</ele>
        <time>2012-04-09T07:41:30Z</time>
      </trkpt>
      <trkpt lat="48.14819" lon="6.40335">
        <ele>473.59</ele>
        <time>2012-04-09T07:41:55Z</time>
      </trkpt>
      <trkpt lat="48.14818" lon="6.40334">
        <ele>469.74</ele>
        <time>2012-04-09T07:42:17Z</time>
      </trkpt>
      <trkpt lat="48.14817" lon="6.40333">
        <ele>467.34</ele>
        <time>2012-04-09T07:42:45Z</time>
      </trkpt>
      <trkpt lat="48.14816" lon="6.40333">
        <ele>465.42</ele>
        <time>2012-04-09T07:43:09Z</time>
      </trkpt>
      <trkpt lat="48.14814" lon="6.40332">
        <ele>463.49</ele>
        <time>2012-04-09T07:43:33Z</time>
      </trkpt>
      <trkpt lat="48.14815" lon="6.40331">
        <ele>462.05</ele>
        <time>2012-04-09T07:43:58Z</time>
      </trkpt>
      <trkpt lat="48.14815" lon="6.40331">
        <ele>460.61</ele>
        <time>2012-04-09T07:44:16Z</time>
      </trkpt>
      <trkpt lat="48.14814" lon="6.40331">
        <ele>460.13</ele>
        <time>2012-04-09T07:44:38Z</time>
      </trkpt>
      <trkpt lat="48.14813" lon="6.40329">
        <ele>459.17</ele>
        <time>2012-04-09T07:45:01Z</time>
      </trkpt>
      <trkpt lat="48.1481" lon="6.40331">
        <ele>458.21</ele>
        <time>2012-04-09T07:45:07Z</time>
      </trkpt>
      <trkpt lat="48.14801" lon="6.40336">
        <ele>458.21</ele>
        <time>2012-04-09T07:45:12Z</time>
      </trkpt>
      <trkpt lat="48.14761" lon="6.40363">
        <ele>459.17</ele>
        <time>2012-04-09T07:45:27Z</time>
      </trkpt>
      <trkpt lat="48.14712" lon="6.40396">
        <ele>463.01</ele>
        <time>2012-04-09T07:45:44Z</time>
      </trkpt>
      <trkpt lat="48.14685" lon="6.40435">
        <ele>463.49</ele>
        <time>2012-04-09T07:45:57Z</time>
      </trkpt>
      <trkpt lat="48.14679" lon="6.40451">
        <ele>463.49</ele>
        <time>2012-04-09T07:46:00Z</time>
      </trkpt>
      <trkpt lat="48.14677" lon="6.40456">
        <ele>463.49</ele>
        <time>2012-04-09T07:46:01Z</time>
      </trkpt>
      <trkpt lat="48.14674" lon="6.40468">
        <ele>463.49</ele>
        <time>2012-04-09T07:46:03Z</time>
      </trkpt>
      <trkpt lat="48.14673" lon="6.40474">
        <ele>463.49</ele>
        <time>2012-04-09T07:46:04Z</time>
      </trkpt>
      <trkpt lat="48.14671" lon="6.4048">
        <ele>463.49</ele>
        <time>2012-04-09T07:46:05Z</time>
      </trkpt>
      <trkpt lat="48.14667" lon="6.40492">
        <ele>463.97</ele>
        <time>2012-04-09T07:46:07Z</time>
      </trkpt>
      <trkpt lat="48.14665" lon="6.40497">
        <ele>464.45</ele>
        <time>2012-04-09T07:46:08Z</time>
      </trkpt>
      <trkpt lat="48.14659" lon="6.40515">
        <ele>465.42</ele>
        <time>2012-04-09T07:46:11Z</time>
      </trkpt>
      <trkpt lat="48.14659" lon="6.40521">
        <ele>465.9</ele>
        <time>2012-04-09T07:46:12Z</time>
      </trkpt>
      <trkpt lat="48.1466" lon="6.40527">
        <ele>465.9</ele>
        <time>2012-04-09T07:46:13Z</time>
      </trkpt>
      <trkpt lat="48.14661" lon="6.40531">
        <ele>466.38</ele>
        <time>2012-04-09T07:46:14Z</time>
      </trkpt>
      <trkpt lat="48.14662" lon="6.40534">
        <ele>466.86</ele>
        <time>2012-04-09T07:46:15Z</time>
      </trkpt>
      <trkpt lat="48.14662" lon="6.40537">
        <ele>467.34</ele>
        <time>2012-04-09T07:46:16Z</time>
      </trkpt>
      <trkpt lat="48.14662" lon="6.40541">
        <ele>467.34</ele>
        <time>2012-04-09T07:46:17Z</time>
      </trkpt>
      <trkpt lat="48.14662" lon="6.40545">
        <ele>467.82</ele>
        <time>2012-04-09T07:46:18Z</time>
      </trkpt>
      <trkpt lat="48.1466" lon="6.4057">
        <ele>471.18</ele>
        <time>2012-04-09T07:46:24Z</time>
      </trkpt>
      <trkpt lat="48.14657" lon="6.40613">
        <ele>478.39</ele>
        <time>2012-04-09T07:46:33Z</time>
      </trkpt>
      <trkpt lat="48.14655" lon="6.40633">
        <ele>480.32</ele>
        <time>2012-04-09T07:46:36Z</time>
      </trkpt>
      <trkpt lat="48.14655" lon="6.4064">
        <ele>481.28</ele>
        <time>2012-04-09T07:46:37Z</time>
      </trkpt>
      <trkpt lat="48.14655" lon="6.40647">
        <ele>481.76</ele>
        <time>2012-04-09T07:46:38Z</time>
      </trkpt>
      <trkpt lat="48.14657" lon="6.40652">
        <ele>482.72</ele>
        <time>2012-04-09T07:46:39Z</time>
      </trkpt>
      <trkpt lat="48.14658" lon="6.40659">
        <ele>482.72</ele>
        <time>2012-04-09T07:46:40Z</time>
      </trkpt>
      <trkpt lat="48.14659" lon="6.40666">
        <ele>482.72</ele>
        <time>2012-04-09T07:46:41Z</time>
      </trkpt>
      <trkpt lat="48.1466" lon="6.40673">
        <ele>482.72</ele>
        <time>2012-04-09T07:46:42Z</time>
      </trkpt>
      <trkpt lat="48.1466" lon="6.40681">
        <ele>482.72</ele>
        <time>2012-04-09T07:46:43Z</time>
      </trkpt>
      <trkpt lat="48.14661" lon="6.40688">
        <ele>481.76</ele>
        <time>2012-04-09T07:46:44Z</time>
      </trkpt>
      <trkpt lat="48.14661" lon="6.40696">
        <ele>480.8</ele>
        <time>2012-04-09T07:46:45Z</time>
      </trkpt>
      <trkpt lat="48.14662" lon="6.40703">
        <ele>480.32</ele>
        <time>2012-04-09T07:46:46Z</time>
      </trkpt>
      <trkpt lat="48.14663" lon="6.40711">
        <ele>479.84</ele>
        <time>2012-04-09T07:46:47Z</time>
      </trkpt>
      <trkpt lat="48.14665" lon="6.40731">
        <ele>478.87</ele>
        <time>2012-04-09T07:46:50Z</time>
      </trkpt>
      <trkpt lat="48.14664" lon="6.40736">
        <ele>478.87</ele>
        <time>2012-04-09T07:46:51Z</time>
      </trkpt>
      <trkpt lat="48.14663" lon="6.40742">
        <ele>478.39</ele>
        <time>2012-04-09T07:46:52Z</time>
      </trkpt>
      <trkpt lat="48.14662" lon="6.40749">
        <ele>478.87</ele>
        <time>2012-04-09T07:46:53Z</time>
      </trkpt>
      <trkpt lat="48.14662" lon="6.40756">
        <ele>478.39</ele>
        <time>2012-04-09T07:46:54Z</time>
      </trkpt>
      <trkpt lat="48.14661" lon="6.40764">
        <ele>478.87</ele>
        <time>2012-04-09T07:46:55Z</time>
      </trkpt>
      <trkpt lat="48.14659" lon="6.40772">
        <ele>478.87</ele>
        <time>2012-04-09T07:46:56Z</time>
      </trkpt>
      <trkpt lat="48.14655" lon="6.40786">
        <ele>479.35</ele>
        <time>2012-04-09T07:46:58Z</time>
      </trkpt>
      <trkpt lat="48.14653" lon="6.40794">
        <ele>479.84</ele>
        <time>2012-04-09T07:46:59Z</time>
      </trkpt>
      <trkpt lat="48.14649" lon="6.408">
        <ele>480.32</ele>
        <time>2012-04-09T07:47:00Z</time>
      </trkpt>
      <trkpt lat="48.14645" lon="6.40804">
        <ele>480.8</ele>
        <time>2012-04-09T07:47:01Z</time>
      </trkpt>
      <trkpt lat="48.14641" lon="6.40808">
        <ele>481.28</ele>
        <time>2012-04-09T07:47:02Z</time>
      </trkpt>
      <trkpt lat="48.14637" lon="6.40813">
        <ele>482.24</ele>
        <time>2012-04-09T07:47:03Z</time>
      </trkpt>
      <trkpt lat="48.14634" lon="6.4082">
        <ele>482.24</ele>
        <time>2012-04-09T07:47:04Z</time>
      </trkpt>
      <trkpt lat="48.14631" lon="6.40826">
        <ele>482.72</ele>
        <time>2012-04-09T07:47:05Z</time>
      </trkpt>
      <trkpt lat="48.14628" lon="6.40832">
        <ele>482.72</ele>
        <time>2012-04-09T07:47:06Z</time>
      </trkpt>
      <trkpt lat="48.14626" lon="6.40838">
        <ele>483.2</ele>
        <time>2012-04-09T07:47:07Z</time>
      </trkpt>
      <trkpt lat="48.14624" lon="6.40844">
        <ele>483.68</ele>
        <time>2012-04-09T07:47:08Z</time>
      </trkpt>
      <trkpt lat="48.14624" lon="6.4085">
        <ele>483.68</ele>
        <time>2012-04-09T07:47:09Z</time>
      </trkpt>
      <trkpt lat="48.14624" lon="6.40856">
        <ele>483.2</ele>
        <time>2012-04-09T07:47:10Z</time>
      </trkpt>
      <trkpt lat="48.14625" lon="6.40861">
        <ele>482.24</ele>
        <time>2012-04-09T07:47:11Z</time>
      </trkpt>
      <trkpt lat="48.14626" lon="6.40866">
        <ele>481.28</ele>
        <time>2012-04-09T07:47:12Z</time>
      </trkpt>
      <trkpt lat="48.14628" lon="6.4087">
        <ele>480.32</ele>
        <time>2012-04-09T07:47:13Z</time>
      </trkpt>
      <trkpt lat="48.14631" lon="6.40875">
        <ele>480.32</ele>
        <time>2012-04-09T07:47:14Z</time>
      </trkpt>
      <trkpt lat="48.14634" lon="6.40879">
        <ele>479.84</ele>
        <time>2012-04-09T07:47:15Z</time>
      </trkpt>
      <trkpt lat="48.14646" lon="6.40895">
        <ele>476.47</ele>
        <time>2012-04-09T07:47:19Z</time>
      </trkpt>
      <trkpt lat="48.14654" lon="6.40901">
        <ele>475.03</ele>
        <time>2012-04-09T07:47:21Z</time>
      </trkpt>
      <trkpt lat="48.14658" lon="6.40902">
        <ele>474.55</ele>
        <time>2012-04-09T07:47:22Z</time>
      </trkpt>
      <trkpt lat="48.14663" lon="6.40903">
        <ele>474.07</ele>
        <time>2012-04-09T07:47:23Z</time>
      </trkpt>
      <trkpt lat="48.14668" lon="6.40903">
        <ele>473.11</ele>
        <time>2012-04-09T07:47:24Z</time>
      </trkpt>
      <trkpt lat="48.14673" lon="6.40902">
        <ele>472.14</ele>
        <time>2012-04-09T07:47:25Z</time>
      </trkpt>
      <trkpt lat="48.14678" lon="6.409">
        <ele>471.66</ele>
        <time>2012-04-09T07:47:26Z</time>
      </trkpt>
      <trkpt lat="48.14684" lon="6.40897">
        <ele>471.18</ele>
        <time>2012-04-09T07:47:27Z</time>
      </trkpt>
      <trkpt lat="48.14707" lon="6.40883">
        <ele>469.74</ele>
        <time>2012-04-09T07:47:31Z</time>
      </trkpt>
      <trkpt lat="48.14714" lon="6.40881">
        <ele>469.26</ele>
        <time>2012-04-09T07:47:32Z</time>
      </trkpt>
      <trkpt lat="48.14721" lon="6.40882">
        <ele>468.78</ele>
        <time>2012-04-09T07:47:33Z</time>
      </trkpt>
      <trkpt lat="48.14728" lon="6.40884">
        <ele>468.3</ele>
        <time>2012-04-09T07:47:34Z</time>
      </trkpt>
      <trkpt lat="48.14734" lon="6.40888">
        <ele>468.3</ele>
        <time>2012-04-09T07:47:35Z</time>
      </trkpt>
      <trkpt lat="48.14739" lon="6.40894">
        <ele>467.82</ele>
        <time>2012-04-09T07:47:36Z</time>
      </trkpt>
      <trkpt lat="48.14742" lon="6.40901">
        <ele>467.82</ele>
        <time>2012-04-09T07:47:37Z</time>
      </trkpt>
      <trkpt lat="48.14744" lon="6.40909">
        <ele>467.34</ele>
        <time>2012-04-09T07:47:38Z</time>
      </trkpt>
      <trkpt lat="48.14745" lon="6.40916">
        <ele>467.34</ele>
        <time>2012-04-09T07:47:39Z</time>
      </trkpt>
      <trkpt lat="48.14746" lon="6.40923">
        <ele>466.86</ele>
        <time>2012-04-09T07:47:40Z</time>
      </trkpt>
      <trkpt lat="48.14746" lon="6.40936">
        <ele>467.34</ele>
        <time>2012-04-09T07:47:42Z</time>
      </trkpt>
      <trkpt lat="48.14747" lon="6.40942">
        <ele>467.82</ele>
        <time>2012-04-09T07:47:43Z</time>
      </trkpt>
      <trkpt lat="48.14747" lon="6.40948">
        <ele>468.3</ele>
        <time>2012-04-09T07:47:44Z</time>
      </trkpt>
      <trkpt lat="48.14736" lon="6.41016">
        <ele>476.47</ele>
        <time>2012-04-09T07:47:57Z</time>
      </trkpt>
      <trkpt lat="48.14734" lon="6.41044">
        <ele>478.39</ele>
        <time>2012-04-09T07:48:02Z</time>
      </trkpt>
      <trkpt lat="48.14736" lon="6.4105">
        <ele>478.87</ele>
        <time>2012-04-09T07:48:03Z</time>
      </trkpt>
      <trkpt lat="48.14737" lon="6.41057">
        <ele>479.35</ele>
        <time>2012-04-09T07:48:04Z</time>
      </trkpt>
      <trkpt lat="48.1474" lon="6.4107">
        <ele>479.84</ele>
        <time>2012-04-09T07:48:06Z</time>
      </trkpt>
      <trkpt lat="48.14746" lon="6.41088">
        <ele>481.28</ele>
        <time>2012-04-09T07:48:09Z</time>
      </trkpt>
      <trkpt lat="48.14753" lon="6.41105">
        <ele>481.28</ele>
        <time>2012-04-09T07:48:12Z</time>
      </trkpt>
      <trkpt lat="48.14768" lon="6.41127">
        <ele>480.8</ele>
        <time>2012-04-09T07:48:17Z</time>
      </trkpt>
      <trkpt lat="48.14772" lon="6.41128">
        <ele>480.8</ele>
        <time>2012-04-09T07:48:18Z</time>
      </trkpt>
      <trkpt lat="48.14781" lon="6.41127">
        <ele>480.32</ele>
        <time>2012-04-09T07:48:20Z</time>
      </trkpt>
      <trkpt lat="48.14785" lon="6.41125">
        <ele>479.84</ele>
        <time>2012-04-09T07:48:21Z</time>
      </trkpt>
      <trkpt lat="48.14831" lon="6.41091">
        <ele>481.76</ele>
        <time>2012-04-09T07:48:35Z</time>
      </trkpt>
      <trkpt lat="48.14879" lon="6.41054">
        <ele>490.41</ele>
        <time>2012-04-09T07:48:48Z</time>
      </trkpt>
      <trkpt lat="48.14882" lon="6.4105">
        <ele>490.89</ele>
        <time>2012-04-09T07:48:49Z</time>
      </trkpt>
      <trkpt lat="48.14886" lon="6.41045">
        <ele>490.89</ele>
        <time>2012-04-09T07:48:50Z</time>
      </trkpt>
      <trkpt lat="48.14894" lon="6.41037">
        <ele>491.85</ele>
        <time>2012-04-09T07:48:52Z</time>
      </trkpt>
      <trkpt lat="48.14897" lon="6.41034">
        <ele>491.85</ele>
        <time>2012-04-09T07:48:53Z</time>
      </trkpt>
      <trkpt lat="48.14901" lon="6.41031">
        <ele>491.85</ele>
        <time>2012-04-09T07:48:54Z</time>
      </trkpt>
      <trkpt lat="48.14932" lon="6.41027">
        <ele>490.41</ele>
        <time>2012-04-09T07:49:01Z</time>
      </trkpt>
      <trkpt lat="48.14937" lon="6.41028">
        <ele>489.93</ele>
        <time>2012-04-09T07:49:02Z</time>
      </trkpt>
      <trkpt lat="48.1495" lon="6.41031">
        <ele>488.49</ele>
        <time>2012-04-09T07:49:05Z</time>
      </trkpt>
      <trkpt lat="48.14954" lon="6.41033">
        <ele>488.49</ele>
        <time>2012-04-09T07:49:06Z</time>
      </trkpt>
      <trkpt lat="48.14958" lon="6.41036">
        <ele>488.01</ele>
        <time>2012-04-09T07:49:07Z</time>
      </trkpt>
      <trkpt lat="48.14961" lon="6.41041">
        <ele>488.01</ele>
        <time>2012-04-09T07:49:08Z</time>
      </trkpt>
      <trkpt lat="48.14964" lon="6.41046">
        <ele>488.01</ele>
        <time>2012-04-09T07:49:09Z</time>
      </trkpt>
      <trkpt lat="48.14967" lon="6.41052">
        <ele>488.01</ele>
        <time>2012-04-09T07:49:10Z</time>
      </trkpt>
      <trkpt lat="48.14969" lon="6.41059">
        <ele>487.53</ele>
        <time>2012-04-09T07:49:11Z</time>
      </trkpt>
      <trkpt lat="48.1497" lon="6.41065">
        <ele>487.05</ele>
        <time>2012-04-09T07:49:12Z</time>
      </trkpt>
      <trkpt lat="48.1497" lon="6.41071">
        <ele>487.05</ele>
        <time>2012-04-09T07:49:13Z</time>
      </trkpt>
      <trkpt lat="48.1497" lon="6.41075">
        <ele>486.56</ele>
        <time>2012-04-09T07:49:14Z</time>
      </trkpt>
      <trkpt lat="48.1497" lon="6.41079">
        <ele>486.56</ele>
        <time>2012-04-09T07:49:15Z</time>
      </trkpt>
      <trkpt lat="48.14968" lon="6.41084">
        <ele>486.56</ele>
        <time>2012-04-09T07:49:16Z</time>
      </trkpt>
      <trkpt lat="48.14966" lon="6.41087">
        <ele>486.56</ele>
        <time>2012-04-09T07:49:17Z</time>
      </trkpt>
      <trkpt lat="48.14965" lon="6.41091">
        <ele>486.56</ele>
        <time>2012-04-09T07:49:18Z</time>
      </trkpt>
      <trkpt lat="48.14944" lon="6.41134">
        <ele>487.05</ele>
        <time>2012-04-09T07:49:30Z</time>
      </trkpt>
      <trkpt lat="48.14932" lon="6.41182">
        <ele>492.81</ele>
        <time>2012-04-09T07:49:41Z</time>
      </trkpt>
      <trkpt lat="48.14925" lon="6.41239">
        <ele>499.54</ele>
        <time>2012-04-09T07:49:52Z</time>
      </trkpt>
      <trkpt lat="48.14921" lon="6.4131">
        <ele>506.75</ele>
        <time>2012-04-09T07:50:05Z</time>
      </trkpt>
      <trkpt lat="48.14938" lon="6.41364">
        <ele>508.67</ele>
        <time>2012-04-09T07:50:16Z</time>
      </trkpt>
      <trkpt lat="48.14947" lon="6.41374">
        <ele>508.19</ele>
        <time>2012-04-09T07:50:19Z</time>
      </trkpt>
      <trkpt lat="48.14951" lon="6.41378">
        <ele>507.71</ele>
        <time>2012-04-09T07:50:20Z</time>
      </trkpt>
      <trkpt lat="48.14955" lon="6.4138">
        <ele>506.75</ele>
        <time>2012-04-09T07:50:21Z</time>
      </trkpt>
      <trkpt lat="48.14959" lon="6.41383">
        <ele>506.75</ele>
        <time>2012-04-09T07:50:22Z</time>
      </trkpt>
      <trkpt lat="48.14963" lon="6.41384">
        <ele>506.27</ele>
        <time>2012-04-09T07:50:23Z</time>
      </trkpt>
      <trkpt lat="48.14966" lon="6.41386">
        <ele>505.79</ele>
        <time>2012-04-09T07:50:24Z</time>
      </trkpt>
      <trkpt lat="48.14971" lon="6.41387">
        <ele>505.31</ele>
        <time>2012-04-09T07:50:25Z</time>
      </trkpt>
      <trkpt lat="48.14976" lon="6.4139">
        <ele>503.87</ele>
        <time>2012-04-09T07:50:26Z</time>
      </trkpt>
      <trkpt lat="48.14981" lon="6.4139">
        <ele>502.91</ele>
        <time>2012-04-09T07:50:27Z</time>
      </trkpt>
      <trkpt lat="48.15039" lon="6.41374">
        <ele>492.81</ele>
        <time>2012-04-09T07:50:37Z</time>
      </trkpt>
      <trkpt lat="48.15046" lon="6.41373">
        <ele>491.85</ele>
        <time>2012-04-09T07:50:38Z</time>
      </trkpt>
      <trkpt lat="48.15053" lon="6.41374">
        <ele>491.37</ele>
        <time>2012-04-09T07:50:39Z</time>
      </trkpt>
      <trkpt lat="48.1506" lon="6.41377">
        <ele>490.89</ele>
        <time>2012-04-09T07:50:40Z</time>
      </trkpt>
      <trkpt lat="48.15067" lon="6.41381">
        <ele>490.41</ele>
        <time>2012-04-09T07:50:41Z</time>
      </trkpt>
      <trkpt lat="48.15074" lon="6.41386">
        <ele>489.45</ele>
        <time>2012-04-09T07:50:42Z</time>
      </trkpt>
      <trkpt lat="48.1508" lon="6.41394">
        <ele>488.97</ele>
        <time>2012-04-09T07:50:43Z</time>
      </trkpt>
      <trkpt lat="48.15085" lon="6.41401">
        <ele>488.01</ele>
        <time>2012-04-09T07:50:44Z</time>
      </trkpt>
      <trkpt lat="48.1512" lon="6.41451">
        <ele>483.68</ele>
        <time>2012-04-09T07:50:50Z</time>
      </trkpt>
      <trkpt lat="48.15124" lon="6.41461">
        <ele>483.2</ele>
        <time>2012-04-09T07:50:51Z</time>
      </trkpt>
      <trkpt lat="48.15128" lon="6.41471">
        <ele>482.24</ele>
        <time>2012-04-09T07:50:52Z</time>
      </trkpt>
      <trkpt lat="48.15132" lon="6.41482">
        <ele>481.76</ele>
        <time>2012-04-09T07:50:53Z</time>
      </trkpt>
      <trkpt lat="48.15135" lon="6.41492">
        <ele>480.8</ele>
        <time>2012-04-09T07:50:54Z</time>
      </trkpt>
      <trkpt lat="48.15137" lon="6.41501">
        <ele>480.32</ele>
        <time>2012-04-09T07:50:55Z</time>
      </trkpt>
      <trkpt lat="48.15147" lon="6.4154">
        <ele>477.91</ele>
        <time>2012-04-09T07:51:03Z</time>
      </trkpt>
      <trkpt lat="48.15149" lon="6.41543">
        <ele>477.43</ele>
        <time>2012-04-09T07:51:05Z</time>
      </trkpt>
      <trkpt lat="48.1515" lon="6.41543">
        <ele>477.43</ele>
        <time>2012-04-09T07:51:06Z</time>
      </trkpt>
      <trkpt lat="48.15151" lon="6.41543">
        <ele>476.95</ele>
        <time>2012-04-09T07:51:07Z</time>
      </trkpt>
      <trkpt lat="48.15152" lon="6.41543">
        <ele>477.43</ele>
        <time>2012-04-09T07:51:08Z</time>
      </trkpt>
      <trkpt lat="48.15166" lon="6.41578">
        <ele>484.64</ele>
        <time>2012-04-09T07:56:45Z</time>
      </trkpt>
      <trkpt lat="48.15167" lon="6.41585">
        <ele>485.6</ele>
        <time>2012-04-09T07:56:47Z</time>
      </trkpt>
      <trkpt lat="48.15154" lon="6.41608">
        <ele>494.26</ele>
        <time>2012-04-09T07:56:57Z</time>
      </trkpt>
      <trkpt lat="48.1513" lon="6.41633">
        <ele>498.58</ele>
        <time>2012-04-09T07:57:04Z</time>
      </trkpt>
      <trkpt lat="48.1508" lon="6.41669">
        <ele>504.35</ele>
        <time>2012-04-09T07:57:14Z</time>
      </trkpt>
      <trkpt lat="48.15055" lon="6.41689">
        <ele>511.56</ele>
        <time>2012-04-09T07:57:24Z</time>
      </trkpt>
      <trkpt lat="48.15033" lon="6.41707">
        <ele>520.21</ele>
        <time>2012-04-09T07:57:35Z</time>
      </trkpt>
      <trkpt lat="48.15002" lon="6.41732">
        <ele>528.86</ele>
        <time>2012-04-09T07:57:48Z</time>
      </trkpt>
      <trkpt lat="48.14967" lon="6.41753">
        <ele>534.15</ele>
        <time>2012-04-09T07:58:00Z</time>
      </trkpt>
      <trkpt lat="48.14939" lon="6.41763">
        <ele>539.92</ele>
        <time>2012-04-09T07:58:09Z</time>
      </trkpt>
      <trkpt lat="48.14931" lon="6.41771">
        <ele>541.36</ele>
        <time>2012-04-09T07:58:13Z</time>
      </trkpt>
      <trkpt lat="48.14938" lon="6.41794">
        <ele>541.36</ele>
        <time>2012-04-09T07:58:19Z</time>
      </trkpt>
      <trkpt lat="48.14939" lon="6.41813">
        <ele>535.11</ele>
        <time>2012-04-09T07:58:22Z</time>
      </trkpt>
      <trkpt lat="48.14939" lon="6.4182">
        <ele>533.19</ele>
        <time>2012-04-09T07:58:23Z</time>
      </trkpt>
      <trkpt lat="48.1494" lon="6.41825">
        <ele>532.71</ele>
        <time>2012-04-09T07:58:24Z</time>
      </trkpt>
      <trkpt lat="48.14938" lon="6.4183">
        <ele>530.3</ele>
        <time>2012-04-09T07:58:25Z</time>
      </trkpt>
      <trkpt lat="48.14938" lon="6.41835">
        <ele>529.34</ele>
        <time>2012-04-09T07:58:26Z</time>
      </trkpt>
      <trkpt lat="48.14937" lon="6.41839">
        <ele>528.86</ele>
        <time>2012-04-09T07:58:27Z</time>
      </trkpt>
      <trkpt lat="48.14911" lon="6.4185">
        <ele>525.98</ele>
        <time>2012-04-09T07:58:34Z</time>
      </trkpt>
      <trkpt lat="48.14897" lon="6.41851">
        <ele>525.5</ele>
        <time>2012-04-09T07:58:37Z</time>
      </trkpt>
      <trkpt lat="48.14848" lon="6.41855">
        <ele>523.58</ele>
        <time>2012-04-09T07:58:46Z</time>
      </trkpt>
      <trkpt lat="48.14804" lon="6.41861">
        <ele>515.88</ele>
        <time>2012-04-09T07:58:57Z</time>
      </trkpt>
      <trkpt lat="48.14786" lon="6.41863">
        <ele>513.48</ele>
        <time>2012-04-09T07:59:01Z</time>
      </trkpt>
      <trkpt lat="48.14759" lon="6.41858">
        <ele>510.12</ele>
        <time>2012-04-09T07:59:06Z</time>
      </trkpt>
      <trkpt lat="48.14747" lon="6.41856">
        <ele>508.67</ele>
        <time>2012-04-09T07:59:08Z</time>
      </trkpt>
      <trkpt lat="48.14738" lon="6.41855">
        <ele>506.75</ele>
        <time>2012-04-09T07:59:10Z</time>
      </trkpt>
      <trkpt lat="48.14734" lon="6.41856">
        <ele>506.27</ele>
        <time>2012-04-09T07:59:11Z</time>
      </trkpt>
      <trkpt lat="48.14726" lon="6.41855">
        <ele>503.87</ele>
        <time>2012-04-09T07:59:12Z</time>
      </trkpt>
      <trkpt lat="48.14724" lon="6.41854">
        <ele>502.91</ele>
        <time>2012-04-09T07:59:13Z</time>
      </trkpt>
      <trkpt lat="48.14724" lon="6.41854">
        <ele>501.95</ele>
        <time>2012-04-09T07:59:14Z</time>
      </trkpt>
      <trkpt lat="48.14718" lon="6.41866">
        <ele>491.85</ele>
        <time>2012-04-09T07:59:23Z</time>
      </trkpt>
      <trkpt lat="48.14717" lon="6.41868">
        <ele>491.85</ele>
        <time>2012-04-09T07:59:24Z</time>
      </trkpt>
      <trkpt lat="48.1471" lon="6.41882">
        <ele>492.81</ele>
        <time>2012-04-09T07:59:29Z</time>
      </trkpt>
      <trkpt lat="48.14708" lon="6.41884">
        <ele>493.29</ele>
        <time>2012-04-09T07:59:30Z</time>
      </trkpt>
      <trkpt lat="48.14705" lon="6.41887">
        <ele>493.77</ele>
        <time>2012-04-09T07:59:31Z</time>
      </trkpt>
      <trkpt lat="48.14703" lon="6.4189">
        <ele>494.74</ele>
        <time>2012-04-09T07:59:32Z</time>
      </trkpt>
      <trkpt lat="48.147" lon="6.41896">
        <ele>495.22</ele>
        <time>2012-04-09T07:59:33Z</time>
      </trkpt>
      <trkpt lat="48.14697" lon="6.41902">
        <ele>496.18</ele>
        <time>2012-04-09T07:59:34Z</time>
      </trkpt>
      <trkpt lat="48.14696" lon="6.41908">
        <ele>496.66</ele>
        <time>2012-04-09T07:59:35Z</time>
      </trkpt>
      <trkpt lat="48.14693" lon="6.41915">
        <ele>497.62</ele>
        <time>2012-04-09T07:59:36Z</time>
      </trkpt>
      <trkpt lat="48.14688" lon="6.41929">
        <ele>499.06</ele>
        <time>2012-04-09T07:59:38Z</time>
      </trkpt>
      <trkpt lat="48.14686" lon="6.41937">
        <ele>499.54</ele>
        <time>2012-04-09T07:59:39Z</time>
      </trkpt>
      <trkpt lat="48.14675" lon="6.41959">
        <ele>500.98</ele>
        <time>2012-04-09T07:59:42Z</time>
      </trkpt>
      <trkpt lat="48.14667" lon="6.41977">
        <ele>502.43</ele>
        <time>2012-04-09T07:59:44Z</time>
      </trkpt>
      <trkpt lat="48.14653" lon="6.42009">
        <ele>503.39</ele>
        <time>2012-04-09T07:59:47Z</time>
      </trkpt>
      <trkpt lat="48.14648" lon="6.42019">
        <ele>503.39</ele>
        <time>2012-04-09T07:59:48Z</time>
      </trkpt>
      <trkpt lat="48.14642" lon="6.42027">
        <ele>503.39</ele>
        <time>2012-04-09T07:59:49Z</time>
      </trkpt>
      <trkpt lat="48.14637" lon="6.42035">
        <ele>503.39</ele>
        <time>2012-04-09T07:59:50Z</time>
      </trkpt>
      <trkpt lat="48.14634" lon="6.42045">
        <ele>502.91</ele>
        <time>2012-04-09T07:59:51Z</time>
      </trkpt>
      <trkpt lat="48.14631" lon="6.42053">
        <ele>502.91</ele>
        <time>2012-04-09T07:59:52Z</time>
      </trkpt>
      <trkpt lat="48.1463" lon="6.42061">
        <ele>502.91</ele>
        <time>2012-04-09T07:59:53Z</time>
      </trkpt>
      <trkpt lat="48.14627" lon="6.42066">
        <ele>502.43</ele>
        <time>2012-04-09T07:59:54Z</time>
      </trkpt>
      <trkpt lat="48.14622" lon="6.42069">
        <ele>502.43</ele>
        <time>2012-04-09T07:59:55Z</time>
      </trkpt>
      <trkpt lat="48.14616" lon="6.42071">
        <ele>502.43</ele>
        <time>2012-04-09T07:59:56Z</time>
      </trkpt>
      <trkpt lat="48.14611" lon="6.42073">
        <ele>501.95</ele>
        <time>2012-04-09T07:59:57Z</time>
      </trkpt>
      <trkpt lat="48.14605" lon="6.42075">
        <ele>501.46</ele>
        <time>2012-04-09T07:59:58Z</time>
      </trkpt>
      <trkpt lat="48.14599" lon="6.42075">
        <ele>500.98</ele>
        <time>2012-04-09T07:59:59Z</time>
      </trkpt>
      <trkpt lat="48.14594" lon="6.42075">
        <ele>500.98</ele>
        <time>2012-04-09T08:00:00Z</time>
      </trkpt>
      <trkpt lat="48.14591" lon="6.42071">
        <ele>500.5</ele>
        <time>2012-04-09T08:00:01Z</time>
      </trkpt>
      <trkpt lat="48.14589" lon="6.4207">
        <ele>497.14</ele>
        <time>2012-04-09T08:00:02Z</time>
      </trkpt>
      <trkpt lat="48.14588" lon="6.42068">
        <ele>493.77</ele>
        <time>2012-04-09T08:00:03Z</time>
      </trkpt>
      <trkpt lat="48.14586" lon="6.42066">
        <ele>491.37</ele>
        <time>2012-04-09T08:00:04Z</time>
      </trkpt>
      <trkpt lat="48.14583" lon="6.42064">
        <ele>489.45</ele>
        <time>2012-04-09T08:00:05Z</time>
      </trkpt>
      <trkpt lat="48.14578" lon="6.4206">
        <ele>485.6</ele>
        <time>2012-04-09T08:00:07Z</time>
      </trkpt>
      <trkpt lat="48.14576" lon="6.42058">
        <ele>484.16</ele>
        <time>2012-04-09T08:00:08Z</time>
      </trkpt>
      <trkpt lat="48.14574" lon="6.42054">
        <ele>483.2</ele>
        <time>2012-04-09T08:00:09Z</time>
      </trkpt>
      <trkpt lat="48.14573" lon="6.4205">
        <ele>481.76</ele>
        <time>2012-04-09T08:00:10Z</time>
      </trkpt>
      <trkpt lat="48.14572" lon="6.42046">
        <ele>480.8</ele>
        <time>2012-04-09T08:00:11Z</time>
      </trkpt>
      <trkpt lat="48.14572" lon="6.41999">
        <ele>460.13</ele>
        <time>2012-04-09T08:00:23Z</time>
      </trkpt>
      <trkpt lat="48.14559" lon="6.41957">
        <ele>452.92</ele>
        <time>2012-04-09T08:00:32Z</time>
      </trkpt>
      <trkpt lat="48.1454" lon="6.41913">
        <ele>446.19</ele>
        <time>2012-04-09T08:00:42Z</time>
      </trkpt>
      <trkpt lat="48.14539" lon="6.41907">
        <ele>445.71</ele>
        <time>2012-04-09T08:00:43Z</time>
      </trkpt>
      <trkpt lat="48.14538" lon="6.41901">
        <ele>445.71</ele>
        <time>2012-04-09T08:00:44Z</time>
      </trkpt>
      <trkpt lat="48.14536" lon="6.41896">
        <ele>445.23</ele>
        <time>2012-04-09T08:00:45Z</time>
      </trkpt>
      <trkpt lat="48.14534" lon="6.41891">
        <ele>444.75</ele>
        <time>2012-04-09T08:00:46Z</time>
      </trkpt>
      <trkpt lat="48.14531" lon="6.41886">
        <ele>444.75</ele>
        <time>2012-04-09T08:00:47Z</time>
      </trkpt>
      <trkpt lat="48.14529" lon="6.41882">
        <ele>444.27</ele>
        <time>2012-04-09T08:00:48Z</time>
      </trkpt>
      <trkpt lat="48.14497" lon="6.41806">
        <ele>438.98</ele>
        <time>2012-04-09T08:01:02Z</time>
      </trkpt>
      <trkpt lat="48.1448" lon="6.41757">
        <ele>438.02</ele>
        <time>2012-04-09T08:01:12Z</time>
      </trkpt>
      <trkpt lat="48.1445" lon="6.41694">
        <ele>434.65</ele>
        <time>2012-04-09T08:01:25Z</time>
      </trkpt>
      <trkpt lat="48.14434" lon="6.41636">
        <ele>433.21</ele>
        <time>2012-04-09T08:01:36Z</time>
      </trkpt>
      <trkpt lat="48.1442" lon="6.41584">
        <ele>433.21</ele>
        <time>2012-04-09T08:01:46Z</time>
      </trkpt>
      <trkpt lat="48.14406" lon="6.41536">
        <ele>434.65</ele>
        <time>2012-04-09T08:01:54Z</time>
      </trkpt>
      <trkpt lat="48.14404" lon="6.4153">
        <ele>434.65</ele>
        <time>2012-04-09T08:01:55Z</time>
      </trkpt>
      <trkpt lat="48.14399" lon="6.41518">
        <ele>435.13</ele>
        <time>2012-04-09T08:01:57Z</time>
      </trkpt>
      <trkpt lat="48.14395" lon="6.41506">
        <ele>435.61</ele>
        <time>2012-04-09T08:01:59Z</time>
      </trkpt>
      <trkpt lat="48.14383" lon="6.41475">
        <ele>435.61</ele>
        <time>2012-04-09T08:02:04Z</time>
      </trkpt>
      <trkpt lat="48.14375" lon="6.4145">
        <ele>435.61</ele>
        <time>2012-04-09T08:02:08Z</time>
      </trkpt>
      <trkpt lat="48.14353" lon="6.41363">
        <ele>438.5</ele>
        <time>2012-04-09T08:02:22Z</time>
      </trkpt>
      <trkpt lat="48.14349" lon="6.41351">
        <ele>439.46</ele>
        <time>2012-04-09T08:02:24Z</time>
      </trkpt>
      <trkpt lat="48.14346" lon="6.41337">
        <ele>440.9</ele>
        <time>2012-04-09T08:02:26Z</time>
      </trkpt>
      <trkpt lat="48.14342" lon="6.41317">
        <ele>442.82</ele>
        <time>2012-04-09T08:02:29Z</time>
      </trkpt>
      <trkpt lat="48.14341" lon="6.41309">
        <ele>442.82</ele>
        <time>2012-04-09T08:02:30Z</time>
      </trkpt>
      <trkpt lat="48.14339" lon="6.41293">
        <ele>442.82</ele>
        <time>2012-04-09T08:02:32Z</time>
      </trkpt>
      <trkpt lat="48.14335" lon="6.41264">
        <ele>441.38</ele>
        <time>2012-04-09T08:02:36Z</time>
      </trkpt>
      <trkpt lat="48.14334" lon="6.41257">
        <ele>440.9</ele>
        <time>2012-04-09T08:02:37Z</time>
      </trkpt>
      <trkpt lat="48.14316" lon="6.4117">
        <ele>442.82</ele>
        <time>2012-04-09T08:02:51Z</time>
      </trkpt>
      <trkpt lat="48.14315" lon="6.41152">
        <ele>443.31</ele>
        <time>2012-04-09T08:02:54Z</time>
      </trkpt>
      <trkpt lat="48.14314" lon="6.41146">
        <ele>443.79</ele>
        <time>2012-04-09T08:02:55Z</time>
      </trkpt>
      <trkpt lat="48.14313" lon="6.41132">
        <ele>444.75</ele>
        <time>2012-04-09T08:02:57Z</time>
      </trkpt>
      <trkpt lat="48.14313" lon="6.41117">
        <ele>445.23</ele>
        <time>2012-04-09T08:02:59Z</time>
      </trkpt>
      <trkpt lat="48.14309" lon="6.41084">
        <ele>446.67</ele>
        <time>2012-04-09T08:03:04Z</time>
      </trkpt>
      <trkpt lat="48.14309" lon="6.41078">
        <ele>447.15</ele>
        <time>2012-04-09T08:03:05Z</time>
      </trkpt>
      <trkpt lat="48.14308" lon="6.41059">
        <ele>448.59</ele>
        <time>2012-04-09T08:03:08Z</time>
      </trkpt>
      <trkpt lat="48.14307" lon="6.41053">
        <ele>449.55</ele>
        <time>2012-04-09T08:03:09Z</time>
      </trkpt>
      <trkpt lat="48.14306" lon="6.41047">
        <ele>450.03</ele>
        <time>2012-04-09T08:03:10Z</time>
      </trkpt>
      <trkpt lat="48.14305" lon="6.41041">
        <ele>450.52</ele>
        <time>2012-04-09T08:03:11Z</time>
      </trkpt>
      <trkpt lat="48.14304" lon="6.41036">
        <ele>451.48</ele>
        <time>2012-04-09T08:03:12Z</time>
      </trkpt>
      <trkpt lat="48.14303" lon="6.4103">
        <ele>451.96</ele>
        <time>2012-04-09T08:03:13Z</time>
      </trkpt>
      <trkpt lat="48.14288" lon="6.40972">
        <ele>460.13</ele>
        <time>2012-04-09T08:03:24Z</time>
      </trkpt>
      <trkpt lat="48.14285" lon="6.40956">
        <ele>459.17</ele>
        <time>2012-04-09T08:03:29Z</time>
      </trkpt>
      <trkpt lat="48.14285" lon="6.40954">
        <ele>457.72</ele>
        <time>2012-04-09T08:03:30Z</time>
      </trkpt>
      <trkpt lat="48.14286" lon="6.40952">
        <ele>456.28</ele>
        <time>2012-04-09T08:03:31Z</time>
      </trkpt>
      <trkpt lat="48.14287" lon="6.40948">
        <ele>453.88</ele>
        <time>2012-04-09T08:03:32Z</time>
      </trkpt>
      <trkpt lat="48.14286" lon="6.40948">
        <ele>452.92</ele>
        <time>2012-04-09T08:03:33Z</time>
      </trkpt>
      <trkpt lat="48.14286" lon="6.40947">
        <ele>451.96</ele>
        <time>2012-04-09T08:03:34Z</time>
      </trkpt>
      <trkpt lat="48.14288" lon="6.40946">
        <ele>451</ele>
        <time>2012-04-09T08:03:35Z</time>
      </trkpt>
      <trkpt lat="48.1429" lon="6.40946">
        <ele>451</ele>
        <time>2012-04-09T08:03:36Z</time>
      </trkpt>
      <trkpt lat="48.1429" lon="6.40944">
        <ele>450.52</ele>
        <time>2012-04-09T08:03:37Z</time>
      </trkpt>
      <trkpt lat="48.1429" lon="6.40942">
        <ele>450.52</ele>
        <time>2012-04-09T08:03:38Z</time>
      </trkpt>
      <trkpt lat="48.14289" lon="6.4094">
        <ele>451</ele>
        <time>2012-04-09T08:03:39Z</time>
      </trkpt>
      <trkpt lat="48.14288" lon="6.40939">
        <ele>451</ele>
        <time>2012-04-09T08:03:40Z</time>
      </trkpt>
      <trkpt lat="48.14282" lon="6.40942">
        <ele>451.48</ele>
        <time>2012-04-09T08:03:46Z</time>
      </trkpt>
      <trkpt lat="48.14281" lon="6.40944">
        <ele>451.96</ele>
        <time>2012-04-09T08:03:48Z</time>
      </trkpt>
      <trkpt lat="48.1428" lon="6.40948">
        <ele>454.84</ele>
        <time>2012-04-09T08:03:55Z</time>
      </trkpt>
      <trkpt lat="48.1428" lon="6.40953">
        <ele>457.24</ele>
        <time>2012-04-09T08:03:58Z</time>
      </trkpt>
      <trkpt lat="48.14281" lon="6.40961">
        <ele>460.13</ele>
        <time>2012-04-09T08:04:02Z</time>
      </trkpt>
      <trkpt lat="48.14286" lon="6.41008">
        <ele>469.26</ele>
        <time>2012-04-09T08:04:16Z</time>
      </trkpt>
      <trkpt lat="48.14288" lon="6.41083">
        <ele>467.34</ele>
        <time>2012-04-09T08:04:30Z</time>
      </trkpt>
      <trkpt lat="48.1429" lon="6.41146">
        <ele>459.65</ele>
        <time>2012-04-09T08:04:41Z</time>
      </trkpt>
      <trkpt lat="48.14286" lon="6.41207">
        <ele>453.4</ele>
        <time>2012-04-09T08:04:54Z</time>
      </trkpt>
      <trkpt lat="48.14278" lon="6.41261">
        <ele>450.03</ele>
        <time>2012-04-09T08:05:07Z</time>
      </trkpt>
      <trkpt lat="48.14269" lon="6.413">
        <ele>449.55</ele>
        <time>2012-04-09T08:05:17Z</time>
      </trkpt>
      <trkpt lat="48.14248" lon="6.41347">
        <ele>450.03</ele>
        <time>2012-04-09T08:05:31Z</time>
      </trkpt>
      <trkpt lat="48.14227" lon="6.4138">
        <ele>455.32</ele>
        <time>2012-04-09T08:05:44Z</time>
      </trkpt>
      <trkpt lat="48.14192" lon="6.41404">
        <ele>462.05</ele>
        <time>2012-04-09T08:05:55Z</time>
      </trkpt>
      <trkpt lat="48.14188" lon="6.41408">
        <ele>463.01</ele>
        <time>2012-04-09T08:05:56Z</time>
      </trkpt>
      <trkpt lat="48.14184" lon="6.41412">
        <ele>463.49</ele>
        <time>2012-04-09T08:05:57Z</time>
      </trkpt>
      <trkpt lat="48.14162" lon="6.41446">
        <ele>468.78</ele>
        <time>2012-04-09T08:06:08Z</time>
      </trkpt>
      <trkpt lat="48.1415" lon="6.4149">
        <ele>462.53</ele>
        <time>2012-04-09T08:06:20Z</time>
      </trkpt>
      <trkpt lat="48.14142" lon="6.41539">
        <ele>467.34</ele>
        <time>2012-04-09T08:06:32Z</time>
      </trkpt>
      <trkpt lat="48.14143" lon="6.41585">
        <ele>471.66</ele>
        <time>2012-04-09T08:06:42Z</time>
      </trkpt>
      <trkpt lat="48.14156" lon="6.41609">
        <ele>476.95</ele>
        <time>2012-04-09T08:06:52Z</time>
      </trkpt>
      <trkpt lat="48.14176" lon="6.41623">
        <ele>483.2</ele>
        <time>2012-04-09T08:07:03Z</time>
      </trkpt>
      <trkpt lat="48.14201" lon="6.41651">
        <ele>487.05</ele>
        <time>2012-04-09T08:07:16Z</time>
      </trkpt>
      <trkpt lat="48.1422" lon="6.41686">
        <ele>481.76</ele>
        <time>2012-04-09T08:07:28Z</time>
      </trkpt>
      <trkpt lat="48.14243" lon="6.4172">
        <ele>477.43</ele>
        <time>2012-04-09T08:07:39Z</time>
      </trkpt>
      <trkpt lat="48.14265" lon="6.41756">
        <ele>481.28</ele>
        <time>2012-04-09T08:07:50Z</time>
      </trkpt>
      <trkpt lat="48.14274" lon="6.41791">
        <ele>482.72</ele>
        <time>2012-04-09T08:08:00Z</time>
      </trkpt>
      <trkpt lat="48.14276" lon="6.41798">
        <ele>483.2</ele>
        <time>2012-04-09T08:08:01Z</time>
      </trkpt>
      <trkpt lat="48.1428" lon="6.41847">
        <ele>484.64</ele>
        <time>2012-04-09T08:08:06Z</time>
      </trkpt>
      <trkpt lat="48.1428" lon="6.4186">
        <ele>484.64</ele>
        <time>2012-04-09T08:08:07Z</time>
      </trkpt>
      <trkpt lat="48.14278" lon="6.41909">
        <ele>485.12</ele>
        <time>2012-04-09T08:08:11Z</time>
      </trkpt>
      <trkpt lat="48.14278" lon="6.41921">
        <ele>485.12</ele>
        <time>2012-04-09T08:08:12Z</time>
      </trkpt>
      <trkpt lat="48.1428" lon="6.41933">
        <ele>485.12</ele>
        <time>2012-04-09T08:08:13Z</time>
      </trkpt>
      <trkpt lat="48.14282" lon="6.41945">
        <ele>485.6</ele>
        <time>2012-04-09T08:08:14Z</time>
      </trkpt>
      <trkpt lat="48.14285" lon="6.41955">
        <ele>485.6</ele>
        <time>2012-04-09T08:08:15Z</time>
      </trkpt>
      <trkpt lat="48.14289" lon="6.41965">
        <ele>486.08</ele>
        <time>2012-04-09T08:08:16Z</time>
      </trkpt>
      <trkpt lat="48.14293" lon="6.41973">
        <ele>486.08</ele>
        <time>2012-04-09T08:08:17Z</time>
      </trkpt>
      <trkpt lat="48.14298" lon="6.41979">
        <ele>485.6</ele>
        <time>2012-04-09T08:08:18Z</time>
      </trkpt>
      <trkpt lat="48.14303" lon="6.41984">
        <ele>485.6</ele>
        <time>2012-04-09T08:08:19Z</time>
      </trkpt>
      <trkpt lat="48.14308" lon="6.41987">
        <ele>485.6</ele>
        <time>2012-04-09T08:08:20Z</time>
      </trkpt>
      <trkpt lat="48.14313" lon="6.4199">
        <ele>485.6</ele>
        <time>2012-04-09T08:08:21Z</time>
      </trkpt>
      <trkpt lat="48.14318" lon="6.41993">
        <ele>485.12</ele>
        <time>2012-04-09T08:08:22Z</time>
      </trkpt>
      <trkpt lat="48.14322" lon="6.41995">
        <ele>484.64</ele>
        <time>2012-04-09T08:08:23Z</time>
      </trkpt>
      <trkpt lat="48.14358" lon="6.42031">
        <ele>483.2</ele>
        <time>2012-04-09T08:08:34Z</time>
      </trkpt>
      <trkpt lat="48.14377" lon="6.42081">
        <ele>488.01</ele>
        <time>2012-04-09T08:08:44Z</time>
      </trkpt>
      <trkpt lat="48.14383" lon="6.42111">
        <ele>489.45</ele>
        <time>2012-04-09T08:08:50Z</time>
      </trkpt>
      <trkpt lat="48.14383" lon="6.42116">
        <ele>489.45</ele>
        <time>2012-04-09T08:08:51Z</time>
      </trkpt>
      <trkpt lat="48.14384" lon="6.4212">
        <ele>489.45</ele>
        <time>2012-04-09T08:08:52Z</time>
      </trkpt>
      <trkpt lat="48.14384" lon="6.42125">
        <ele>489.93</ele>
        <time>2012-04-09T08:08:53Z</time>
      </trkpt>
      <trkpt lat="48.14384" lon="6.42131">
        <ele>489.93</ele>
        <time>2012-04-09T08:08:54Z</time>
      </trkpt>
      <trkpt lat="48.14388" lon="6.42166">
        <ele>492.33</ele>
        <time>2012-04-09T08:09:02Z</time>
      </trkpt>
      <trkpt lat="48.14386" lon="6.42171">
        <ele>492.33</ele>
        <time>2012-04-09T08:09:03Z</time>
      </trkpt>
      <trkpt lat="48.1438" lon="6.42187">
        <ele>493.29</ele>
        <time>2012-04-09T08:09:06Z</time>
      </trkpt>
      <trkpt lat="48.14379" lon="6.42194">
        <ele>493.77</ele>
        <time>2012-04-09T08:09:07Z</time>
      </trkpt>
      <trkpt lat="48.1438" lon="6.422">
        <ele>494.74</ele>
        <time>2012-04-09T08:09:08Z</time>
      </trkpt>
      <trkpt lat="48.14382" lon="6.42207">
        <ele>495.7</ele>
        <time>2012-04-09T08:09:09Z</time>
      </trkpt>
      <trkpt lat="48.14384" lon="6.42214">
        <ele>496.66</ele>
        <time>2012-04-09T08:09:10Z</time>
      </trkpt>
      <trkpt lat="48.14385" lon="6.42219">
        <ele>497.62</ele>
        <time>2012-04-09T08:09:11Z</time>
      </trkpt>
      <trkpt lat="48.14386" lon="6.42225">
        <ele>498.58</ele>
        <time>2012-04-09T08:09:12Z</time>
      </trkpt>
      <trkpt lat="48.14388" lon="6.42229">
        <ele>499.54</ele>
        <time>2012-04-09T08:09:13Z</time>
      </trkpt>
      <trkpt lat="48.14389" lon="6.42232">
        <ele>500.5</ele>
        <time>2012-04-09T08:09:14Z</time>
      </trkpt>
      <trkpt lat="48.1439" lon="6.42235">
        <ele>501.46</ele>
        <time>2012-04-09T08:09:15Z</time>
      </trkpt>
      <trkpt lat="48.14391" lon="6.42239">
        <ele>502.43</ele>
        <time>2012-04-09T08:09:16Z</time>
      </trkpt>
      <trkpt lat="48.14404" lon="6.42281">
        <ele>505.31</ele>
        <time>2012-04-09T08:09:25Z</time>
      </trkpt>
      <trkpt lat="48.14405" lon="6.42287">
        <ele>504.83</ele>
        <time>2012-04-09T08:09:26Z</time>
      </trkpt>
      <trkpt lat="48.14409" lon="6.42311">
        <ele>501.95</ele>
        <time>2012-04-09T08:09:30Z</time>
      </trkpt>
      <trkpt lat="48.14411" lon="6.4233">
        <ele>500.02</ele>
        <time>2012-04-09T08:09:33Z</time>
      </trkpt>
      <trkpt lat="48.14412" lon="6.42358">
        <ele>498.1</ele>
        <time>2012-04-09T08:09:37Z</time>
      </trkpt>
      <trkpt lat="48.14418" lon="6.42401">
        <ele>494.26</ele>
        <time>2012-04-09T08:09:42Z</time>
      </trkpt>
      <trkpt lat="48.14435" lon="6.42445">
        <ele>492.81</ele>
        <time>2012-04-09T08:09:48Z</time>
      </trkpt>
      <trkpt lat="48.14439" lon="6.42481">
        <ele>491.85</ele>
        <time>2012-04-09T08:09:54Z</time>
      </trkpt>
      <trkpt lat="48.14437" lon="6.42517">
        <ele>488.97</ele>
        <time>2012-04-09T08:09:59Z</time>
      </trkpt>
      <trkpt lat="48.14427" lon="6.42554">
        <ele>485.12</ele>
        <time>2012-04-09T08:10:04Z</time>
      </trkpt>
      <trkpt lat="48.14423" lon="6.42568">
        <ele>483.68</ele>
        <time>2012-04-09T08:10:06Z</time>
      </trkpt>
      <trkpt lat="48.14419" lon="6.42582">
        <ele>483.2</ele>
        <time>2012-04-09T08:10:08Z</time>
      </trkpt>
      <trkpt lat="48.14412" lon="6.42612">
        <ele>483.68</ele>
        <time>2012-04-09T08:10:12Z</time>
      </trkpt>
      <trkpt lat="48.14415" lon="6.42661">
        <ele>488.01</ele>
        <time>2012-04-09T08:10:21Z</time>
      </trkpt>
      <trkpt lat="48.14416" lon="6.42667">
        <ele>488.49</ele>
        <time>2012-04-09T08:10:23Z</time>
      </trkpt>
      <trkpt lat="48.14416" lon="6.42689">
        <ele>488.49</ele>
        <time>2012-04-09T08:10:30Z</time>
      </trkpt>
      <trkpt lat="48.14416" lon="6.42707">
        <ele>492.81</ele>
        <time>2012-04-09T08:10:37Z</time>
      </trkpt>
      <trkpt lat="48.14416" lon="6.42745">
        <ele>493.77</ele>
        <time>2012-04-09T08:10:50Z</time>
      </trkpt>
      <trkpt lat="48.14414" lon="6.42756">
        <ele>492.33</ele>
        <time>2012-04-09T08:10:53Z</time>
      </trkpt>
      <trkpt lat="48.14413" lon="6.42769">
        <ele>489.93</ele>
        <time>2012-04-09T08:10:57Z</time>
      </trkpt>
      <trkpt lat="48.14412" lon="6.42776">
        <ele>485.12</ele>
        <time>2012-04-09T08:11:00Z</time>
      </trkpt>
      <trkpt lat="48.14407" lon="6.42791">
        <ele>477.91</ele>
        <time>2012-04-09T08:11:13Z</time>
      </trkpt>
      <trkpt lat="48.14406" lon="6.42798">
        <ele>472.14</ele>
        <time>2012-04-09T08:11:30Z</time>
      </trkpt>
      <trkpt lat="48.14406" lon="6.42805">
        <ele>466.86</ele>
        <time>2012-04-09T08:11:52Z</time>
      </trkpt>
      <trkpt lat="48.14403" lon="6.42806">
        <ele>463.01</ele>
        <time>2012-04-09T08:12:08Z</time>
      </trkpt>
      <trkpt lat="48.144" lon="6.42808">
        <ele>460.13</ele>
        <time>2012-04-09T08:12:25Z</time>
      </trkpt>
      <trkpt lat="48.14399" lon="6.42809">
        <ele>457.24</ele>
        <time>2012-04-09T08:12:48Z</time>
      </trkpt>
      <trkpt lat="48.14398" lon="6.42811">
        <ele>455.32</ele>
        <time>2012-04-09T08:13:11Z</time>
      </trkpt>
      <trkpt lat="48.14397" lon="6.42812">
        <ele>453.88</ele>
        <time>2012-04-09T08:13:39Z</time>
      </trkpt>
      <trkpt lat="48.14396" lon="6.42811">
        <ele>453.4</ele>
        <time>2012-04-09T08:14:04Z</time>
      </trkpt>
      <trkpt lat="48.14396" lon="6.4281">
        <ele>452.44</ele>
        <time>2012-04-09T08:14:28Z</time>
      </trkpt>
      <trkpt lat="48.14396" lon="6.4281">
        <ele>451.96</ele>
        <time>2012-04-09T08:14:52Z</time>
      </trkpt>
      <trkpt lat="48.14396" lon="6.4281">
        <ele>451.48</ele>
        <time>2012-04-09T08:14:59Z</time>
      </trkpt>
      <trkpt lat="48.14385" lon="6.42784">
        <ele>455.8</ele>
        <time>2012-04-09T08:15:12Z</time>
      </trkpt>
      <trkpt lat="48.14369" lon="6.4275">
        <ele>463.49</ele>
        <time>2012-04-09T08:15:26Z</time>
      </trkpt>
      <trkpt lat="48.14358" lon="6.42728">
        <ele>469.74</ele>
        <time>2012-04-09T08:15:37Z</time>
      </trkpt>
      <trkpt lat="48.14344" lon="6.42703">
        <ele>475.03</ele>
        <time>2012-04-09T08:15:48Z</time>
      </trkpt>
      <trkpt lat="48.14339" lon="6.42691">
        <ele>475.99</ele>
        <time>2012-04-09T08:15:53Z</time>
      </trkpt>
      <trkpt lat="48.14329" lon="6.42659">
        <ele>484.16</ele>
        <time>2012-04-09T08:16:08Z</time>
      </trkpt>
      <trkpt lat="48.14324" lon="6.4263">
        <ele>487.05</ele>
        <time>2012-04-09T08:16:20Z</time>
      </trkpt>
      <trkpt lat="48.14325" lon="6.42592">
        <ele>488.01</ele>
        <time>2012-04-09T08:16:32Z</time>
      </trkpt>
      <trkpt lat="48.14317" lon="6.4255">
        <ele>488.97</ele>
        <time>2012-04-09T08:16:46Z</time>
      </trkpt>
      <trkpt lat="48.14304" lon="6.4251">
        <ele>493.77</ele>
        <time>2012-04-09T08:16:58Z</time>
      </trkpt>
      <trkpt lat="48.14287" lon="6.42447">
        <ele>495.22</ele>
        <time>2012-04-09T08:17:09Z</time>
      </trkpt>
      <trkpt lat="48.14281" lon="6.42429">
        <ele>494.74</ele>
        <time>2012-04-09T08:17:12Z</time>
      </trkpt>
      <trkpt lat="48.14278" lon="6.42416">
        <ele>494.26</ele>
        <time>2012-04-09T08:17:14Z</time>
      </trkpt>
      <trkpt lat="48.14276" lon="6.4241">
        <ele>494.26</ele>
        <time>2012-04-09T08:17:15Z</time>
      </trkpt>
      <trkpt lat="48.14264" lon="6.42368">
        <ele>493.77</ele>
        <time>2012-04-09T08:17:21Z</time>
      </trkpt>
      <trkpt lat="48.14262" lon="6.42361">
        <ele>493.77</ele>
        <time>2012-04-09T08:17:22Z</time>
      </trkpt>
      <trkpt lat="48.1426" lon="6.42354">
        <ele>493.77</ele>
        <time>2012-04-09T08:17:23Z</time>
      </trkpt>
      <trkpt lat="48.14238" lon="6.42288">
        <ele>494.26</ele>
        <time>2012-04-09T08:17:36Z</time>
      </trkpt>
      <trkpt lat="48.14222" lon="6.42238">
        <ele>498.1</ele>
        <time>2012-04-09T08:17:47Z</time>
      </trkpt>
      <trkpt lat="48.14204" lon="6.42175">
        <ele>500.02</ele>
        <time>2012-04-09T08:17:59Z</time>
      </trkpt>
      <trkpt lat="48.14182" lon="6.42101">
        <ele>500.5</ele>
        <time>2012-04-09T08:18:12Z</time>
      </trkpt>
      <trkpt lat="48.14162" lon="6.42039">
        <ele>501.95</ele>
        <time>2012-04-09T08:18:23Z</time>
      </trkpt>
      <trkpt lat="48.14137" lon="6.41959">
        <ele>502.91</ele>
        <time>2012-04-09T08:18:36Z</time>
      </trkpt>
      <trkpt lat="48.14116" lon="6.4189">
        <ele>504.35</ele>
        <time>2012-04-09T08:18:49Z</time>
      </trkpt>
      <trkpt lat="48.14103" lon="6.41848">
        <ele>504.35</ele>
        <time>2012-04-09T08:18:58Z</time>
      </trkpt>
      <trkpt lat="48.14102" lon="6.4184">
        <ele>503.87</ele>
        <time>2012-04-09T08:18:59Z</time>
      </trkpt>
      <trkpt lat="48.14101" lon="6.4183">
        <ele>502.91</ele>
        <time>2012-04-09T08:19:00Z</time>
      </trkpt>
      <trkpt lat="48.14099" lon="6.41805">
        <ele>500.98</ele>
        <time>2012-04-09T08:19:02Z</time>
      </trkpt>
      <trkpt lat="48.14093" lon="6.41774">
        <ele>497.62</ele>
        <time>2012-04-09T08:19:04Z</time>
      </trkpt>
      <trkpt lat="48.14089" lon="6.41761">
        <ele>496.18</ele>
        <time>2012-04-09T08:19:05Z</time>
      </trkpt>
      <trkpt lat="48.14083" lon="6.41749">
        <ele>495.22</ele>
        <time>2012-04-09T08:19:06Z</time>
      </trkpt>
      <trkpt lat="48.1408" lon="6.41733">
        <ele>493.29</ele>
        <time>2012-04-09T08:19:07Z</time>
      </trkpt>
      <trkpt lat="48.14074" lon="6.4172">
        <ele>491.37</ele>
        <time>2012-04-09T08:19:08Z</time>
      </trkpt>
      <trkpt lat="48.14068" lon="6.4171">
        <ele>489.93</ele>
        <time>2012-04-09T08:19:09Z</time>
      </trkpt>
      <trkpt lat="48.14065" lon="6.41702">
        <ele>488.97</ele>
        <time>2012-04-09T08:19:10Z</time>
      </trkpt>
      <trkpt lat="48.14064" lon="6.41695">
        <ele>487.05</ele>
        <time>2012-04-09T08:19:11Z</time>
      </trkpt>
      <trkpt lat="48.14063" lon="6.41689">
        <ele>486.08</ele>
        <time>2012-04-09T08:19:12Z</time>
      </trkpt>
      <trkpt lat="48.14061" lon="6.41685">
        <ele>484.64</ele>
        <time>2012-04-09T08:19:13Z</time>
      </trkpt>
      <trkpt lat="48.1406" lon="6.41681">
        <ele>483.68</ele>
        <time>2012-04-09T08:19:14Z</time>
      </trkpt>
      <trkpt lat="48.14059" lon="6.41675">
        <ele>482.24</ele>
        <time>2012-04-09T08:19:16Z</time>
      </trkpt>
      <trkpt lat="48.14058" lon="6.41672">
        <ele>481.76</ele>
        <time>2012-04-09T08:19:17Z</time>
      </trkpt>
      <trkpt lat="48.14058" lon="6.4167">
        <ele>481.76</ele>
        <time>2012-04-09T08:19:18Z</time>
      </trkpt>
      <trkpt lat="48.14057" lon="6.41668">
        <ele>481.76</ele>
        <time>2012-04-09T08:19:19Z</time>
      </trkpt>
      <trkpt lat="48.14056" lon="6.41667">
        <ele>481.76</ele>
        <time>2012-04-09T08:19:20Z</time>
      </trkpt>
      <trkpt lat="48.14055" lon="6.41665">
        <ele>481.28</ele>
        <time>2012-04-09T08:19:21Z</time>
      </trkpt>
      <trkpt lat="48.14054" lon="6.41665">
        <ele>481.76</ele>
        <time>2012-04-09T08:19:22Z</time>
      </trkpt>
      <trkpt lat="48.14052" lon="6.41665">
        <ele>481.76</ele>
        <time>2012-04-09T08:19:23Z</time>
      </trkpt>
      <trkpt lat="48.1405" lon="6.41667">
        <ele>481.76</ele>
        <time>2012-04-09T08:19:24Z</time>
      </trkpt>
      <trkpt lat="48.14011" lon="6.41693">
        <ele>486.56</ele>
        <time>2012-04-09T08:19:36Z</time>
      </trkpt>
      <trkpt lat="48.14007" lon="6.41695">
        <ele>487.05</ele>
        <time>2012-04-09T08:19:37Z</time>
      </trkpt>
      <trkpt lat="48.14003" lon="6.41698">
        <ele>487.53</ele>
        <time>2012-04-09T08:19:38Z</time>
      </trkpt>
      <trkpt lat="48.13999" lon="6.41701">
        <ele>487.53</ele>
        <time>2012-04-09T08:19:39Z</time>
      </trkpt>
      <trkpt lat="48.13976" lon="6.4173">
        <ele>490.41</ele>
        <time>2012-04-09T08:19:45Z</time>
      </trkpt>
      <trkpt lat="48.13973" lon="6.41736">
        <ele>490.41</ele>
        <time>2012-04-09T08:19:46Z</time>
      </trkpt>
      <trkpt lat="48.13969" lon="6.41744">
        <ele>490.89</ele>
        <time>2012-04-09T08:19:47Z</time>
      </trkpt>
      <trkpt lat="48.13948" lon="6.41777">
        <ele>491.37</ele>
        <time>2012-04-09T08:19:51Z</time>
      </trkpt>
      <trkpt lat="48.13944" lon="6.41786">
        <ele>491.85</ele>
        <time>2012-04-09T08:19:52Z</time>
      </trkpt>
      <trkpt lat="48.13941" lon="6.41795">
        <ele>492.33</ele>
        <time>2012-04-09T08:19:53Z</time>
      </trkpt>
      <trkpt lat="48.13938" lon="6.41805">
        <ele>492.81</ele>
        <time>2012-04-09T08:19:54Z</time>
      </trkpt>
      <trkpt lat="48.13937" lon="6.41815">
        <ele>493.29</ele>
        <time>2012-04-09T08:19:55Z</time>
      </trkpt>
      <trkpt lat="48.13935" lon="6.41825">
        <ele>493.77</ele>
        <time>2012-04-09T08:19:56Z</time>
      </trkpt>
      <trkpt lat="48.13933" lon="6.41857">
        <ele>494.74</ele>
        <time>2012-04-09T08:19:59Z</time>
      </trkpt>
      <trkpt lat="48.13934" lon="6.4187">
        <ele>495.22</ele>
        <time>2012-04-09T08:20:00Z</time>
      </trkpt>
      <trkpt lat="48.13937" lon="6.41905">
        <ele>495.7</ele>
        <time>2012-04-09T08:20:03Z</time>
      </trkpt>
      <trkpt lat="48.13938" lon="6.41916">
        <ele>495.7</ele>
        <time>2012-04-09T08:20:04Z</time>
      </trkpt>
      <trkpt lat="48.13939" lon="6.41927">
        <ele>496.18</ele>
        <time>2012-04-09T08:20:05Z</time>
      </trkpt>
      <trkpt lat="48.13941" lon="6.41938">
        <ele>495.7</ele>
        <time>2012-04-09T08:20:06Z</time>
      </trkpt>
      <trkpt lat="48.13943" lon="6.41949">
        <ele>495.7</ele>
        <time>2012-04-09T08:20:07Z</time>
      </trkpt>
      <trkpt lat="48.13944" lon="6.4196">
        <ele>495.7</ele>
        <time>2012-04-09T08:20:08Z</time>
      </trkpt>
      <trkpt lat="48.13949" lon="6.41991">
        <ele>495.22</ele>
        <time>2012-04-09T08:20:11Z</time>
      </trkpt>
      <trkpt lat="48.13951" lon="6.42003">
        <ele>494.74</ele>
        <time>2012-04-09T08:20:12Z</time>
      </trkpt>
      <trkpt lat="48.13953" lon="6.42013">
        <ele>494.26</ele>
        <time>2012-04-09T08:20:13Z</time>
      </trkpt>
      <trkpt lat="48.13972" lon="6.42085">
        <ele>491.37</ele>
        <time>2012-04-09T08:20:19Z</time>
      </trkpt>
      <trkpt lat="48.1401" lon="6.42232">
        <ele>477.91</ele>
        <time>2012-04-09T08:20:29Z</time>
      </trkpt>
      <trkpt lat="48.14023" lon="6.42276">
        <ele>473.11</ele>
        <time>2012-04-09T08:20:32Z</time>
      </trkpt>
      <trkpt lat="48.14029" lon="6.42288">
        <ele>471.66</ele>
        <time>2012-04-09T08:20:33Z</time>
      </trkpt>
      <trkpt lat="48.14042" lon="6.42311">
        <ele>468.78</ele>
        <time>2012-04-09T08:20:35Z</time>
      </trkpt>
      <trkpt lat="48.14048" lon="6.42324">
        <ele>465.42</ele>
        <time>2012-04-09T08:20:36Z</time>
      </trkpt>
      <trkpt lat="48.14054" lon="6.42335">
        <ele>463.49</ele>
        <time>2012-04-09T08:20:37Z</time>
      </trkpt>
      <trkpt lat="48.14068" lon="6.42354">
        <ele>461.09</ele>
        <time>2012-04-09T08:20:39Z</time>
      </trkpt>
      <trkpt lat="48.14073" lon="6.42363">
        <ele>460.13</ele>
        <time>2012-04-09T08:20:40Z</time>
      </trkpt>
      <trkpt lat="48.14076" lon="6.42375">
        <ele>458.21</ele>
        <time>2012-04-09T08:20:41Z</time>
      </trkpt>
      <trkpt lat="48.14078" lon="6.42387">
        <ele>456.76</ele>
        <time>2012-04-09T08:20:42Z</time>
      </trkpt>
      <trkpt lat="48.1408" lon="6.42399">
        <ele>455.8</ele>
        <time>2012-04-09T08:20:43Z</time>
      </trkpt>
      <trkpt lat="48.14085" lon="6.42461">
        <ele>447.15</ele>
        <time>2012-04-09T08:20:51Z</time>
      </trkpt>
      <trkpt lat="48.14087" lon="6.42466">
        <ele>446.19</ele>
        <time>2012-04-09T08:20:52Z</time>
      </trkpt>
      <trkpt lat="48.14089" lon="6.4247">
        <ele>445.23</ele>
        <time>2012-04-09T08:20:53Z</time>
      </trkpt>
      <trkpt lat="48.14091" lon="6.42476">
        <ele>444.27</ele>
        <time>2012-04-09T08:20:54Z</time>
      </trkpt>
      <trkpt lat="48.14092" lon="6.42483">
        <ele>443.31</ele>
        <time>2012-04-09T08:20:55Z</time>
      </trkpt>
      <trkpt lat="48.14094" lon="6.4249">
        <ele>442.34</ele>
        <time>2012-04-09T08:20:56Z</time>
      </trkpt>
      <trkpt lat="48.14096" lon="6.42498">
        <ele>441.38</ele>
        <time>2012-04-09T08:20:57Z</time>
      </trkpt>
      <trkpt lat="48.14098" lon="6.42505">
        <ele>440.9</ele>
        <time>2012-04-09T08:20:58Z</time>
      </trkpt>
      <trkpt lat="48.141" lon="6.42513">
        <ele>440.42</ele>
        <time>2012-04-09T08:20:59Z</time>
      </trkpt>
      <trkpt lat="48.14104" lon="6.4253">
        <ele>438.98</ele>
        <time>2012-04-09T08:21:01Z</time>
      </trkpt>
      <trkpt lat="48.14112" lon="6.42562">
        <ele>436.58</ele>
        <time>2012-04-09T08:21:05Z</time>
      </trkpt>
      <trkpt lat="48.14114" lon="6.42571">
        <ele>436.1</ele>
        <time>2012-04-09T08:21:06Z</time>
      </trkpt>
      <trkpt lat="48.14127" lon="6.42626">
        <ele>433.21</ele>
        <time>2012-04-09T08:21:12Z</time>
      </trkpt>
      <trkpt lat="48.14129" lon="6.42637">
        <ele>432.25</ele>
        <time>2012-04-09T08:21:13Z</time>
      </trkpt>
      <trkpt lat="48.14136" lon="6.4267">
        <ele>429.85</ele>
        <time>2012-04-09T08:21:16Z</time>
      </trkpt>
      <trkpt lat="48.14148" lon="6.42704">
        <ele>427.44</ele>
        <time>2012-04-09T08:21:19Z</time>
      </trkpt>
      <trkpt lat="48.14166" lon="6.42747">
        <ele>424.56</ele>
        <time>2012-04-09T08:21:25Z</time>
      </trkpt>
      <trkpt lat="48.14164" lon="6.42752">
        <ele>423.6</ele>
        <time>2012-04-09T08:21:26Z</time>
      </trkpt>
      <trkpt lat="48.14159" lon="6.42755">
        <ele>423.12</ele>
        <time>2012-04-09T08:21:27Z</time>
      </trkpt>
      <trkpt lat="48.14155" lon="6.42757">
        <ele>422.16</ele>
        <time>2012-04-09T08:21:28Z</time>
      </trkpt>
      <trkpt lat="48.14149" lon="6.42756">
        <ele>421.19</ele>
        <time>2012-04-09T08:21:29Z</time>
      </trkpt>
      <trkpt lat="48.14115" lon="6.42738">
        <ele>418.31</ele>
        <time>2012-04-09T08:21:36Z</time>
      </trkpt>
      <trkpt lat="48.1411" lon="6.42736">
        <ele>418.31</ele>
        <time>2012-04-09T08:21:37Z</time>
      </trkpt>
      <trkpt lat="48.14074" lon="6.42729">
        <ele>419.75</ele>
        <time>2012-04-09T08:21:47Z</time>
      </trkpt>
      <trkpt lat="48.14046" lon="6.4271">
        <ele>427.44</ele>
        <time>2012-04-09T08:21:58Z</time>
      </trkpt>
      <trkpt lat="48.14015" lon="6.42689">
        <ele>434.65</ele>
        <time>2012-04-09T08:22:09Z</time>
      </trkpt>
      <trkpt lat="48.13986" lon="6.42655">
        <ele>441.86</ele>
        <time>2012-04-09T08:22:22Z</time>
      </trkpt>
      <trkpt lat="48.13961" lon="6.42627">
        <ele>447.63</ele>
        <time>2012-04-09T08:22:31Z</time>
      </trkpt>
      <trkpt lat="48.13928" lon="6.42585">
        <ele>450.52</ele>
        <time>2012-04-09T08:22:43Z</time>
      </trkpt>
      <trkpt lat="48.13918" lon="6.42575">
        <ele>451.96</ele>
        <time>2012-04-09T08:22:47Z</time>
      </trkpt>
      <trkpt lat="48.13916" lon="6.42574">
        <ele>452.44</ele>
        <time>2012-04-09T08:22:48Z</time>
      </trkpt>
      <trkpt lat="48.13914" lon="6.42571">
        <ele>452.44</ele>
        <time>2012-04-09T08:22:49Z</time>
      </trkpt>
      <trkpt lat="48.13912" lon="6.42571">
        <ele>452.92</ele>
        <time>2012-04-09T08:22:50Z</time>
      </trkpt>
      <trkpt lat="48.1391" lon="6.42571">
        <ele>453.4</ele>
        <time>2012-04-09T08:22:51Z</time>
      </trkpt>
      <trkpt lat="48.13907" lon="6.42572">
        <ele>453.4</ele>
        <time>2012-04-09T08:22:52Z</time>
      </trkpt>
      <trkpt lat="48.13905" lon="6.42572">
        <ele>453.88</ele>
        <time>2012-04-09T08:22:53Z</time>
      </trkpt>
      <trkpt lat="48.13904" lon="6.42573">
        <ele>453.88</ele>
        <time>2012-04-09T08:22:54Z</time>
      </trkpt>
      <trkpt lat="48.13902" lon="6.42574">
        <ele>454.36</ele>
        <time>2012-04-09T08:22:55Z</time>
      </trkpt>
      <trkpt lat="48.13878" lon="6.42582">
        <ele>442.82</ele>
        <time>2012-04-09T08:23:05Z</time>
      </trkpt>
      <trkpt lat="48.13861" lon="6.42591">
        <ele>438.02</ele>
        <time>2012-04-09T08:23:15Z</time>
      </trkpt>
      <trkpt lat="48.13836" lon="6.42606">
        <ele>443.31</ele>
        <time>2012-04-09T08:23:30Z</time>
      </trkpt>
      <trkpt lat="48.1383" lon="6.42611">
        <ele>445.71</ele>
        <time>2012-04-09T08:23:34Z</time>
      </trkpt>
      <trkpt lat="48.13813" lon="6.42629">
        <ele>455.8</ele>
        <time>2012-04-09T08:23:47Z</time>
      </trkpt>
      <trkpt lat="48.13794" lon="6.42644">
        <ele>466.86</ele>
        <time>2012-04-09T08:24:00Z</time>
      </trkpt>
      <trkpt lat="48.13774" lon="6.42645">
        <ele>475.03</ele>
        <time>2012-04-09T08:24:12Z</time>
      </trkpt>
      <trkpt lat="48.13756" lon="6.42645">
        <ele>485.12</ele>
        <time>2012-04-09T08:24:26Z</time>
      </trkpt>
      <trkpt lat="48.13749" lon="6.42645">
        <ele>488.49</ele>
        <time>2012-04-09T08:24:31Z</time>
      </trkpt>
      <trkpt lat="48.13743" lon="6.4265">
        <ele>490.89</ele>
        <time>2012-04-09T08:24:37Z</time>
      </trkpt>
      <trkpt lat="48.13739" lon="6.42652">
        <ele>492.81</ele>
        <time>2012-04-09T08:24:40Z</time>
      </trkpt>
      <trkpt lat="48.13736" lon="6.42653">
        <ele>493.77</ele>
        <time>2012-04-09T08:24:42Z</time>
      </trkpt>
      <trkpt lat="48.13714" lon="6.42654">
        <ele>505.79</ele>
        <time>2012-04-09T08:24:59Z</time>
      </trkpt>
      <trkpt lat="48.13702" lon="6.42655">
        <ele>514.44</ele>
        <time>2012-04-09T08:25:13Z</time>
      </trkpt>
      <trkpt lat="48.13701" lon="6.42656">
        <ele>515.4</ele>
        <time>2012-04-09T08:25:15Z</time>
      </trkpt>
      <trkpt lat="48.137" lon="6.4266">
        <ele>517.33</ele>
        <time>2012-04-09T08:25:18Z</time>
      </trkpt>
      <trkpt lat="48.13686" lon="6.42665">
        <ele>516.85</ele>
        <time>2012-04-09T08:25:28Z</time>
      </trkpt>
      <trkpt lat="48.1368" lon="6.42678">
        <ele>510.6</ele>
        <time>2012-04-09T08:25:40Z</time>
      </trkpt>
      <trkpt lat="48.13685" lon="6.42696">
        <ele>508.19</ele>
        <time>2012-04-09T08:25:52Z</time>
      </trkpt>
      <trkpt lat="48.13688" lon="6.42701">
        <ele>507.71</ele>
        <time>2012-04-09T08:25:55Z</time>
      </trkpt>
      <trkpt lat="48.13697" lon="6.42719">
        <ele>506.75</ele>
        <time>2012-04-09T08:26:07Z</time>
      </trkpt>
      <trkpt lat="48.137" lon="6.4272">
        <ele>505.79</ele>
        <time>2012-04-09T08:26:20Z</time>
      </trkpt>
      <trkpt lat="48.13701" lon="6.42723">
        <ele>504.83</ele>
        <time>2012-04-09T08:26:34Z</time>
      </trkpt>
      <trkpt lat="48.13703" lon="6.4273">
        <ele>503.87</ele>
        <time>2012-04-09T08:26:49Z</time>
      </trkpt>
      <trkpt lat="48.13706" lon="6.42733">
        <ele>502.43</ele>
        <time>2012-04-09T08:27:02Z</time>
      </trkpt>
      <trkpt lat="48.13708" lon="6.42733">
        <ele>500.98</ele>
        <time>2012-04-09T08:27:30Z</time>
      </trkpt>
      <trkpt lat="48.1371" lon="6.42737">
        <ele>499.06</ele>
        <time>2012-04-09T08:27:48Z</time>
      </trkpt>
      <trkpt lat="48.1373" lon="6.42767">
        <ele>500.5</ele>
        <time>2012-04-09T08:28:02Z</time>
      </trkpt>
      <trkpt lat="48.13748" lon="6.42791">
        <ele>499.06</ele>
        <time>2012-04-09T08:28:15Z</time>
      </trkpt>
      <trkpt lat="48.13768" lon="6.42817">
        <ele>492.81</ele>
        <time>2012-04-09T08:28:28Z</time>
      </trkpt>
      <trkpt lat="48.13785" lon="6.42835">
        <ele>488.01</ele>
        <time>2012-04-09T08:28:39Z</time>
      </trkpt>
      <trkpt lat="48.13794" lon="6.42842">
        <ele>485.12</ele>
        <time>2012-04-09T08:28:51Z</time>
      </trkpt>
      <trkpt lat="48.13794" lon="6.42843">
        <ele>484.16</ele>
        <time>2012-04-09T08:29:01Z</time>
      </trkpt>
      <trkpt lat="48.13784" lon="6.42854">
        <ele>484.64</ele>
        <time>2012-04-09T08:29:13Z</time>
      </trkpt>
      <trkpt lat="48.13766" lon="6.4286">
        <ele>490.41</ele>
        <time>2012-04-09T08:29:26Z</time>
      </trkpt>
      <trkpt lat="48.13742" lon="6.42861">
        <ele>497.14</ele>
        <time>2012-04-09T08:29:40Z</time>
      </trkpt>
      <trkpt lat="48.13718" lon="6.42864">
        <ele>500.98</ele>
        <time>2012-04-09T08:29:54Z</time>
      </trkpt>
      <trkpt lat="48.13698" lon="6.42871">
        <ele>502.43</ele>
        <time>2012-04-09T08:30:07Z</time>
      </trkpt>
      <trkpt lat="48.13681" lon="6.42874">
        <ele>502.43</ele>
        <time>2012-04-09T08:30:17Z</time>
      </trkpt>
      <trkpt lat="48.13676" lon="6.42885">
        <ele>502.43</ele>
        <time>2012-04-09T08:30:24Z</time>
      </trkpt>
      <trkpt lat="48.13687" lon="6.42929">
        <ele>501.95</ele>
        <time>2012-04-09T08:30:35Z</time>
      </trkpt>
      <trkpt lat="48.13697" lon="6.42962">
        <ele>501.95</ele>
        <time>2012-04-09T08:30:43Z</time>
      </trkpt>
      <trkpt lat="48.13707" lon="6.43033">
        <ele>502.91</ele>
        <time>2012-04-09T08:30:56Z</time>
      </trkpt>
      <trkpt lat="48.13708" lon="6.43041">
        <ele>502.91</ele>
        <time>2012-04-09T08:30:57Z</time>
      </trkpt>
      <trkpt lat="48.13715" lon="6.43089">
        <ele>503.39</ele>
        <time>2012-04-09T08:31:03Z</time>
      </trkpt>
      <trkpt lat="48.13716" lon="6.43097">
        <ele>503.39</ele>
        <time>2012-04-09T08:31:04Z</time>
      </trkpt>
      <trkpt lat="48.13721" lon="6.43127">
        <ele>504.35</ele>
        <time>2012-04-09T08:31:08Z</time>
      </trkpt>
      <trkpt lat="48.13722" lon="6.43134">
        <ele>504.83</ele>
        <time>2012-04-09T08:31:09Z</time>
      </trkpt>
      <trkpt lat="48.13742" lon="6.43191">
        <ele>507.23</ele>
        <time>2012-04-09T08:31:20Z</time>
      </trkpt>
      <trkpt lat="48.13773" lon="6.43231">
        <ele>515.4</ele>
        <time>2012-04-09T08:31:33Z</time>
      </trkpt>
      <trkpt lat="48.13785" lon="6.4325">
        <ele>513.48</ele>
        <time>2012-04-09T08:31:39Z</time>
      </trkpt>
      <trkpt lat="48.13785" lon="6.43255">
        <ele>513.96</ele>
        <time>2012-04-09T08:31:41Z</time>
      </trkpt>
      <trkpt lat="48.13788" lon="6.43275">
        <ele>515.88</ele>
        <time>2012-04-09T08:31:46Z</time>
      </trkpt>
      <trkpt lat="48.13802" lon="6.43307">
        <ele>516.85</ele>
        <time>2012-04-09T08:31:52Z</time>
      </trkpt>
      <trkpt lat="48.13811" lon="6.43333">
        <ele>518.29</ele>
        <time>2012-04-09T08:31:56Z</time>
      </trkpt>
      <trkpt lat="48.13812" lon="6.43341">
        <ele>518.77</ele>
        <time>2012-04-09T08:31:57Z</time>
      </trkpt>
      <trkpt lat="48.13813" lon="6.43349">
        <ele>519.25</ele>
        <time>2012-04-09T08:31:58Z</time>
      </trkpt>
      <trkpt lat="48.13814" lon="6.43359">
        <ele>519.25</ele>
        <time>2012-04-09T08:31:59Z</time>
      </trkpt>
      <trkpt lat="48.13816" lon="6.43371">
        <ele>519.25</ele>
        <time>2012-04-09T08:32:00Z</time>
      </trkpt>
      <trkpt lat="48.13822" lon="6.43406">
        <ele>517.81</ele>
        <time>2012-04-09T08:32:03Z</time>
      </trkpt>
      <trkpt lat="48.13825" lon="6.43452">
        <ele>515.88</ele>
        <time>2012-04-09T08:32:07Z</time>
      </trkpt>
      <trkpt lat="48.13825" lon="6.43527">
        <ele>510.12</ele>
        <time>2012-04-09T08:32:13Z</time>
      </trkpt>
      <trkpt lat="48.13826" lon="6.4354">
        <ele>508.67</ele>
        <time>2012-04-09T08:32:14Z</time>
      </trkpt>
      <trkpt lat="48.13827" lon="6.43552">
        <ele>507.71</ele>
        <time>2012-04-09T08:32:15Z</time>
      </trkpt>
      <trkpt lat="48.1383" lon="6.43572">
        <ele>505.79</ele>
        <time>2012-04-09T08:32:17Z</time>
      </trkpt>
      <trkpt lat="48.1383" lon="6.4358">
        <ele>505.31</ele>
        <time>2012-04-09T08:32:18Z</time>
      </trkpt>
      <trkpt lat="48.13827" lon="6.43586">
        <ele>504.83</ele>
        <time>2012-04-09T08:32:19Z</time>
      </trkpt>
      <trkpt lat="48.13823" lon="6.43592">
        <ele>504.35</ele>
        <time>2012-04-09T08:32:20Z</time>
      </trkpt>
      <trkpt lat="48.13818" lon="6.43598">
        <ele>503.39</ele>
        <time>2012-04-09T08:32:21Z</time>
      </trkpt>
      <trkpt lat="48.13814" lon="6.43602">
        <ele>501.95</ele>
        <time>2012-04-09T08:32:22Z</time>
      </trkpt>
      <trkpt lat="48.13811" lon="6.43606">
        <ele>500.5</ele>
        <time>2012-04-09T08:32:23Z</time>
      </trkpt>
      <trkpt lat="48.13808" lon="6.43612">
        <ele>499.06</ele>
        <time>2012-04-09T08:32:24Z</time>
      </trkpt>
      <trkpt lat="48.138" lon="6.43625">
        <ele>495.7</ele>
        <time>2012-04-09T08:32:26Z</time>
      </trkpt>
      <trkpt lat="48.13796" lon="6.43632">
        <ele>494.74</ele>
        <time>2012-04-09T08:32:27Z</time>
      </trkpt>
      <trkpt lat="48.13792" lon="6.43638">
        <ele>494.26</ele>
        <time>2012-04-09T08:32:28Z</time>
      </trkpt>
      <trkpt lat="48.13788" lon="6.43645">
        <ele>493.77</ele>
        <time>2012-04-09T08:32:29Z</time>
      </trkpt>
      <trkpt lat="48.13784" lon="6.43653">
        <ele>493.29</ele>
        <time>2012-04-09T08:32:30Z</time>
      </trkpt>
      <trkpt lat="48.1378" lon="6.43662">
        <ele>493.29</ele>
        <time>2012-04-09T08:32:31Z</time>
      </trkpt>
      <trkpt lat="48.13778" lon="6.43672">
        <ele>492.81</ele>
        <time>2012-04-09T08:32:32Z</time>
      </trkpt>
      <trkpt lat="48.13774" lon="6.43683">
        <ele>492.33</ele>
        <time>2012-04-09T08:32:33Z</time>
      </trkpt>
      <trkpt lat="48.13767" lon="6.43704">
        <ele>490.89</ele>
        <time>2012-04-09T08:32:35Z</time>
      </trkpt>
      <trkpt lat="48.13765" lon="6.43716">
        <ele>490.41</ele>
        <time>2012-04-09T08:32:36Z</time>
      </trkpt>
      <trkpt lat="48.1376" lon="6.43796">
        <ele>485.12</ele>
        <time>2012-04-09T08:32:43Z</time>
      </trkpt>
      <trkpt lat="48.13761" lon="6.43808">
        <ele>484.64</ele>
        <time>2012-04-09T08:32:44Z</time>
      </trkpt>
      <trkpt lat="48.13774" lon="6.43905">
        <ele>473.11</ele>
        <time>2012-04-09T08:32:52Z</time>
      </trkpt>
      <trkpt lat="48.13774" lon="6.43916">
        <ele>472.63</ele>
        <time>2012-04-09T08:32:53Z</time>
      </trkpt>
      <trkpt lat="48.13773" lon="6.43927">
        <ele>471.66</ele>
        <time>2012-04-09T08:32:54Z</time>
      </trkpt>
      <trkpt lat="48.13771" lon="6.43938">
        <ele>471.18</ele>
        <time>2012-04-09T08:32:55Z</time>
      </trkpt>
      <trkpt lat="48.13768" lon="6.43949">
        <ele>471.18</ele>
        <time>2012-04-09T08:32:56Z</time>
      </trkpt>
      <trkpt lat="48.13765" lon="6.43959">
        <ele>471.18</ele>
        <time>2012-04-09T08:32:57Z</time>
      </trkpt>
      <trkpt lat="48.13763" lon="6.43969">
        <ele>470.7</ele>
        <time>2012-04-09T08:32:58Z</time>
      </trkpt>
      <trkpt lat="48.13763" lon="6.43978">
        <ele>470.7</ele>
        <time>2012-04-09T08:32:59Z</time>
      </trkpt>
      <trkpt lat="48.13762" lon="6.43987">
        <ele>470.7</ele>
        <time>2012-04-09T08:33:00Z</time>
      </trkpt>
      <trkpt lat="48.13762" lon="6.43994">
        <ele>470.7</ele>
        <time>2012-04-09T08:33:01Z</time>
      </trkpt>
      <trkpt lat="48.13761" lon="6.44002">
        <ele>470.22</ele>
        <time>2012-04-09T08:33:02Z</time>
      </trkpt>
      <trkpt lat="48.13761" lon="6.44016">
        <ele>470.22</ele>
        <time>2012-04-09T08:33:04Z</time>
      </trkpt>
      <trkpt lat="48.1376" lon="6.44024">
        <ele>470.22</ele>
        <time>2012-04-09T08:33:05Z</time>
      </trkpt>
      <trkpt lat="48.13755" lon="6.44061">
        <ele>470.7</ele>
        <time>2012-04-09T08:33:11Z</time>
      </trkpt>
      <trkpt lat="48.13753" lon="6.44075">
        <ele>471.18</ele>
        <time>2012-04-09T08:33:13Z</time>
      </trkpt>
      <trkpt lat="48.13752" lon="6.44084">
        <ele>471.18</ele>
        <time>2012-04-09T08:33:14Z</time>
      </trkpt>
      <trkpt lat="48.13753" lon="6.44093">
        <ele>471.66</ele>
        <time>2012-04-09T08:33:15Z</time>
      </trkpt>
      <trkpt lat="48.13754" lon="6.44102">
        <ele>471.66</ele>
        <time>2012-04-09T08:33:16Z</time>
      </trkpt>
      <trkpt lat="48.13755" lon="6.44111">
        <ele>471.66</ele>
        <time>2012-04-09T08:33:17Z</time>
      </trkpt>
      <trkpt lat="48.13757" lon="6.4412">
        <ele>471.66</ele>
        <time>2012-04-09T08:33:18Z</time>
      </trkpt>
      <trkpt lat="48.13759" lon="6.44129">
        <ele>471.18</ele>
        <time>2012-04-09T08:33:19Z</time>
      </trkpt>
      <trkpt lat="48.13767" lon="6.44163">
        <ele>470.7</ele>
        <time>2012-04-09T08:33:23Z</time>
      </trkpt>
      <trkpt lat="48.13783" lon="6.44214">
        <ele>472.14</ele>
        <time>2012-04-09T08:33:30Z</time>
      </trkpt>
      <trkpt lat="48.13786" lon="6.44222">
        <ele>472.14</ele>
        <time>2012-04-09T08:33:31Z</time>
      </trkpt>
      <trkpt lat="48.1379" lon="6.44229">
        <ele>471.66</ele>
        <time>2012-04-09T08:33:32Z</time>
      </trkpt>
      <trkpt lat="48.13794" lon="6.44236">
        <ele>471.18</ele>
        <time>2012-04-09T08:33:33Z</time>
      </trkpt>
      <trkpt lat="48.13798" lon="6.44244">
        <ele>470.22</ele>
        <time>2012-04-09T08:33:34Z</time>
      </trkpt>
      <trkpt lat="48.13803" lon="6.44252">
        <ele>469.26</ele>
        <time>2012-04-09T08:33:35Z</time>
      </trkpt>
      <trkpt lat="48.13811" lon="6.44267">
        <ele>467.82</ele>
        <time>2012-04-09T08:33:37Z</time>
      </trkpt>
      <trkpt lat="48.13815" lon="6.44274">
        <ele>467.82</ele>
        <time>2012-04-09T08:33:38Z</time>
      </trkpt>
      <trkpt lat="48.13818" lon="6.44281">
        <ele>466.86</ele>
        <time>2012-04-09T08:33:39Z</time>
      </trkpt>
      <trkpt lat="48.1385" lon="6.44326">
        <ele>463.01</ele>
        <time>2012-04-09T08:33:46Z</time>
      </trkpt>
      <trkpt lat="48.13855" lon="6.44332">
        <ele>462.53</ele>
        <time>2012-04-09T08:33:47Z</time>
      </trkpt>
      <trkpt lat="48.1386" lon="6.44339">
        <ele>462.53</ele>
        <time>2012-04-09T08:33:48Z</time>
      </trkpt>
      <trkpt lat="48.13867" lon="6.44342">
        <ele>462.05</ele>
        <time>2012-04-09T08:33:49Z</time>
      </trkpt>
      <trkpt lat="48.13875" lon="6.44345">
        <ele>461.57</ele>
        <time>2012-04-09T08:33:50Z</time>
      </trkpt>
      <trkpt lat="48.13881" lon="6.44345">
        <ele>461.09</ele>
        <time>2012-04-09T08:33:51Z</time>
      </trkpt>
      <trkpt lat="48.13885" lon="6.44343">
        <ele>461.09</ele>
        <time>2012-04-09T08:33:52Z</time>
      </trkpt>
      <trkpt lat="48.13889" lon="6.4434">
        <ele>461.09</ele>
        <time>2012-04-09T08:33:53Z</time>
      </trkpt>
      <trkpt lat="48.13893" lon="6.44335">
        <ele>460.61</ele>
        <time>2012-04-09T08:33:54Z</time>
      </trkpt>
      <trkpt lat="48.13896" lon="6.4433">
        <ele>460.13</ele>
        <time>2012-04-09T08:33:55Z</time>
      </trkpt>
      <trkpt lat="48.13898" lon="6.44327">
        <ele>460.13</ele>
        <time>2012-04-09T08:33:56Z</time>
      </trkpt>
      <trkpt lat="48.13902" lon="6.44325">
        <ele>460.13</ele>
        <time>2012-04-09T08:33:57Z</time>
      </trkpt>
      <trkpt lat="48.13908" lon="6.44323">
        <ele>460.13</ele>
        <time>2012-04-09T08:33:58Z</time>
      </trkpt>
      <trkpt lat="48.13915" lon="6.44324">
        <ele>460.61</ele>
        <time>2012-04-09T08:33:59Z</time>
      </trkpt>
      <trkpt lat="48.13921" lon="6.44325">
        <ele>460.61</ele>
        <time>2012-04-09T08:34:00Z</time>
      </trkpt>
      <trkpt lat="48.13926" lon="6.44327">
        <ele>461.09</ele>
        <time>2012-04-09T08:34:01Z</time>
      </trkpt>
      <trkpt lat="48.13931" lon="6.44331">
        <ele>461.09</ele>
        <time>2012-04-09T08:34:02Z</time>
      </trkpt>
      <trkpt lat="48.13934" lon="6.44334">
        <ele>461.09</ele>
        <time>2012-04-09T08:34:03Z</time>
      </trkpt>
      <trkpt lat="48.13938" lon="6.44338">
        <ele>460.61</ele>
        <time>2012-04-09T08:34:04Z</time>
      </trkpt>
      <trkpt lat="48.13941" lon="6.44343">
        <ele>460.13</ele>
        <time>2012-04-09T08:34:05Z</time>
      </trkpt>
      <trkpt lat="48.13944" lon="6.44348">
        <ele>459.65</ele>
        <time>2012-04-09T08:34:06Z</time>
      </trkpt>
      <trkpt lat="48.13947" lon="6.44354">
        <ele>459.65</ele>
        <time>2012-04-09T08:34:07Z</time>
      </trkpt>
      <trkpt lat="48.13958" lon="6.44373">
        <ele>458.69</ele>
        <time>2012-04-09T08:34:11Z</time>
      </trkpt>
      <trkpt lat="48.13979" lon="6.44417">
        <ele>459.65</ele>
        <time>2012-04-09T08:34:18Z</time>
      </trkpt>
      <trkpt lat="48.13984" lon="6.4443">
        <ele>460.13</ele>
        <time>2012-04-09T08:34:20Z</time>
      </trkpt>
      <trkpt lat="48.14018" lon="6.44497">
        <ele>460.61</ele>
        <time>2012-04-09T08:34:30Z</time>
      </trkpt>
      <trkpt lat="48.14022" lon="6.44503">
        <ele>461.09</ele>
        <time>2012-04-09T08:34:31Z</time>
      </trkpt>
      <trkpt lat="48.14026" lon="6.44508">
        <ele>461.09</ele>
        <time>2012-04-09T08:34:32Z</time>
      </trkpt>
      <trkpt lat="48.1403" lon="6.44513">
        <ele>461.09</ele>
        <time>2012-04-09T08:34:33Z</time>
      </trkpt>
      <trkpt lat="48.14058" lon="6.44553">
        <ele>458.69</ele>
        <time>2012-04-09T08:34:39Z</time>
      </trkpt>
      <trkpt lat="48.14079" lon="6.44584">
        <ele>458.69</ele>
        <time>2012-04-09T08:34:44Z</time>
      </trkpt>
      <trkpt lat="48.14113" lon="6.44636">
        <ele>461.57</ele>
        <time>2012-04-09T08:34:56Z</time>
      </trkpt>
      <trkpt lat="48.14116" lon="6.44645">
        <ele>463.97</ele>
        <time>2012-04-09T08:35:02Z</time>
      </trkpt>
      <trkpt lat="48.14116" lon="6.44647">
        <ele>463.97</ele>
        <time>2012-04-09T08:35:03Z</time>
      </trkpt>
      <trkpt lat="48.14111" lon="6.44655">
        <ele>463.97</ele>
        <time>2012-04-09T08:35:07Z</time>
      </trkpt>
      <trkpt lat="48.14092" lon="6.44683">
        <ele>456.76</ele>
        <time>2012-04-09T08:35:19Z</time>
      </trkpt>
      <trkpt lat="48.14085" lon="6.44693">
        <ele>453.4</ele>
        <time>2012-04-09T08:35:23Z</time>
      </trkpt>
      <trkpt lat="48.14075" lon="6.44709">
        <ele>449.07</ele>
        <time>2012-04-09T08:35:30Z</time>
      </trkpt>
      <trkpt lat="48.14073" lon="6.44718">
        <ele>442.34</ele>
        <time>2012-04-09T08:35:42Z</time>
      </trkpt>
      <trkpt lat="48.14073" lon="6.44726">
        <ele>441.86</ele>
        <time>2012-04-09T08:35:48Z</time>
      </trkpt>
      <trkpt lat="48.14071" lon="6.44747">
        <ele>439.46</ele>
        <time>2012-04-09T08:35:59Z</time>
      </trkpt>
      <trkpt lat="48.14068" lon="6.44751">
        <ele>437.54</ele>
        <time>2012-04-09T08:36:18Z</time>
      </trkpt>
      <trkpt lat="48.14065" lon="6.44758">
        <ele>436.1</ele>
        <time>2012-04-09T08:36:33Z</time>
      </trkpt>
      <trkpt lat="48.14064" lon="6.44767">
        <ele>434.17</ele>
        <time>2012-04-09T08:36:45Z</time>
      </trkpt>
      <trkpt lat="48.14057" lon="6.4476">
        <ele>434.65</ele>
        <time>2012-04-09T08:36:53Z</time>
      </trkpt>
      <trkpt lat="48.14055" lon="6.44734">
        <ele>442.34</ele>
        <time>2012-04-09T08:37:04Z</time>
      </trkpt>
      <trkpt lat="48.1406" lon="6.44738">
        <ele>441.38</ele>
        <time>2012-04-09T08:37:19Z</time>
      </trkpt>
      <trkpt lat="48.1406" lon="6.44739">
        <ele>436.58</ele>
        <time>2012-04-09T08:37:33Z</time>
      </trkpt>
      <trkpt lat="48.14061" lon="6.44738">
        <ele>434.17</ele>
        <time>2012-04-09T08:37:45Z</time>
      </trkpt>
      <trkpt lat="48.14056" lon="6.44733">
        <ele>431.29</ele>
        <time>2012-04-09T08:37:56Z</time>
      </trkpt>
      <trkpt lat="48.14052" lon="6.44731">
        <ele>426</ele>
        <time>2012-04-09T08:38:22Z</time>
      </trkpt>
      <trkpt lat="48.14048" lon="6.44729">
        <ele>421.68</ele>
        <time>2012-04-09T08:38:45Z</time>
      </trkpt>
      <trkpt lat="48.14048" lon="6.44729">
        <ele>419.75</ele>
        <time>2012-04-09T08:39:16Z</time>
      </trkpt>
      <trkpt lat="48.14047" lon="6.44728">
        <ele>419.75</ele>
        <time>2012-04-09T08:39:18Z</time>
      </trkpt>
      <trkpt lat="48.14033" lon="6.44675">
        <ele>426</ele>
        <time>2012-04-09T08:39:32Z</time>
      </trkpt>
      <trkpt lat="48.13995" lon="6.44604">
        <ele>429.85</ele>
        <time>2012-04-09T08:39:47Z</time>
      </trkpt>
      <trkpt lat="48.1396" lon="6.44552">
        <ele>429.37</ele>
        <time>2012-04-09T08:39:56Z</time>
      </trkpt>
      <trkpt lat="48.13954" lon="6.44545">
        <ele>429.37</ele>
        <time>2012-04-09T08:39:57Z</time>
      </trkpt>
      <trkpt lat="48.13947" lon="6.44538">
        <ele>427.92</ele>
        <time>2012-04-09T08:39:58Z</time>
      </trkpt>
      <trkpt lat="48.1394" lon="6.44531">
        <ele>426.48</ele>
        <time>2012-04-09T08:39:59Z</time>
      </trkpt>
      <trkpt lat="48.13933" lon="6.44524">
        <ele>425.04</ele>
        <time>2012-04-09T08:40:00Z</time>
      </trkpt>
      <trkpt lat="48.13926" lon="6.44519">
        <ele>423.6</ele>
        <time>2012-04-09T08:40:01Z</time>
      </trkpt>
      <trkpt lat="48.13919" lon="6.44515">
        <ele>422.16</ele>
        <time>2012-04-09T08:40:02Z</time>
      </trkpt>
      <trkpt lat="48.13913" lon="6.4451">
        <ele>420.71</ele>
        <time>2012-04-09T08:40:03Z</time>
      </trkpt>
      <trkpt lat="48.13873" lon="6.44482">
        <ele>413.02</ele>
        <time>2012-04-09T08:40:09Z</time>
      </trkpt>
      <trkpt lat="48.13868" lon="6.44481">
        <ele>413.02</ele>
        <time>2012-04-09T08:40:10Z</time>
      </trkpt>
      <trkpt lat="48.13862" lon="6.44482">
        <ele>412.54</ele>
        <time>2012-04-09T08:40:11Z</time>
      </trkpt>
      <trkpt lat="48.13856" lon="6.44485">
        <ele>411.58</ele>
        <time>2012-04-09T08:40:12Z</time>
      </trkpt>
      <trkpt lat="48.13851" lon="6.4449">
        <ele>411.1</ele>
        <time>2012-04-09T08:40:13Z</time>
      </trkpt>
      <trkpt lat="48.13842" lon="6.44498">
        <ele>410.14</ele>
        <time>2012-04-09T08:40:15Z</time>
      </trkpt>
      <trkpt lat="48.13838" lon="6.44499">
        <ele>409.66</ele>
        <time>2012-04-09T08:40:16Z</time>
      </trkpt>
      <trkpt lat="48.13833" lon="6.44498">
        <ele>409.66</ele>
        <time>2012-04-09T08:40:17Z</time>
      </trkpt>
      <trkpt lat="48.13829" lon="6.44496">
        <ele>409.18</ele>
        <time>2012-04-09T08:40:18Z</time>
      </trkpt>
      <trkpt lat="48.13825" lon="6.44495">
        <ele>409.18</ele>
        <time>2012-04-09T08:40:19Z</time>
      </trkpt>
      <trkpt lat="48.13821" lon="6.44493">
        <ele>408.7</ele>
        <time>2012-04-09T08:40:20Z</time>
      </trkpt>
      <trkpt lat="48.13787" lon="6.4448">
        <ele>406.77</ele>
        <time>2012-04-09T08:40:28Z</time>
      </trkpt>
      <trkpt lat="48.13783" lon="6.44483">
        <ele>406.77</ele>
        <time>2012-04-09T08:40:29Z</time>
      </trkpt>
      <trkpt lat="48.13778" lon="6.44484">
        <ele>406.29</ele>
        <time>2012-04-09T08:40:30Z</time>
      </trkpt>
      <trkpt lat="48.13773" lon="6.44484">
        <ele>406.29</ele>
        <time>2012-04-09T08:40:31Z</time>
      </trkpt>
      <trkpt lat="48.13769" lon="6.44484">
        <ele>405.81</ele>
        <time>2012-04-09T08:40:32Z</time>
      </trkpt>
      <trkpt lat="48.1375" lon="6.44482">
        <ele>405.33</ele>
        <time>2012-04-09T08:40:36Z</time>
      </trkpt>
      <trkpt lat="48.13745" lon="6.44481">
        <ele>404.85</ele>
        <time>2012-04-09T08:40:37Z</time>
      </trkpt>
      <trkpt lat="48.13731" lon="6.44473">
        <ele>403.41</ele>
        <time>2012-04-09T08:40:40Z</time>
      </trkpt>
      <trkpt lat="48.13689" lon="6.4443">
        <ele>398.12</ele>
        <time>2012-04-09T08:40:49Z</time>
      </trkpt>
      <trkpt lat="48.13679" lon="6.44418">
        <ele>396.68</ele>
        <time>2012-04-09T08:40:51Z</time>
      </trkpt>
      <trkpt lat="48.13668" lon="6.44408">
        <ele>395.72</ele>
        <time>2012-04-09T08:40:53Z</time>
      </trkpt>
      <trkpt lat="48.13662" lon="6.44404">
        <ele>395.24</ele>
        <time>2012-04-09T08:40:54Z</time>
      </trkpt>
      <trkpt lat="48.13592" lon="6.44383">
        <ele>390.91</ele>
        <time>2012-04-09T08:41:06Z</time>
      </trkpt>
      <trkpt lat="48.13581" lon="6.44383">
        <ele>390.91</ele>
        <time>2012-04-09T08:41:08Z</time>
      </trkpt>
      <trkpt lat="48.13576" lon="6.44382">
        <ele>391.39</ele>
        <time>2012-04-09T08:41:09Z</time>
      </trkpt>
      <trkpt lat="48.1357" lon="6.44381">
        <ele>391.39</ele>
        <time>2012-04-09T08:41:10Z</time>
      </trkpt>
      <trkpt lat="48.13565" lon="6.44378">
        <ele>391.87</ele>
        <time>2012-04-09T08:41:11Z</time>
      </trkpt>
      <trkpt lat="48.13561" lon="6.44375">
        <ele>391.87</ele>
        <time>2012-04-09T08:41:12Z</time>
      </trkpt>
      <trkpt lat="48.13556" lon="6.44372">
        <ele>391.87</ele>
        <time>2012-04-09T08:41:13Z</time>
      </trkpt>
      <trkpt lat="48.13552" lon="6.44369">
        <ele>392.36</ele>
        <time>2012-04-09T08:41:14Z</time>
      </trkpt>
      <trkpt lat="48.13508" lon="6.44326">
        <ele>395.72</ele>
        <time>2012-04-09T08:41:27Z</time>
      </trkpt>
      <trkpt lat="48.13473" lon="6.44286">
        <ele>401.49</ele>
        <time>2012-04-09T08:41:41Z</time>
      </trkpt>
      <trkpt lat="48.13443" lon="6.4426">
        <ele>405.81</ele>
        <time>2012-04-09T08:41:54Z</time>
      </trkpt>
      <trkpt lat="48.13406" lon="6.44239">
        <ele>409.66</ele>
        <time>2012-04-09T08:42:08Z</time>
      </trkpt>
      <trkpt lat="48.13366" lon="6.44223">
        <ele>413.5</ele>
        <time>2012-04-09T08:42:21Z</time>
      </trkpt>
      <trkpt lat="48.13322" lon="6.44226">
        <ele>419.27</ele>
        <time>2012-04-09T08:42:36Z</time>
      </trkpt>
      <trkpt lat="48.13283" lon="6.44239">
        <ele>421.68</ele>
        <time>2012-04-09T08:42:49Z</time>
      </trkpt>
      <trkpt lat="48.13239" lon="6.44236">
        <ele>423.12</ele>
        <time>2012-04-09T08:43:02Z</time>
      </trkpt>
      <trkpt lat="48.13195" lon="6.4423">
        <ele>426.48</ele>
        <time>2012-04-09T08:43:15Z</time>
      </trkpt>
      <trkpt lat="48.13147" lon="6.44212">
        <ele>427.44</ele>
        <time>2012-04-09T08:43:30Z</time>
      </trkpt>
      <trkpt lat="48.13102" lon="6.44185">
        <ele>427.92</ele>
        <time>2012-04-09T08:43:45Z</time>
      </trkpt>
      <trkpt lat="48.13057" lon="6.44148">
        <ele>426.96</ele>
        <time>2012-04-09T08:44:00Z</time>
      </trkpt>
      <trkpt lat="48.13005" lon="6.44093">
        <ele>426.48</ele>
        <time>2012-04-09T08:44:17Z</time>
      </trkpt>
      <trkpt lat="48.12969" lon="6.44042">
        <ele>427.44</ele>
        <time>2012-04-09T08:44:31Z</time>
      </trkpt>
      <trkpt lat="48.1293" lon="6.43985">
        <ele>428.89</ele>
        <time>2012-04-09T08:44:47Z</time>
      </trkpt>
      <trkpt lat="48.12892" lon="6.43931">
        <ele>430.33</ele>
        <time>2012-04-09T08:45:02Z</time>
      </trkpt>
      <trkpt lat="48.12855" lon="6.43883">
        <ele>431.77</ele>
        <time>2012-04-09T08:45:17Z</time>
      </trkpt>
      <trkpt lat="48.12819" lon="6.43839">
        <ele>433.69</ele>
        <time>2012-04-09T08:45:31Z</time>
      </trkpt>
      <trkpt lat="48.12785" lon="6.43804">
        <ele>439.94</ele>
        <time>2012-04-09T08:45:44Z</time>
      </trkpt>
      <trkpt lat="48.1275" lon="6.43778">
        <ele>443.79</ele>
        <time>2012-04-09T08:45:57Z</time>
      </trkpt>
      <trkpt lat="48.1272" lon="6.43768">
        <ele>447.15</ele>
        <time>2012-04-09T08:46:09Z</time>
      </trkpt>
      <trkpt lat="48.12687" lon="6.4376">
        <ele>451</ele>
        <time>2012-04-09T08:46:22Z</time>
      </trkpt>
      <trkpt lat="48.12648" lon="6.4375">
        <ele>456.76</ele>
        <time>2012-04-09T08:46:37Z</time>
      </trkpt>
      <trkpt lat="48.1262" lon="6.43741">
        <ele>462.05</ele>
        <time>2012-04-09T08:46:49Z</time>
      </trkpt>
      <trkpt lat="48.12597" lon="6.43734">
        <ele>465.9</ele>
        <time>2012-04-09T08:46:59Z</time>
      </trkpt>
      <trkpt lat="48.12593" lon="6.43733">
        <ele>466.86</ele>
        <time>2012-04-09T08:47:01Z</time>
      </trkpt>
      <trkpt lat="48.1259" lon="6.43734">
        <ele>467.34</ele>
        <time>2012-04-09T08:47:02Z</time>
      </trkpt>
      <trkpt lat="48.12588" lon="6.43735">
        <ele>467.82</ele>
        <time>2012-04-09T08:47:03Z</time>
      </trkpt>
      <trkpt lat="48.12585" lon="6.43737">
        <ele>467.82</ele>
        <time>2012-04-09T08:47:04Z</time>
      </trkpt>
      <trkpt lat="48.12582" lon="6.43739">
        <ele>467.82</ele>
        <time>2012-04-09T08:47:05Z</time>
      </trkpt>
      <trkpt lat="48.1258" lon="6.43742">
        <ele>468.3</ele>
        <time>2012-04-09T08:47:06Z</time>
      </trkpt>
      <trkpt lat="48.12578" lon="6.43745">
        <ele>467.34</ele>
        <time>2012-04-09T08:47:07Z</time>
      </trkpt>
      <trkpt lat="48.12576" lon="6.43748">
        <ele>466.86</ele>
        <time>2012-04-09T08:47:08Z</time>
      </trkpt>
      <trkpt lat="48.12563" lon="6.43808">
        <ele>463.01</ele>
        <time>2012-04-09T08:47:23Z</time>
      </trkpt>
      <trkpt lat="48.1255" lon="6.43848">
        <ele>464.93</ele>
        <time>2012-04-09T08:47:34Z</time>
      </trkpt>
      <trkpt lat="48.12532" lon="6.43889">
        <ele>472.14</ele>
        <time>2012-04-09T08:47:46Z</time>
      </trkpt>
      <trkpt lat="48.12523" lon="6.4393">
        <ele>482.72</ele>
        <time>2012-04-09T08:47:58Z</time>
      </trkpt>
      <trkpt lat="48.12519" lon="6.43968">
        <ele>494.26</ele>
        <time>2012-04-09T08:48:08Z</time>
      </trkpt>
      <trkpt lat="48.12522" lon="6.43977">
        <ele>499.54</ele>
        <time>2012-04-09T08:48:12Z</time>
      </trkpt>
      <trkpt lat="48.12522" lon="6.43981">
        <ele>500.98</ele>
        <time>2012-04-09T08:48:13Z</time>
      </trkpt>
      <trkpt lat="48.12521" lon="6.43985">
        <ele>501.95</ele>
        <time>2012-04-09T08:48:14Z</time>
      </trkpt>
      <trkpt lat="48.1252" lon="6.4399">
        <ele>503.39</ele>
        <time>2012-04-09T08:48:15Z</time>
      </trkpt>
      <trkpt lat="48.1252" lon="6.43994">
        <ele>504.83</ele>
        <time>2012-04-09T08:48:16Z</time>
      </trkpt>
      <trkpt lat="48.12519" lon="6.43998">
        <ele>505.79</ele>
        <time>2012-04-09T08:48:17Z</time>
      </trkpt>
      <trkpt lat="48.12505" lon="6.44046">
        <ele>517.33</ele>
        <time>2012-04-09T08:48:28Z</time>
      </trkpt>
      <trkpt lat="48.12488" lon="6.44089">
        <ele>523.09</ele>
        <time>2012-04-09T08:48:38Z</time>
      </trkpt>
      <trkpt lat="48.12464" lon="6.44124">
        <ele>528.38</ele>
        <time>2012-04-09T08:48:49Z</time>
      </trkpt>
      <trkpt lat="48.12434" lon="6.4416">
        <ele>532.71</ele>
        <time>2012-04-09T08:49:01Z</time>
      </trkpt>
      <trkpt lat="48.12413" lon="6.4419">
        <ele>537.51</ele>
        <time>2012-04-09T08:49:11Z</time>
      </trkpt>
      <trkpt lat="48.12393" lon="6.44231">
        <ele>541.36</ele>
        <time>2012-04-09T08:49:22Z</time>
      </trkpt>
      <trkpt lat="48.12376" lon="6.44282">
        <ele>538.48</ele>
        <time>2012-04-09T08:49:34Z</time>
      </trkpt>
      <trkpt lat="48.12372" lon="6.44324">
        <ele>536.55</ele>
        <time>2012-04-09T08:49:43Z</time>
      </trkpt>
      <trkpt lat="48.12374" lon="6.44382">
        <ele>537.51</ele>
        <time>2012-04-09T08:49:56Z</time>
      </trkpt>
      <trkpt lat="48.1238" lon="6.44449">
        <ele>533.67</ele>
        <time>2012-04-09T08:50:09Z</time>
      </trkpt>
      <trkpt lat="48.12399" lon="6.44487">
        <ele>532.71</ele>
        <time>2012-04-09T08:50:20Z</time>
      </trkpt>
      <trkpt lat="48.12419" lon="6.44506">
        <ele>529.34</ele>
        <time>2012-04-09T08:50:30Z</time>
      </trkpt>
      <trkpt lat="48.12444" lon="6.44518">
        <ele>528.38</ele>
        <time>2012-04-09T08:50:41Z</time>
      </trkpt>
      <trkpt lat="48.12448" lon="6.44524">
        <ele>529.34</ele>
        <time>2012-04-09T08:50:42Z</time>
      </trkpt>
      <trkpt lat="48.12464" lon="6.44546">
        <ele>529.82</ele>
        <time>2012-04-09T08:50:45Z</time>
      </trkpt>
      <trkpt lat="48.12525" lon="6.44606">
        <ele>521.17</ele>
        <time>2012-04-09T08:50:55Z</time>
      </trkpt>
      <trkpt lat="48.12539" lon="6.44621">
        <ele>518.77</ele>
        <time>2012-04-09T08:50:58Z</time>
      </trkpt>
      <trkpt lat="48.1256" lon="6.44651">
        <ele>515.4</ele>
        <time>2012-04-09T08:51:03Z</time>
      </trkpt>
      <trkpt lat="48.12563" lon="6.44657">
        <ele>514.92</ele>
        <time>2012-04-09T08:51:04Z</time>
      </trkpt>
      <trkpt lat="48.12566" lon="6.44663">
        <ele>513.96</ele>
        <time>2012-04-09T08:51:05Z</time>
      </trkpt>
      <trkpt lat="48.12567" lon="6.44669">
        <ele>513.48</ele>
        <time>2012-04-09T08:51:06Z</time>
      </trkpt>
      <trkpt lat="48.12568" lon="6.44674">
        <ele>512.52</ele>
        <time>2012-04-09T08:51:07Z</time>
      </trkpt>
      <trkpt lat="48.12569" lon="6.44679">
        <ele>512.04</ele>
        <time>2012-04-09T08:51:08Z</time>
      </trkpt>
      <trkpt lat="48.12571" lon="6.44683">
        <ele>511.56</ele>
        <time>2012-04-09T08:51:09Z</time>
      </trkpt>
      <trkpt lat="48.12591" lon="6.44738">
        <ele>508.19</ele>
        <time>2012-04-09T08:51:20Z</time>
      </trkpt>
      <trkpt lat="48.12593" lon="6.44745">
        <ele>507.71</ele>
        <time>2012-04-09T08:51:21Z</time>
      </trkpt>
      <trkpt lat="48.12599" lon="6.44758">
        <ele>507.23</ele>
        <time>2012-04-09T08:51:23Z</time>
      </trkpt>
      <trkpt lat="48.12601" lon="6.44764">
        <ele>506.75</ele>
        <time>2012-04-09T08:51:24Z</time>
      </trkpt>
      <trkpt lat="48.12613" lon="6.44806">
        <ele>505.31</ele>
        <time>2012-04-09T08:51:32Z</time>
      </trkpt>
      <trkpt lat="48.12612" lon="6.4481">
        <ele>504.83</ele>
        <time>2012-04-09T08:51:33Z</time>
      </trkpt>
      <trkpt lat="48.12611" lon="6.44813">
        <ele>504.35</ele>
        <time>2012-04-09T08:51:34Z</time>
      </trkpt>
      <trkpt lat="48.12596" lon="6.44848">
        <ele>504.35</ele>
        <time>2012-04-09T08:51:45Z</time>
      </trkpt>
      <trkpt lat="48.12594" lon="6.44849">
        <ele>504.83</ele>
        <time>2012-04-09T08:51:46Z</time>
      </trkpt>
      <trkpt lat="48.12591" lon="6.44849">
        <ele>504.83</ele>
        <time>2012-04-09T08:51:47Z</time>
      </trkpt>
      <trkpt lat="48.12588" lon="6.44849">
        <ele>505.31</ele>
        <time>2012-04-09T08:51:48Z</time>
      </trkpt>
      <trkpt lat="48.12584" lon="6.44849">
        <ele>505.31</ele>
        <time>2012-04-09T08:51:49Z</time>
      </trkpt>
      <trkpt lat="48.1258" lon="6.44849">
        <ele>505.79</ele>
        <time>2012-04-09T08:51:50Z</time>
      </trkpt>
      <trkpt lat="48.12572" lon="6.44849">
        <ele>506.27</ele>
        <time>2012-04-09T08:51:52Z</time>
      </trkpt>
      <trkpt lat="48.12568" lon="6.44849">
        <ele>506.75</ele>
        <time>2012-04-09T08:51:53Z</time>
      </trkpt>
      <trkpt lat="48.12564" lon="6.44849">
        <ele>507.23</ele>
        <time>2012-04-09T08:51:54Z</time>
      </trkpt>
      <trkpt lat="48.1256" lon="6.44849">
        <ele>507.71</ele>
        <time>2012-04-09T08:51:55Z</time>
      </trkpt>
      <trkpt lat="48.12557" lon="6.44849">
        <ele>508.19</ele>
        <time>2012-04-09T08:51:56Z</time>
      </trkpt>
      <trkpt lat="48.12545" lon="6.44852">
        <ele>510.6</ele>
        <time>2012-04-09T08:51:59Z</time>
      </trkpt>
      <trkpt lat="48.12505" lon="6.44862">
        <ele>518.77</ele>
        <time>2012-04-09T08:52:10Z</time>
      </trkpt>
      <trkpt lat="48.12474" lon="6.44852">
        <ele>528.86</ele>
        <time>2012-04-09T08:52:22Z</time>
      </trkpt>
      <trkpt lat="48.12447" lon="6.44828">
        <ele>536.55</ele>
        <time>2012-04-09T08:52:33Z</time>
      </trkpt>
      <trkpt lat="48.12427" lon="6.44793">
        <ele>543.76</ele>
        <time>2012-04-09T08:52:46Z</time>
      </trkpt>
      <trkpt lat="48.12426" lon="6.44791">
        <ele>544.24</ele>
        <time>2012-04-09T08:52:47Z</time>
      </trkpt>
      <trkpt lat="48.12424" lon="6.44789">
        <ele>544.72</ele>
        <time>2012-04-09T08:52:48Z</time>
      </trkpt>
      <trkpt lat="48.12414" lon="6.44771">
        <ele>546.65</ele>
        <time>2012-04-09T08:52:58Z</time>
      </trkpt>
      <trkpt lat="48.12381" lon="6.44754">
        <ele>543.28</ele>
        <time>2012-04-09T08:53:08Z</time>
      </trkpt>
      <trkpt lat="48.12329" lon="6.44748">
        <ele>540.4</ele>
        <time>2012-04-09T08:53:22Z</time>
      </trkpt>
      <trkpt lat="48.12306" lon="6.44761">
        <ele>537.99</ele>
        <time>2012-04-09T08:53:26Z</time>
      </trkpt>
      <trkpt lat="48.12295" lon="6.44763">
        <ele>537.03</ele>
        <time>2012-04-09T08:53:27Z</time>
      </trkpt>
      <trkpt lat="48.12288" lon="6.44766">
        <ele>537.03</ele>
        <time>2012-04-09T08:53:28Z</time>
      </trkpt>
      <trkpt lat="48.12282" lon="6.44768">
        <ele>536.55</ele>
        <time>2012-04-09T08:53:29Z</time>
      </trkpt>
      <trkpt lat="48.12276" lon="6.4477">
        <ele>536.07</ele>
        <time>2012-04-09T08:53:30Z</time>
      </trkpt>
      <trkpt lat="48.12271" lon="6.44772">
        <ele>535.59</ele>
        <time>2012-04-09T08:53:31Z</time>
      </trkpt>
      <trkpt lat="48.12267" lon="6.44774">
        <ele>535.11</ele>
        <time>2012-04-09T08:53:32Z</time>
      </trkpt>
      <trkpt lat="48.12262" lon="6.44777">
        <ele>535.11</ele>
        <time>2012-04-09T08:53:33Z</time>
      </trkpt>
      <trkpt lat="48.12242" lon="6.44785">
        <ele>532.71</ele>
        <time>2012-04-09T08:53:38Z</time>
      </trkpt>
      <trkpt lat="48.12233" lon="6.44789">
        <ele>532.23</ele>
        <time>2012-04-09T08:53:40Z</time>
      </trkpt>
      <trkpt lat="48.12228" lon="6.44791">
        <ele>531.27</ele>
        <time>2012-04-09T08:53:41Z</time>
      </trkpt>
      <trkpt lat="48.12207" lon="6.44797">
        <ele>530.79</ele>
        <time>2012-04-09T08:53:46Z</time>
      </trkpt>
      <trkpt lat="48.12205" lon="6.44797">
        <ele>530.3</ele>
        <time>2012-04-09T08:53:47Z</time>
      </trkpt>
      <trkpt lat="48.12199" lon="6.44798">
        <ele>525.5</ele>
        <time>2012-04-09T08:53:56Z</time>
      </trkpt>
      <trkpt lat="48.12197" lon="6.448">
        <ele>525.02</ele>
        <time>2012-04-09T08:53:57Z</time>
      </trkpt>
      <trkpt lat="48.1219" lon="6.44804">
        <ele>523.58</ele>
        <time>2012-04-09T08:54:08Z</time>
      </trkpt>
      <trkpt lat="48.12187" lon="6.44804">
        <ele>523.58</ele>
        <time>2012-04-09T08:54:09Z</time>
      </trkpt>
      <trkpt lat="48.12184" lon="6.44805">
        <ele>523.58</ele>
        <time>2012-04-09T08:54:10Z</time>
      </trkpt>
      <trkpt lat="48.12182" lon="6.44805">
        <ele>523.09</ele>
        <time>2012-04-09T08:54:11Z</time>
      </trkpt>
      <trkpt lat="48.1218" lon="6.44805">
        <ele>523.09</ele>
        <time>2012-04-09T08:54:12Z</time>
      </trkpt>
      <trkpt lat="48.12166" lon="6.44802">
        <ele>524.54</ele>
        <time>2012-04-09T08:54:19Z</time>
      </trkpt>
      <trkpt lat="48.12164" lon="6.448">
        <ele>524.06</ele>
        <time>2012-04-09T08:54:20Z</time>
      </trkpt>
      <trkpt lat="48.12152" lon="6.44794">
        <ele>523.58</ele>
        <time>2012-04-09T08:54:26Z</time>
      </trkpt>
      <trkpt lat="48.12148" lon="6.44794">
        <ele>523.58</ele>
        <time>2012-04-09T08:54:27Z</time>
      </trkpt>
      <trkpt lat="48.1214" lon="6.44813">
        <ele>526.46</ele>
        <time>2012-04-09T08:54:35Z</time>
      </trkpt>
      <trkpt lat="48.12147" lon="6.44825">
        <ele>528.86</ele>
        <time>2012-04-09T08:54:39Z</time>
      </trkpt>
      <trkpt lat="48.12148" lon="6.44842">
        <ele>534.15</ele>
        <time>2012-04-09T08:54:46Z</time>
      </trkpt>
      <trkpt lat="48.12137" lon="6.44853">
        <ele>537.99</ele>
        <time>2012-04-09T08:54:51Z</time>
      </trkpt>
      <trkpt lat="48.12105" lon="6.4487">
        <ele>543.28</ele>
        <time>2012-04-09T08:55:00Z</time>
      </trkpt>
      <trkpt lat="48.12101" lon="6.44882">
        <ele>542.8</ele>
        <time>2012-04-09T08:55:02Z</time>
      </trkpt>
      <trkpt lat="48.121" lon="6.44889">
        <ele>543.28</ele>
        <time>2012-04-09T08:55:03Z</time>
      </trkpt>
      <trkpt lat="48.12101" lon="6.44895">
        <ele>543.28</ele>
        <time>2012-04-09T08:55:04Z</time>
      </trkpt>
      <trkpt lat="48.12102" lon="6.44902">
        <ele>543.76</ele>
        <time>2012-04-09T08:55:05Z</time>
      </trkpt>
      <trkpt lat="48.12104" lon="6.44915">
        <ele>544.24</ele>
        <time>2012-04-09T08:55:07Z</time>
      </trkpt>
      <trkpt lat="48.12105" lon="6.44921">
        <ele>544.24</ele>
        <time>2012-04-09T08:55:08Z</time>
      </trkpt>
      <trkpt lat="48.12109" lon="6.44949">
        <ele>546.17</ele>
        <time>2012-04-09T08:55:13Z</time>
      </trkpt>
      <trkpt lat="48.12112" lon="6.44969">
        <ele>547.13</ele>
        <time>2012-04-09T08:55:16Z</time>
      </trkpt>
      <trkpt lat="48.12115" lon="6.45012">
        <ele>543.28</ele>
        <time>2012-04-09T08:55:22Z</time>
      </trkpt>
      <trkpt lat="48.12144" lon="6.45109">
        <ele>532.23</ele>
        <time>2012-04-09T08:55:34Z</time>
      </trkpt>
      <trkpt lat="48.12155" lon="6.45131">
        <ele>526.94</ele>
        <time>2012-04-09T08:55:37Z</time>
      </trkpt>
      <trkpt lat="48.12159" lon="6.45137">
        <ele>525.5</ele>
        <time>2012-04-09T08:55:38Z</time>
      </trkpt>
      <trkpt lat="48.12215" lon="6.45201">
        <ele>507.23</ele>
        <time>2012-04-09T08:55:50Z</time>
      </trkpt>
      <trkpt lat="48.12221" lon="6.45205">
        <ele>505.31</ele>
        <time>2012-04-09T08:55:51Z</time>
      </trkpt>
      <trkpt lat="48.12231" lon="6.45208">
        <ele>504.83</ele>
        <time>2012-04-09T08:55:53Z</time>
      </trkpt>
      <trkpt lat="48.12239" lon="6.45208">
        <ele>503.39</ele>
        <time>2012-04-09T08:55:55Z</time>
      </trkpt>
      <trkpt lat="48.12243" lon="6.45207">
        <ele>503.39</ele>
        <time>2012-04-09T08:55:56Z</time>
      </trkpt>
      <trkpt lat="48.12247" lon="6.45206">
        <ele>502.91</ele>
        <time>2012-04-09T08:55:57Z</time>
      </trkpt>
      <trkpt lat="48.12251" lon="6.45204">
        <ele>502.91</ele>
        <time>2012-04-09T08:55:58Z</time>
      </trkpt>
      <trkpt lat="48.12254" lon="6.45202">
        <ele>502.91</ele>
        <time>2012-04-09T08:55:59Z</time>
      </trkpt>
      <trkpt lat="48.12257" lon="6.452">
        <ele>501.95</ele>
        <time>2012-04-09T08:56:00Z</time>
      </trkpt>
      <trkpt lat="48.1226" lon="6.45196">
        <ele>501.46</ele>
        <time>2012-04-09T08:56:01Z</time>
      </trkpt>
      <trkpt lat="48.12266" lon="6.45187">
        <ele>501.46</ele>
        <time>2012-04-09T08:56:03Z</time>
      </trkpt>
      <trkpt lat="48.12268" lon="6.45181">
        <ele>500.98</ele>
        <time>2012-04-09T08:56:04Z</time>
      </trkpt>
      <trkpt lat="48.12272" lon="6.45168">
        <ele>500.5</ele>
        <time>2012-04-09T08:56:06Z</time>
      </trkpt>
      <trkpt lat="48.12274" lon="6.45146">
        <ele>499.54</ele>
        <time>2012-04-09T08:56:09Z</time>
      </trkpt>
      <trkpt lat="48.12275" lon="6.45139">
        <ele>499.54</ele>
        <time>2012-04-09T08:56:10Z</time>
      </trkpt>
      <trkpt lat="48.12274" lon="6.45131">
        <ele>499.54</ele>
        <time>2012-04-09T08:56:11Z</time>
      </trkpt>
      <trkpt lat="48.12265" lon="6.4503">
        <ele>502.91</ele>
        <time>2012-04-09T08:56:26Z</time>
      </trkpt>
      <trkpt lat="48.12263" lon="6.45008">
        <ele>504.35</ele>
        <time>2012-04-09T08:56:29Z</time>
      </trkpt>
      <trkpt lat="48.12263" lon="6.44999">
        <ele>504.83</ele>
        <time>2012-04-09T08:56:30Z</time>
      </trkpt>
      <trkpt lat="48.12264" lon="6.44991">
        <ele>505.31</ele>
        <time>2012-04-09T08:56:31Z</time>
      </trkpt>
      <trkpt lat="48.12267" lon="6.44965">
        <ele>505.79</ele>
        <time>2012-04-09T08:56:34Z</time>
      </trkpt>
      <trkpt lat="48.1227" lon="6.44949">
        <ele>504.83</ele>
        <time>2012-04-09T08:56:36Z</time>
      </trkpt>
      <trkpt lat="48.12272" lon="6.44941">
        <ele>504.35</ele>
        <time>2012-04-09T08:56:37Z</time>
      </trkpt>
      <trkpt lat="48.12292" lon="6.44887">
        <ele>504.35</ele>
        <time>2012-04-09T08:56:47Z</time>
      </trkpt>
      <trkpt lat="48.12306" lon="6.44876">
        <ele>507.71</ele>
        <time>2012-04-09T08:56:51Z</time>
      </trkpt>
      <trkpt lat="48.12312" lon="6.44876">
        <ele>508.19</ele>
        <time>2012-04-09T08:56:52Z</time>
      </trkpt>
      <trkpt lat="48.12317" lon="6.44877">
        <ele>508.19</ele>
        <time>2012-04-09T08:56:53Z</time>
      </trkpt>
      <trkpt lat="48.12322" lon="6.44879">
        <ele>508.67</ele>
        <time>2012-04-09T08:56:54Z</time>
      </trkpt>
      <trkpt lat="48.12327" lon="6.44883">
        <ele>508.67</ele>
        <time>2012-04-09T08:56:55Z</time>
      </trkpt>
      <trkpt lat="48.12332" lon="6.44888">
        <ele>509.16</ele>
        <time>2012-04-09T08:56:56Z</time>
      </trkpt>
      <trkpt lat="48.12342" lon="6.44897">
        <ele>510.12</ele>
        <time>2012-04-09T08:56:58Z</time>
      </trkpt>
      <trkpt lat="48.12367" lon="6.44929">
        <ele>513</ele>
        <time>2012-04-09T08:57:04Z</time>
      </trkpt>
      <trkpt lat="48.12395" lon="6.44969">
        <ele>515.88</ele>
        <time>2012-04-09T08:57:11Z</time>
      </trkpt>
      <trkpt lat="48.12411" lon="6.44989">
        <ele>515.88</ele>
        <time>2012-04-09T08:57:15Z</time>
      </trkpt>
      <trkpt lat="48.1242" lon="6.44996">
        <ele>514.92</ele>
        <time>2012-04-09T08:57:17Z</time>
      </trkpt>
      <trkpt lat="48.12424" lon="6.44999">
        <ele>513.96</ele>
        <time>2012-04-09T08:57:18Z</time>
      </trkpt>
      <trkpt lat="48.12428" lon="6.45001">
        <ele>513.48</ele>
        <time>2012-04-09T08:57:19Z</time>
      </trkpt>
      <trkpt lat="48.12433" lon="6.45">
        <ele>513.96</ele>
        <time>2012-04-09T08:57:20Z</time>
      </trkpt>
      <trkpt lat="48.12437" lon="6.45">
        <ele>514.44</ele>
        <time>2012-04-09T08:57:21Z</time>
      </trkpt>
      <trkpt lat="48.12442" lon="6.44998">
        <ele>514.92</ele>
        <time>2012-04-09T08:57:22Z</time>
      </trkpt>
      <trkpt lat="48.12447" lon="6.44995">
        <ele>515.4</ele>
        <time>2012-04-09T08:57:23Z</time>
      </trkpt>
      <trkpt lat="48.1245" lon="6.44991">
        <ele>516.37</ele>
        <time>2012-04-09T08:57:24Z</time>
      </trkpt>
      <trkpt lat="48.12453" lon="6.44988">
        <ele>516.85</ele>
        <time>2012-04-09T08:57:25Z</time>
      </trkpt>
      <trkpt lat="48.12456" lon="6.44984">
        <ele>517.33</ele>
        <time>2012-04-09T08:57:26Z</time>
      </trkpt>
      <trkpt lat="48.12458" lon="6.44979">
        <ele>517.81</ele>
        <time>2012-04-09T08:57:27Z</time>
      </trkpt>
      <trkpt lat="48.12463" lon="6.4497">
        <ele>518.29</ele>
        <time>2012-04-09T08:57:29Z</time>
      </trkpt>
      <trkpt lat="48.12471" lon="6.44956">
        <ele>519.25</ele>
        <time>2012-04-09T08:57:32Z</time>
      </trkpt>
      <trkpt lat="48.12474" lon="6.44951">
        <ele>519.25</ele>
        <time>2012-04-09T08:57:33Z</time>
      </trkpt>
      <trkpt lat="48.12478" lon="6.44946">
        <ele>519.25</ele>
        <time>2012-04-09T08:57:34Z</time>
      </trkpt>
      <trkpt lat="48.1249" lon="6.44935">
        <ele>520.21</ele>
        <time>2012-04-09T08:57:37Z</time>
      </trkpt>
      <trkpt lat="48.12495" lon="6.44933">
        <ele>520.21</ele>
        <time>2012-04-09T08:57:38Z</time>
      </trkpt>
      <trkpt lat="48.12499" lon="6.44933">
        <ele>520.21</ele>
        <time>2012-04-09T08:57:39Z</time>
      </trkpt>
      <trkpt lat="48.12504" lon="6.44933">
        <ele>520.21</ele>
        <time>2012-04-09T08:57:40Z</time>
      </trkpt>
      <trkpt lat="48.1251" lon="6.44933">
        <ele>520.21</ele>
        <time>2012-04-09T08:57:41Z</time>
      </trkpt>
      <trkpt lat="48.12515" lon="6.44934">
        <ele>520.69</ele>
        <time>2012-04-09T08:57:42Z</time>
      </trkpt>
      <trkpt lat="48.12521" lon="6.44935">
        <ele>520.21</ele>
        <time>2012-04-09T08:57:43Z</time>
      </trkpt>
      <trkpt lat="48.12537" lon="6.44941">
        <ele>520.69</ele>
        <time>2012-04-09T08:57:46Z</time>
      </trkpt>
      <trkpt lat="48.12543" lon="6.44944">
        <ele>520.69</ele>
        <time>2012-04-09T08:57:47Z</time>
      </trkpt>
      <trkpt lat="48.12572" lon="6.44963">
        <ele>520.21</ele>
        <time>2012-04-09T08:57:52Z</time>
      </trkpt>
      <trkpt lat="48.12577" lon="6.44969">
        <ele>520.21</ele>
        <time>2012-04-09T08:57:53Z</time>
      </trkpt>
      <trkpt lat="48.12582" lon="6.44975">
        <ele>520.21</ele>
        <time>2012-04-09T08:57:54Z</time>
      </trkpt>
      <trkpt lat="48.12585" lon="6.44982">
        <ele>520.69</ele>
        <time>2012-04-09T08:57:55Z</time>
      </trkpt>
      <trkpt lat="48.12588" lon="6.4499">
        <ele>520.69</ele>
        <time>2012-04-09T08:57:56Z</time>
      </trkpt>
      <trkpt lat="48.12591" lon="6.44997">
        <ele>521.17</ele>
        <time>2012-04-09T08:57:57Z</time>
      </trkpt>
      <trkpt lat="48.12618" lon="6.45086">
        <ele>518.29</ele>
        <time>2012-04-09T08:58:08Z</time>
      </trkpt>
      <trkpt lat="48.12625" lon="6.45114">
        <ele>516.37</ele>
        <time>2012-04-09T08:58:11Z</time>
      </trkpt>
      <trkpt lat="48.12626" lon="6.45123">
        <ele>515.88</ele>
        <time>2012-04-09T08:58:12Z</time>
      </trkpt>
      <trkpt lat="48.12625" lon="6.45132">
        <ele>514.92</ele>
        <time>2012-04-09T08:58:13Z</time>
      </trkpt>
      <trkpt lat="48.12623" lon="6.4514">
        <ele>513.96</ele>
        <time>2012-04-09T08:58:14Z</time>
      </trkpt>
      <trkpt lat="48.12621" lon="6.45147">
        <ele>513</ele>
        <time>2012-04-09T08:58:15Z</time>
      </trkpt>
      <trkpt lat="48.1262" lon="6.45153">
        <ele>511.56</ele>
        <time>2012-04-09T08:58:16Z</time>
      </trkpt>
      <trkpt lat="48.12616" lon="6.4517">
        <ele>509.16</ele>
        <time>2012-04-09T08:58:18Z</time>
      </trkpt>
      <trkpt lat="48.1261" lon="6.45222">
        <ele>504.83</ele>
        <time>2012-04-09T08:58:23Z</time>
      </trkpt>
      <trkpt lat="48.12628" lon="6.45335">
        <ele>492.81</ele>
        <time>2012-04-09T08:58:33Z</time>
      </trkpt>
      <trkpt lat="48.12632" lon="6.45345">
        <ele>491.37</ele>
        <time>2012-04-09T08:58:34Z</time>
      </trkpt>
      <trkpt lat="48.12637" lon="6.45353">
        <ele>490.41</ele>
        <time>2012-04-09T08:58:35Z</time>
      </trkpt>
      <trkpt lat="48.12642" lon="6.45361">
        <ele>489.45</ele>
        <time>2012-04-09T08:58:36Z</time>
      </trkpt>
      <trkpt lat="48.12648" lon="6.45369">
        <ele>487.53</ele>
        <time>2012-04-09T08:58:37Z</time>
      </trkpt>
      <trkpt lat="48.12654" lon="6.45373">
        <ele>487.05</ele>
        <time>2012-04-09T08:58:38Z</time>
      </trkpt>
      <trkpt lat="48.12661" lon="6.45378">
        <ele>483.68</ele>
        <time>2012-04-09T08:58:39Z</time>
      </trkpt>
      <trkpt lat="48.12667" lon="6.45379">
        <ele>481.28</ele>
        <time>2012-04-09T08:58:40Z</time>
      </trkpt>
      <trkpt lat="48.12674" lon="6.45378">
        <ele>478.87</ele>
        <time>2012-04-09T08:58:41Z</time>
      </trkpt>
      <trkpt lat="48.1268" lon="6.45375">
        <ele>477.43</ele>
        <time>2012-04-09T08:58:42Z</time>
      </trkpt>
      <trkpt lat="48.12695" lon="6.45366">
        <ele>475.51</ele>
        <time>2012-04-09T08:58:44Z</time>
      </trkpt>
      <trkpt lat="48.12703" lon="6.45364">
        <ele>474.55</ele>
        <time>2012-04-09T08:58:45Z</time>
      </trkpt>
      <trkpt lat="48.1271" lon="6.45362">
        <ele>473.59</ele>
        <time>2012-04-09T08:58:46Z</time>
      </trkpt>
      <trkpt lat="48.12718" lon="6.45363">
        <ele>473.11</ele>
        <time>2012-04-09T08:58:47Z</time>
      </trkpt>
      <trkpt lat="48.12725" lon="6.45367">
        <ele>473.11</ele>
        <time>2012-04-09T08:58:48Z</time>
      </trkpt>
      <trkpt lat="48.12731" lon="6.45374">
        <ele>472.63</ele>
        <time>2012-04-09T08:58:49Z</time>
      </trkpt>
      <trkpt lat="48.12736" lon="6.45383">
        <ele>472.63</ele>
        <time>2012-04-09T08:58:50Z</time>
      </trkpt>
      <trkpt lat="48.12739" lon="6.45393">
        <ele>473.11</ele>
        <time>2012-04-09T08:58:51Z</time>
      </trkpt>
      <trkpt lat="48.1274" lon="6.45403">
        <ele>472.14</ele>
        <time>2012-04-09T08:58:52Z</time>
      </trkpt>
      <trkpt lat="48.12741" lon="6.45413">
        <ele>471.18</ele>
        <time>2012-04-09T08:58:53Z</time>
      </trkpt>
      <trkpt lat="48.12767" lon="6.45521">
        <ele>466.38</ele>
        <time>2012-04-09T08:59:03Z</time>
      </trkpt>
      <trkpt lat="48.12775" lon="6.45592">
        <ele>463.49</ele>
        <time>2012-04-09T08:59:09Z</time>
      </trkpt>
      <trkpt lat="48.12778" lon="6.45605">
        <ele>463.01</ele>
        <time>2012-04-09T08:59:10Z</time>
      </trkpt>
      <trkpt lat="48.12785" lon="6.45629">
        <ele>460.13</ele>
        <time>2012-04-09T08:59:12Z</time>
      </trkpt>
      <trkpt lat="48.1279" lon="6.45639">
        <ele>458.69</ele>
        <time>2012-04-09T08:59:13Z</time>
      </trkpt>
      <trkpt lat="48.12796" lon="6.45648">
        <ele>457.72</ele>
        <time>2012-04-09T08:59:14Z</time>
      </trkpt>
      <trkpt lat="48.12809" lon="6.45665">
        <ele>456.28</ele>
        <time>2012-04-09T08:59:16Z</time>
      </trkpt>
      <trkpt lat="48.12852" lon="6.45706">
        <ele>452.44</ele>
        <time>2012-04-09T08:59:22Z</time>
      </trkpt>
      <trkpt lat="48.12861" lon="6.45709">
        <ele>451.96</ele>
        <time>2012-04-09T08:59:23Z</time>
      </trkpt>
      <trkpt lat="48.12953" lon="6.45747">
        <ele>444.75</ele>
        <time>2012-04-09T08:59:33Z</time>
      </trkpt>
      <trkpt lat="48.1299" lon="6.45751">
        <ele>442.34</ele>
        <time>2012-04-09T08:59:37Z</time>
      </trkpt>
      <trkpt lat="48.13006" lon="6.45748">
        <ele>441.38</ele>
        <time>2012-04-09T08:59:39Z</time>
      </trkpt>
      <trkpt lat="48.13012" lon="6.45742">
        <ele>441.38</ele>
        <time>2012-04-09T08:59:40Z</time>
      </trkpt>
      <trkpt lat="48.13018" lon="6.45735">
        <ele>440.9</ele>
        <time>2012-04-09T08:59:41Z</time>
      </trkpt>
      <trkpt lat="48.13023" lon="6.45727">
        <ele>440.42</ele>
        <time>2012-04-09T08:59:42Z</time>
      </trkpt>
      <trkpt lat="48.13028" lon="6.45718">
        <ele>439.94</ele>
        <time>2012-04-09T08:59:43Z</time>
      </trkpt>
      <trkpt lat="48.13031" lon="6.45709">
        <ele>439.94</ele>
        <time>2012-04-09T08:59:44Z</time>
      </trkpt>
      <trkpt lat="48.13044" lon="6.45684">
        <ele>439.46</ele>
        <time>2012-04-09T08:59:47Z</time>
      </trkpt>
      <trkpt lat="48.13049" lon="6.45679">
        <ele>439.46</ele>
        <time>2012-04-09T08:59:48Z</time>
      </trkpt>
      <trkpt lat="48.13054" lon="6.45677">
        <ele>439.46</ele>
        <time>2012-04-09T08:59:49Z</time>
      </trkpt>
      <trkpt lat="48.13058" lon="6.45679">
        <ele>438.98</ele>
        <time>2012-04-09T08:59:50Z</time>
      </trkpt>
      <trkpt lat="48.13064" lon="6.45683">
        <ele>438.98</ele>
        <time>2012-04-09T08:59:51Z</time>
      </trkpt>
      <trkpt lat="48.1307" lon="6.4569">
        <ele>438.5</ele>
        <time>2012-04-09T08:59:52Z</time>
      </trkpt>
      <trkpt lat="48.13075" lon="6.45697">
        <ele>438.02</ele>
        <time>2012-04-09T08:59:53Z</time>
      </trkpt>
      <trkpt lat="48.1308" lon="6.45705">
        <ele>438.02</ele>
        <time>2012-04-09T08:59:54Z</time>
      </trkpt>
      <trkpt lat="48.13084" lon="6.45713">
        <ele>438.02</ele>
        <time>2012-04-09T08:59:55Z</time>
      </trkpt>
      <trkpt lat="48.13119" lon="6.45771">
        <ele>435.61</ele>
        <time>2012-04-09T09:00:04Z</time>
      </trkpt>
      <trkpt lat="48.13123" lon="6.45776">
        <ele>435.13</ele>
        <time>2012-04-09T09:00:05Z</time>
      </trkpt>
      <trkpt lat="48.13172" lon="6.45814">
        <ele>435.61</ele>
        <time>2012-04-09T09:00:17Z</time>
      </trkpt>
      <trkpt lat="48.13186" lon="6.45847">
        <ele>438.02</ele>
        <time>2012-04-09T09:00:27Z</time>
      </trkpt>
      <trkpt lat="48.13185" lon="6.45852">
        <ele>435.13</ele>
        <time>2012-04-09T09:00:36Z</time>
      </trkpt>
      <trkpt lat="48.13184" lon="6.45849">
        <ele>430.81</ele>
        <time>2012-04-09T09:00:59Z</time>
      </trkpt>
      <trkpt lat="48.13182" lon="6.45854">
        <ele>430.33</ele>
        <time>2012-04-09T09:01:09Z</time>
      </trkpt>
      <trkpt lat="48.13182" lon="6.45855">
        <ele>430.81</ele>
        <time>2012-04-09T09:01:10Z</time>
      </trkpt>
      <trkpt lat="48.13181" lon="6.45857">
        <ele>431.29</ele>
        <time>2012-04-09T09:01:11Z</time>
      </trkpt>
      <trkpt lat="48.13181" lon="6.4586">
        <ele>432.25</ele>
        <time>2012-04-09T09:01:13Z</time>
      </trkpt>
      <trkpt lat="48.13185" lon="6.45865">
        <ele>431.77</ele>
        <time>2012-04-09T09:01:16Z</time>
      </trkpt>
      <trkpt lat="48.13187" lon="6.45866">
        <ele>431.29</ele>
        <time>2012-04-09T09:01:17Z</time>
      </trkpt>
      <trkpt lat="48.13189" lon="6.45868">
        <ele>430.81</ele>
        <time>2012-04-09T09:01:18Z</time>
      </trkpt>
      <trkpt lat="48.13191" lon="6.45868">
        <ele>430.81</ele>
        <time>2012-04-09T09:01:19Z</time>
      </trkpt>
      <trkpt lat="48.13193" lon="6.45869">
        <ele>430.33</ele>
        <time>2012-04-09T09:01:20Z</time>
      </trkpt>
      <trkpt lat="48.132" lon="6.45873">
        <ele>428.89</ele>
        <time>2012-04-09T09:01:24Z</time>
      </trkpt>
      <trkpt lat="48.13216" lon="6.45884">
        <ele>432.73</ele>
        <time>2012-04-09T09:01:36Z</time>
      </trkpt>
      <trkpt lat="48.13238" lon="6.45891">
        <ele>436.58</ele>
        <time>2012-04-09T09:01:50Z</time>
      </trkpt>
      <trkpt lat="48.13248" lon="6.45886">
        <ele>443.31</ele>
        <time>2012-04-09T09:02:03Z</time>
      </trkpt>
      <trkpt lat="48.1326" lon="6.45871">
        <ele>452.92</ele>
        <time>2012-04-09T09:02:16Z</time>
      </trkpt>
      <trkpt lat="48.13265" lon="6.45864">
        <ele>458.69</ele>
        <time>2012-04-09T09:02:24Z</time>
      </trkpt>
      <trkpt lat="48.13276" lon="6.45852">
        <ele>464.93</ele>
        <time>2012-04-09T09:02:38Z</time>
      </trkpt>
      <trkpt lat="48.1328" lon="6.45839">
        <ele>474.07</ele>
        <time>2012-04-09T09:02:50Z</time>
      </trkpt>
      <trkpt lat="48.13283" lon="6.45821">
        <ele>482.24</ele>
        <time>2012-04-09T09:03:02Z</time>
      </trkpt>
      <trkpt lat="48.13294" lon="6.45808">
        <ele>488.01</ele>
        <time>2012-04-09T09:03:14Z</time>
      </trkpt>
      <trkpt lat="48.13304" lon="6.45797">
        <ele>488.97</ele>
        <time>2012-04-09T09:03:24Z</time>
      </trkpt>
      <trkpt lat="48.13319" lon="6.45774">
        <ele>483.2</ele>
        <time>2012-04-09T09:03:38Z</time>
      </trkpt>
      <trkpt lat="48.13326" lon="6.45756">
        <ele>485.12</ele>
        <time>2012-04-09T09:03:50Z</time>
      </trkpt>
      <trkpt lat="48.13326" lon="6.45752">
        <ele>486.56</ele>
        <time>2012-04-09T09:03:52Z</time>
      </trkpt>
      <trkpt lat="48.13329" lon="6.45735">
        <ele>492.33</ele>
        <time>2012-04-09T09:04:02Z</time>
      </trkpt>
      <trkpt lat="48.13327" lon="6.45717">
        <ele>501.95</ele>
        <time>2012-04-09T09:04:15Z</time>
      </trkpt>
      <trkpt lat="48.13329" lon="6.45695">
        <ele>508.19</ele>
        <time>2012-04-09T09:04:28Z</time>
      </trkpt>
      <trkpt lat="48.13328" lon="6.45685">
        <ele>515.4</ele>
        <time>2012-04-09T09:04:37Z</time>
      </trkpt>
      <trkpt lat="48.13326" lon="6.45664">
        <ele>524.54</ele>
        <time>2012-04-09T09:04:52Z</time>
      </trkpt>
      <trkpt lat="48.13327" lon="6.45655">
        <ele>526.46</ele>
        <time>2012-04-09T09:04:57Z</time>
      </trkpt>
      <trkpt lat="48.13328" lon="6.45649">
        <ele>526.94</ele>
        <time>2012-04-09T09:05:00Z</time>
      </trkpt>
      <trkpt lat="48.13323" lon="6.45628">
        <ele>531.27</ele>
        <time>2012-04-09T09:05:13Z</time>
      </trkpt>
      <trkpt lat="48.13343" lon="6.45599">
        <ele>520.21</ele>
        <time>2012-04-09T09:05:29Z</time>
      </trkpt>
      <trkpt lat="48.1336" lon="6.4558">
        <ele>502.43</ele>
        <time>2012-04-09T09:05:54Z</time>
      </trkpt>
      <trkpt lat="48.13361" lon="6.45579">
        <ele>498.1</ele>
        <time>2012-04-09T09:06:19Z</time>
      </trkpt>
      <trkpt lat="48.13362" lon="6.45578">
        <ele>495.7</ele>
        <time>2012-04-09T09:06:42Z</time>
      </trkpt>
      <trkpt lat="48.13362" lon="6.45578">
        <ele>495.22</ele>
        <time>2012-04-09T09:06:49Z</time>
      </trkpt>
      <trkpt lat="48.13362" lon="6.45581">
        <ele>491.37</ele>
        <time>2012-04-09T09:07:05Z</time>
      </trkpt>
      <trkpt lat="48.13363" lon="6.45583">
        <ele>487.05</ele>
        <time>2012-04-09T09:07:32Z</time>
      </trkpt>
      <trkpt lat="48.13362" lon="6.45582">
        <ele>485.6</ele>
        <time>2012-04-09T09:08:02Z</time>
      </trkpt>
      <trkpt lat="48.13362" lon="6.45583">
        <ele>485.12</ele>
        <time>2012-04-09T09:08:25Z</time>
      </trkpt>
      <trkpt lat="48.13362" lon="6.45585">
        <ele>484.64</ele>
        <time>2012-04-09T09:08:46Z</time>
      </trkpt>
      <trkpt lat="48.13362" lon="6.45585">
        <ele>485.12</ele>
        <time>2012-04-09T09:08:49Z</time>
      </trkpt>
      <trkpt lat="48.13356" lon="6.4558">
        <ele>484.64</ele>
        <time>2012-04-09T09:08:54Z</time>
      </trkpt>
      <trkpt lat="48.13345" lon="6.45569">
        <ele>487.05</ele>
        <time>2012-04-09T09:09:04Z</time>
      </trkpt>
      <trkpt lat="48.13329" lon="6.45555">
        <ele>488.97</ele>
        <time>2012-04-09T09:09:16Z</time>
      </trkpt>
      <trkpt lat="48.1331" lon="6.45536">
        <ele>492.33</ele>
        <time>2012-04-09T09:09:26Z</time>
      </trkpt>
      <trkpt lat="48.13306" lon="6.45534">
        <ele>492.81</ele>
        <time>2012-04-09T09:09:28Z</time>
      </trkpt>
      <trkpt lat="48.13278" lon="6.455">
        <ele>495.22</ele>
        <time>2012-04-09T09:09:40Z</time>
      </trkpt>
      <trkpt lat="48.13249" lon="6.45469">
        <ele>495.22</ele>
        <time>2012-04-09T09:09:51Z</time>
      </trkpt>
      <trkpt lat="48.13223" lon="6.45446">
        <ele>494.74</ele>
        <time>2012-04-09T09:10:01Z</time>
      </trkpt>
      <trkpt lat="48.13221" lon="6.45435">
        <ele>496.18</ele>
        <time>2012-04-09T09:10:05Z</time>
      </trkpt>
      <trkpt lat="48.13221" lon="6.45404">
        <ele>500.5</ele>
        <time>2012-04-09T09:10:14Z</time>
      </trkpt>
      <trkpt lat="48.13219" lon="6.4539">
        <ele>503.87</ele>
        <time>2012-04-09T09:10:21Z</time>
      </trkpt>
      <trkpt lat="48.13221" lon="6.4538">
        <ele>505.79</ele>
        <time>2012-04-09T09:10:31Z</time>
      </trkpt>
      <trkpt lat="48.13223" lon="6.45374">
        <ele>506.75</ele>
        <time>2012-04-09T09:10:35Z</time>
      </trkpt>
      <trkpt lat="48.13221" lon="6.45358">
        <ele>511.08</ele>
        <time>2012-04-09T09:10:46Z</time>
      </trkpt>
      <trkpt lat="48.13224" lon="6.45349">
        <ele>513</ele>
        <time>2012-04-09T09:11:01Z</time>
      </trkpt>
      <trkpt lat="48.13205" lon="6.45323">
        <ele>516.85</ele>
        <time>2012-04-09T09:11:13Z</time>
      </trkpt>
      <trkpt lat="48.13175" lon="6.45289">
        <ele>517.81</ele>
        <time>2012-04-09T09:11:24Z</time>
      </trkpt>
      <trkpt lat="48.13138" lon="6.45238">
        <ele>504.83</ele>
        <time>2012-04-09T09:11:37Z</time>
      </trkpt>
      <trkpt lat="48.1313" lon="6.45236">
        <ele>501.95</ele>
        <time>2012-04-09T09:11:39Z</time>
      </trkpt>
      <trkpt lat="48.13075" lon="6.45253">
        <ele>494.74</ele>
        <time>2012-04-09T09:11:50Z</time>
      </trkpt>
      <trkpt lat="48.1307" lon="6.45253">
        <ele>494.74</ele>
        <time>2012-04-09T09:11:51Z</time>
      </trkpt>
      <trkpt lat="48.13064" lon="6.45252">
        <ele>494.26</ele>
        <time>2012-04-09T09:11:52Z</time>
      </trkpt>
      <trkpt lat="48.13032" lon="6.45237">
        <ele>494.26</ele>
        <time>2012-04-09T09:11:58Z</time>
      </trkpt>
      <trkpt lat="48.12993" lon="6.45202">
        <ele>495.22</ele>
        <time>2012-04-09T09:12:07Z</time>
      </trkpt>
      <trkpt lat="48.1299" lon="6.45197">
        <ele>495.7</ele>
        <time>2012-04-09T09:12:08Z</time>
      </trkpt>
      <trkpt lat="48.12987" lon="6.45192">
        <ele>495.7</ele>
        <time>2012-04-09T09:12:09Z</time>
      </trkpt>
      <trkpt lat="48.12984" lon="6.45188">
        <ele>495.7</ele>
        <time>2012-04-09T09:12:10Z</time>
      </trkpt>
      <trkpt lat="48.1298" lon="6.45184">
        <ele>495.7</ele>
        <time>2012-04-09T09:12:11Z</time>
      </trkpt>
      <trkpt lat="48.12977" lon="6.45179">
        <ele>496.18</ele>
        <time>2012-04-09T09:12:12Z</time>
      </trkpt>
      <trkpt lat="48.12974" lon="6.45175">
        <ele>496.18</ele>
        <time>2012-04-09T09:12:13Z</time>
      </trkpt>
      <trkpt lat="48.12941" lon="6.45139">
        <ele>498.1</ele>
        <time>2012-04-09T09:12:22Z</time>
      </trkpt>
      <trkpt lat="48.12937" lon="6.45135">
        <ele>498.1</ele>
        <time>2012-04-09T09:12:23Z</time>
      </trkpt>
      <trkpt lat="48.12932" lon="6.45132">
        <ele>498.1</ele>
        <time>2012-04-09T09:12:24Z</time>
      </trkpt>
      <trkpt lat="48.1289" lon="6.45099">
        <ele>497.62</ele>
        <time>2012-04-09T09:12:34Z</time>
      </trkpt>
      <trkpt lat="48.12885" lon="6.45096">
        <ele>497.62</ele>
        <time>2012-04-09T09:12:35Z</time>
      </trkpt>
      <trkpt lat="48.12882" lon="6.45091">
        <ele>497.62</ele>
        <time>2012-04-09T09:12:36Z</time>
      </trkpt>
      <trkpt lat="48.12879" lon="6.45084">
        <ele>497.62</ele>
        <time>2012-04-09T09:12:37Z</time>
      </trkpt>
      <trkpt lat="48.12877" lon="6.45076">
        <ele>497.62</ele>
        <time>2012-04-09T09:12:38Z</time>
      </trkpt>
      <trkpt lat="48.12876" lon="6.45067">
        <ele>497.62</ele>
        <time>2012-04-09T09:12:39Z</time>
      </trkpt>
      <trkpt lat="48.12865" lon="6.45018">
        <ele>496.18</ele>
        <time>2012-04-09T09:12:43Z</time>
      </trkpt>
      <trkpt lat="48.1286" lon="6.45005">
        <ele>496.18</ele>
        <time>2012-04-09T09:12:44Z</time>
      </trkpt>
      <trkpt lat="48.12833" lon="6.44942">
        <ele>495.7</ele>
        <time>2012-04-09T09:12:49Z</time>
      </trkpt>
      <trkpt lat="48.1283" lon="6.44931">
        <ele>495.7</ele>
        <time>2012-04-09T09:12:50Z</time>
      </trkpt>
      <trkpt lat="48.12829" lon="6.4492">
        <ele>495.22</ele>
        <time>2012-04-09T09:12:51Z</time>
      </trkpt>
      <trkpt lat="48.1283" lon="6.44911">
        <ele>495.22</ele>
        <time>2012-04-09T09:12:52Z</time>
      </trkpt>
      <trkpt lat="48.12832" lon="6.44903">
        <ele>495.22</ele>
        <time>2012-04-09T09:12:53Z</time>
      </trkpt>
      <trkpt lat="48.12835" lon="6.44895">
        <ele>495.7</ele>
        <time>2012-04-09T09:12:54Z</time>
      </trkpt>
      <trkpt lat="48.12839" lon="6.44889">
        <ele>495.7</ele>
        <time>2012-04-09T09:12:55Z</time>
      </trkpt>
      <trkpt lat="48.12843" lon="6.44884">
        <ele>496.18</ele>
        <time>2012-04-09T09:12:56Z</time>
      </trkpt>
      <trkpt lat="48.12847" lon="6.44878">
        <ele>496.66</ele>
        <time>2012-04-09T09:12:57Z</time>
      </trkpt>
      <trkpt lat="48.12867" lon="6.44851">
        <ele>498.1</ele>
        <time>2012-04-09T09:13:01Z</time>
      </trkpt>
      <trkpt lat="48.12919" lon="6.44804">
        <ele>495.22</ele>
        <time>2012-04-09T09:13:08Z</time>
      </trkpt>
      <trkpt lat="48.1293" lon="6.44789">
        <ele>492.81</ele>
        <time>2012-04-09T09:13:10Z</time>
      </trkpt>
      <trkpt lat="48.12935" lon="6.44783">
        <ele>491.85</ele>
        <time>2012-04-09T09:13:11Z</time>
      </trkpt>
      <trkpt lat="48.12943" lon="6.44774">
        <ele>489.45</ele>
        <time>2012-04-09T09:13:13Z</time>
      </trkpt>
      <trkpt lat="48.12945" lon="6.44767">
        <ele>487.53</ele>
        <time>2012-04-09T09:13:14Z</time>
      </trkpt>
      <trkpt lat="48.1295" lon="6.44751">
        <ele>484.64</ele>
        <time>2012-04-09T09:13:16Z</time>
      </trkpt>
      <trkpt lat="48.12952" lon="6.4474">
        <ele>482.72</ele>
        <time>2012-04-09T09:13:17Z</time>
      </trkpt>
      <trkpt lat="48.12955" lon="6.44717">
        <ele>478.39</ele>
        <time>2012-04-09T09:13:19Z</time>
      </trkpt>
      <trkpt lat="48.12955" lon="6.44706">
        <ele>476.47</ele>
        <time>2012-04-09T09:13:20Z</time>
      </trkpt>
      <trkpt lat="48.12952" lon="6.44695">
        <ele>474.55</ele>
        <time>2012-04-09T09:13:21Z</time>
      </trkpt>
      <trkpt lat="48.1295" lon="6.44684">
        <ele>472.63</ele>
        <time>2012-04-09T09:13:22Z</time>
      </trkpt>
      <trkpt lat="48.12947" lon="6.44671">
        <ele>471.18</ele>
        <time>2012-04-09T09:13:23Z</time>
      </trkpt>
      <trkpt lat="48.12942" lon="6.44641">
        <ele>468.3</ele>
        <time>2012-04-09T09:13:25Z</time>
      </trkpt>
      <trkpt lat="48.12942" lon="6.44587">
        <ele>461.57</ele>
        <time>2012-04-09T09:13:28Z</time>
      </trkpt>
      <trkpt lat="48.12945" lon="6.44521">
        <ele>457.72</ele>
        <time>2012-04-09T09:13:32Z</time>
      </trkpt>
      <trkpt lat="48.12958" lon="6.44472">
        <ele>448.11</ele>
        <time>2012-04-09T09:13:36Z</time>
      </trkpt>
      <trkpt lat="48.1296" lon="6.44449">
        <ele>444.75</ele>
        <time>2012-04-09T09:13:38Z</time>
      </trkpt>
      <trkpt lat="48.12958" lon="6.44438">
        <ele>444.27</ele>
        <time>2012-04-09T09:13:39Z</time>
      </trkpt>
      <trkpt lat="48.12956" lon="6.44431">
        <ele>443.31</ele>
        <time>2012-04-09T09:13:40Z</time>
      </trkpt>
      <trkpt lat="48.1295" lon="6.44405">
        <ele>438.5</ele>
        <time>2012-04-09T09:13:47Z</time>
      </trkpt>
      <trkpt lat="48.12932" lon="6.44358">
        <ele>433.69</ele>
        <time>2012-04-09T09:14:00Z</time>
      </trkpt>
      <trkpt lat="48.12929" lon="6.4435">
        <ele>433.21</ele>
        <time>2012-04-09T09:14:03Z</time>
      </trkpt>
      <trkpt lat="48.12929" lon="6.44347">
        <ele>433.21</ele>
        <time>2012-04-09T09:14:04Z</time>
      </trkpt>
      <trkpt lat="48.1293" lon="6.44342">
        <ele>432.73</ele>
        <time>2012-04-09T09:14:05Z</time>
      </trkpt>
      <trkpt lat="48.12958" lon="6.44307">
        <ele>431.29</ele>
        <time>2012-04-09T09:14:16Z</time>
      </trkpt>
      <trkpt lat="48.13015" lon="6.44282">
        <ele>426.96</ele>
        <time>2012-04-09T09:14:30Z</time>
      </trkpt>
      <trkpt lat="48.13055" lon="6.44264">
        <ele>428.4</ele>
        <time>2012-04-09T09:14:41Z</time>
      </trkpt>
      <trkpt lat="48.13104" lon="6.44263">
        <ele>428.4</ele>
        <time>2012-04-09T09:14:54Z</time>
      </trkpt>
      <trkpt lat="48.13144" lon="6.44262">
        <ele>428.4</ele>
        <time>2012-04-09T09:15:05Z</time>
      </trkpt>
      <trkpt lat="48.13173" lon="6.44242">
        <ele>429.37</ele>
        <time>2012-04-09T09:15:16Z</time>
      </trkpt>
      <trkpt lat="48.13208" lon="6.44235">
        <ele>426.96</ele>
        <time>2012-04-09T09:15:27Z</time>
      </trkpt>
      <trkpt lat="48.13279" lon="6.44244">
        <ele>424.56</ele>
        <time>2012-04-09T09:15:39Z</time>
      </trkpt>
      <trkpt lat="48.13286" lon="6.44243">
        <ele>424.56</ele>
        <time>2012-04-09T09:15:40Z</time>
      </trkpt>
      <trkpt lat="48.13293" lon="6.4424">
        <ele>424.56</ele>
        <time>2012-04-09T09:15:41Z</time>
      </trkpt>
      <trkpt lat="48.13307" lon="6.44235">
        <ele>423.6</ele>
        <time>2012-04-09T09:15:43Z</time>
      </trkpt>
      <trkpt lat="48.13355" lon="6.44227">
        <ele>420.23</ele>
        <time>2012-04-09T09:15:50Z</time>
      </trkpt>
      <trkpt lat="48.13364" lon="6.44229">
        <ele>419.27</ele>
        <time>2012-04-09T09:15:51Z</time>
      </trkpt>
      <trkpt lat="48.13394" lon="6.4424">
        <ele>416.87</ele>
        <time>2012-04-09T09:15:54Z</time>
      </trkpt>
      <trkpt lat="48.13404" lon="6.44245">
        <ele>415.91</ele>
        <time>2012-04-09T09:15:55Z</time>
      </trkpt>
      <trkpt lat="48.13446" lon="6.44268">
        <ele>412.06</ele>
        <time>2012-04-09T09:15:59Z</time>
      </trkpt>
      <trkpt lat="48.13456" lon="6.44276">
        <ele>411.58</ele>
        <time>2012-04-09T09:16:00Z</time>
      </trkpt>
      <trkpt lat="48.13552" lon="6.44373">
        <ele>399.57</ele>
        <time>2012-04-09T09:16:09Z</time>
      </trkpt>
      <trkpt lat="48.13565" lon="6.4438">
        <ele>398.12</ele>
        <time>2012-04-09T09:16:10Z</time>
      </trkpt>
      <trkpt lat="48.13577" lon="6.44383">
        <ele>396.68</ele>
        <time>2012-04-09T09:16:11Z</time>
      </trkpt>
      <trkpt lat="48.1359" lon="6.44383">
        <ele>396.2</ele>
        <time>2012-04-09T09:16:12Z</time>
      </trkpt>
      <trkpt lat="48.13602" lon="6.44383">
        <ele>395.24</ele>
        <time>2012-04-09T09:16:13Z</time>
      </trkpt>
      <trkpt lat="48.13614" lon="6.44384">
        <ele>394.76</ele>
        <time>2012-04-09T09:16:14Z</time>
      </trkpt>
      <trkpt lat="48.13625" lon="6.44387">
        <ele>393.8</ele>
        <time>2012-04-09T09:16:15Z</time>
      </trkpt>
      <trkpt lat="48.1366" lon="6.44406">
        <ele>392.36</ele>
        <time>2012-04-09T09:16:19Z</time>
      </trkpt>
      <trkpt lat="48.13667" lon="6.44412">
        <ele>392.36</ele>
        <time>2012-04-09T09:16:20Z</time>
      </trkpt>
      <trkpt lat="48.13718" lon="6.44469">
        <ele>393.8</ele>
        <time>2012-04-09T09:16:31Z</time>
      </trkpt>
      <trkpt lat="48.13723" lon="6.44472">
        <ele>393.8</ele>
        <time>2012-04-09T09:16:32Z</time>
      </trkpt>
      <trkpt lat="48.13741" lon="6.44483">
        <ele>394.28</ele>
        <time>2012-04-09T09:16:36Z</time>
      </trkpt>
      <trkpt lat="48.13746" lon="6.44484">
        <ele>394.28</ele>
        <time>2012-04-09T09:16:37Z</time>
      </trkpt>
      <trkpt lat="48.1375" lon="6.44485">
        <ele>394.28</ele>
        <time>2012-04-09T09:16:38Z</time>
      </trkpt>
      <trkpt lat="48.13755" lon="6.44484">
        <ele>394.28</ele>
        <time>2012-04-09T09:16:39Z</time>
      </trkpt>
      <trkpt lat="48.13758" lon="6.44483">
        <ele>394.28</ele>
        <time>2012-04-09T09:16:40Z</time>
      </trkpt>
      <trkpt lat="48.13762" lon="6.44481">
        <ele>393.8</ele>
        <time>2012-04-09T09:16:41Z</time>
      </trkpt>
      <trkpt lat="48.13765" lon="6.44481">
        <ele>393.8</ele>
        <time>2012-04-09T09:16:42Z</time>
      </trkpt>
      <trkpt lat="48.13768" lon="6.44483">
        <ele>393.8</ele>
        <time>2012-04-09T09:16:43Z</time>
      </trkpt>
      <trkpt lat="48.1377" lon="6.44485">
        <ele>393.8</ele>
        <time>2012-04-09T09:16:44Z</time>
      </trkpt>
      <trkpt lat="48.13773" lon="6.44487">
        <ele>393.32</ele>
        <time>2012-04-09T09:16:45Z</time>
      </trkpt>
      <trkpt lat="48.13777" lon="6.44489">
        <ele>393.32</ele>
        <time>2012-04-09T09:16:46Z</time>
      </trkpt>
      <trkpt lat="48.13781" lon="6.4449">
        <ele>393.32</ele>
        <time>2012-04-09T09:16:47Z</time>
      </trkpt>
      <trkpt lat="48.13825" lon="6.44496">
        <ele>392.36</ele>
        <time>2012-04-09T09:16:56Z</time>
      </trkpt>
      <trkpt lat="48.13831" lon="6.44493">
        <ele>392.36</ele>
        <time>2012-04-09T09:16:57Z</time>
      </trkpt>
      <trkpt lat="48.13836" lon="6.4449">
        <ele>392.36</ele>
        <time>2012-04-09T09:16:58Z</time>
      </trkpt>
      <trkpt lat="48.1385" lon="6.44478">
        <ele>391.87</ele>
        <time>2012-04-09T09:17:01Z</time>
      </trkpt>
      <trkpt lat="48.13854" lon="6.44477">
        <ele>391.87</ele>
        <time>2012-04-09T09:17:02Z</time>
      </trkpt>
      <trkpt lat="48.13859" lon="6.44478">
        <ele>391.87</ele>
        <time>2012-04-09T09:17:03Z</time>
      </trkpt>
      <trkpt lat="48.13863" lon="6.44481">
        <ele>392.36</ele>
        <time>2012-04-09T09:17:04Z</time>
      </trkpt>
      <trkpt lat="48.13867" lon="6.44485">
        <ele>392.36</ele>
        <time>2012-04-09T09:17:05Z</time>
      </trkpt>
      <trkpt lat="48.13922" lon="6.44538">
        <ele>395.24</ele>
        <time>2012-04-09T09:17:20Z</time>
      </trkpt>
      <trkpt lat="48.13933" lon="6.44551">
        <ele>395.72</ele>
        <time>2012-04-09T09:17:23Z</time>
      </trkpt>
      <trkpt lat="48.13977" lon="6.44619">
        <ele>400.05</ele>
        <time>2012-04-09T09:17:38Z</time>
      </trkpt>
      <trkpt lat="48.1399" lon="6.44639">
        <ele>401.01</ele>
        <time>2012-04-09T09:17:42Z</time>
      </trkpt>
      <trkpt lat="48.14028" lon="6.44723">
        <ele>403.89</ele>
        <time>2012-04-09T09:17:58Z</time>
      </trkpt>
      <trkpt lat="48.14085" lon="6.44817">
        <ele>404.85</ele>
        <time>2012-04-09T09:18:17Z</time>
      </trkpt>
      <trkpt lat="48.14147" lon="6.44882">
        <ele>406.29</ele>
        <time>2012-04-09T09:18:33Z</time>
      </trkpt>
      <trkpt lat="48.14218" lon="6.44908">
        <ele>406.29</ele>
        <time>2012-04-09T09:18:46Z</time>
      </trkpt>
      <trkpt lat="48.14297" lon="6.44907">
        <ele>406.29</ele>
        <time>2012-04-09T09:18:58Z</time>
      </trkpt>
      <trkpt lat="48.14374" lon="6.44937">
        <ele>406.77</ele>
        <time>2012-04-09T09:19:11Z</time>
      </trkpt>
      <trkpt lat="48.14415" lon="6.44946">
        <ele>407.26</ele>
        <time>2012-04-09T09:19:19Z</time>
      </trkpt>
      <trkpt lat="48.14439" lon="6.44941">
        <ele>405.81</ele>
        <time>2012-04-09T09:19:23Z</time>
      </trkpt>
      <trkpt lat="48.14446" lon="6.44939">
        <ele>404.85</ele>
        <time>2012-04-09T09:19:24Z</time>
      </trkpt>
      <trkpt lat="48.14531" lon="6.44919">
        <ele>392.36</ele>
        <time>2012-04-09T09:19:35Z</time>
      </trkpt>
      <trkpt lat="48.14538" lon="6.44919">
        <ele>390.91</ele>
        <time>2012-04-09T09:19:36Z</time>
      </trkpt>
      <trkpt lat="48.14543" lon="6.44918">
        <ele>389.95</ele>
        <time>2012-04-09T09:19:37Z</time>
      </trkpt>
      <trkpt lat="48.14547" lon="6.44915">
        <ele>388.99</ele>
        <time>2012-04-09T09:19:38Z</time>
      </trkpt>
      <trkpt lat="48.14551" lon="6.44912">
        <ele>388.03</ele>
        <time>2012-04-09T09:19:39Z</time>
      </trkpt>
      <trkpt lat="48.14553" lon="6.44909">
        <ele>387.07</ele>
        <time>2012-04-09T09:19:40Z</time>
      </trkpt>
      <trkpt lat="48.14554" lon="6.44905">
        <ele>385.63</ele>
        <time>2012-04-09T09:19:41Z</time>
      </trkpt>
      <trkpt lat="48.14554" lon="6.449">
        <ele>384.66</ele>
        <time>2012-04-09T09:19:42Z</time>
      </trkpt>
      <trkpt lat="48.14551" lon="6.44897">
        <ele>383.7</ele>
        <time>2012-04-09T09:19:43Z</time>
      </trkpt>
      <trkpt lat="48.14548" lon="6.44894">
        <ele>382.74</ele>
        <time>2012-04-09T09:19:44Z</time>
      </trkpt>
      <trkpt lat="48.14533" lon="6.44877">
        <ele>381.3</ele>
        <time>2012-04-09T09:19:48Z</time>
      </trkpt>
      <trkpt lat="48.1452" lon="6.44856">
        <ele>379.86</ele>
        <time>2012-04-09T09:19:52Z</time>
      </trkpt>
      <trkpt lat="48.14517" lon="6.4485">
        <ele>379.38</ele>
        <time>2012-04-09T09:19:53Z</time>
      </trkpt>
      <trkpt lat="48.14522" lon="6.44809">
        <ele>380.82</ele>
        <time>2012-04-09T09:20:00Z</time>
      </trkpt>
      <trkpt lat="48.14534" lon="6.44796">
        <ele>382.26</ele>
        <time>2012-04-09T09:20:03Z</time>
      </trkpt>
      <trkpt lat="48.14543" lon="6.44736">
        <ele>387.55</ele>
        <time>2012-04-09T09:20:12Z</time>
      </trkpt>
      <trkpt lat="48.14541" lon="6.44699">
        <ele>389.47</ele>
        <time>2012-04-09T09:20:17Z</time>
      </trkpt>
      <trkpt lat="48.14545" lon="6.44671">
        <ele>392.36</ele>
        <time>2012-04-09T09:20:21Z</time>
      </trkpt>
      <trkpt lat="48.14548" lon="6.44665">
        <ele>393.32</ele>
        <time>2012-04-09T09:20:22Z</time>
      </trkpt>
      <trkpt lat="48.14549" lon="6.44661">
        <ele>393.8</ele>
        <time>2012-04-09T09:20:23Z</time>
      </trkpt>
      <trkpt lat="48.14551" lon="6.44656">
        <ele>394.28</ele>
        <time>2012-04-09T09:20:24Z</time>
      </trkpt>
      <trkpt lat="48.14554" lon="6.44652">
        <ele>394.76</ele>
        <time>2012-04-09T09:20:25Z</time>
      </trkpt>
      <trkpt lat="48.14557" lon="6.44647">
        <ele>395.72</ele>
        <time>2012-04-09T09:20:26Z</time>
      </trkpt>
      <trkpt lat="48.1456" lon="6.44642">
        <ele>396.2</ele>
        <time>2012-04-09T09:20:27Z</time>
      </trkpt>
      <trkpt lat="48.14563" lon="6.44637">
        <ele>396.68</ele>
        <time>2012-04-09T09:20:28Z</time>
      </trkpt>
      <trkpt lat="48.14566" lon="6.4463">
        <ele>397.16</ele>
        <time>2012-04-09T09:20:29Z</time>
      </trkpt>
      <trkpt lat="48.14568" lon="6.44624">
        <ele>397.64</ele>
        <time>2012-04-09T09:20:30Z</time>
      </trkpt>
      <trkpt lat="48.1457" lon="6.44618">
        <ele>398.12</ele>
        <time>2012-04-09T09:20:31Z</time>
      </trkpt>
      <trkpt lat="48.14571" lon="6.44611">
        <ele>398.6</ele>
        <time>2012-04-09T09:20:32Z</time>
      </trkpt>
      <trkpt lat="48.14572" lon="6.44603">
        <ele>399.08</ele>
        <time>2012-04-09T09:20:33Z</time>
      </trkpt>
      <trkpt lat="48.14571" lon="6.4459">
        <ele>400.05</ele>
        <time>2012-04-09T09:20:35Z</time>
      </trkpt>
      <trkpt lat="48.14569" lon="6.44584">
        <ele>400.53</ele>
        <time>2012-04-09T09:20:36Z</time>
      </trkpt>
      <trkpt lat="48.14566" lon="6.44569">
        <ele>399.57</ele>
        <time>2012-04-09T09:20:38Z</time>
      </trkpt>
      <trkpt lat="48.14565" lon="6.44562">
        <ele>398.6</ele>
        <time>2012-04-09T09:20:39Z</time>
      </trkpt>
      <trkpt lat="48.14543" lon="6.44501">
        <ele>394.28</ele>
        <time>2012-04-09T09:20:49Z</time>
      </trkpt>
      <trkpt lat="48.14525" lon="6.44472">
        <ele>393.8</ele>
        <time>2012-04-09T09:20:55Z</time>
      </trkpt>
      <trkpt lat="48.14523" lon="6.44467">
        <ele>393.8</ele>
        <time>2012-04-09T09:20:56Z</time>
      </trkpt>
      <trkpt lat="48.14522" lon="6.44461">
        <ele>393.32</ele>
        <time>2012-04-09T09:20:57Z</time>
      </trkpt>
      <trkpt lat="48.14521" lon="6.44456">
        <ele>393.32</ele>
        <time>2012-04-09T09:20:58Z</time>
      </trkpt>
      <trkpt lat="48.14522" lon="6.44449">
        <ele>393.32</ele>
        <time>2012-04-09T09:20:59Z</time>
      </trkpt>
      <trkpt lat="48.14523" lon="6.44443">
        <ele>392.84</ele>
        <time>2012-04-09T09:21:00Z</time>
      </trkpt>
      <trkpt lat="48.14524" lon="6.44436">
        <ele>392.84</ele>
        <time>2012-04-09T09:21:01Z</time>
      </trkpt>
      <trkpt lat="48.14541" lon="6.44363">
        <ele>392.36</ele>
        <time>2012-04-09T09:21:12Z</time>
      </trkpt>
      <trkpt lat="48.14546" lon="6.44349">
        <ele>392.36</ele>
        <time>2012-04-09T09:21:14Z</time>
      </trkpt>
      <trkpt lat="48.14549" lon="6.44336">
        <ele>392.36</ele>
        <time>2012-04-09T09:21:16Z</time>
      </trkpt>
      <trkpt lat="48.14561" lon="6.44287">
        <ele>392.36</ele>
        <time>2012-04-09T09:21:23Z</time>
      </trkpt>
      <trkpt lat="48.14561" lon="6.44281">
        <ele>392.36</ele>
        <time>2012-04-09T09:21:24Z</time>
      </trkpt>
      <trkpt lat="48.14564" lon="6.44218">
        <ele>390.91</ele>
        <time>2012-04-09T09:21:33Z</time>
      </trkpt>
      <trkpt lat="48.14564" lon="6.4421">
        <ele>390.91</ele>
        <time>2012-04-09T09:21:34Z</time>
      </trkpt>
      <trkpt lat="48.1456" lon="6.44148">
        <ele>389.95</ele>
        <time>2012-04-09T09:21:43Z</time>
      </trkpt>
      <trkpt lat="48.14561" lon="6.44138">
        <ele>389.95</ele>
        <time>2012-04-09T09:21:45Z</time>
      </trkpt>
      <trkpt lat="48.1456" lon="6.44132">
        <ele>389.95</ele>
        <time>2012-04-09T09:21:46Z</time>
      </trkpt>
      <trkpt lat="48.14561" lon="6.44127">
        <ele>390.43</ele>
        <time>2012-04-09T09:21:47Z</time>
      </trkpt>
      <trkpt lat="48.14562" lon="6.44121">
        <ele>390.43</ele>
        <time>2012-04-09T09:21:48Z</time>
      </trkpt>
      <trkpt lat="48.14563" lon="6.44115">
        <ele>390.43</ele>
        <time>2012-04-09T09:21:49Z</time>
      </trkpt>
      <trkpt lat="48.14565" lon="6.44109">
        <ele>389.95</ele>
        <time>2012-04-09T09:21:50Z</time>
      </trkpt>
      <trkpt lat="48.14568" lon="6.44096">
        <ele>389.95</ele>
        <time>2012-04-09T09:21:52Z</time>
      </trkpt>
      <trkpt lat="48.14569" lon="6.44089">
        <ele>389.95</ele>
        <time>2012-04-09T09:21:53Z</time>
      </trkpt>
      <trkpt lat="48.14569" lon="6.44082">
        <ele>389.95</ele>
        <time>2012-04-09T09:21:54Z</time>
      </trkpt>
      <trkpt lat="48.14569" lon="6.44075">
        <ele>389.47</ele>
        <time>2012-04-09T09:21:55Z</time>
      </trkpt>
      <trkpt lat="48.14568" lon="6.44068">
        <ele>388.99</ele>
        <time>2012-04-09T09:21:56Z</time>
      </trkpt>
      <trkpt lat="48.14567" lon="6.4406">
        <ele>388.99</ele>
        <time>2012-04-09T09:21:57Z</time>
      </trkpt>
      <trkpt lat="48.14565" lon="6.44054">
        <ele>388.99</ele>
        <time>2012-04-09T09:21:58Z</time>
      </trkpt>
      <trkpt lat="48.14563" lon="6.44047">
        <ele>388.51</ele>
        <time>2012-04-09T09:21:59Z</time>
      </trkpt>
      <trkpt lat="48.1456" lon="6.44041">
        <ele>388.51</ele>
        <time>2012-04-09T09:22:00Z</time>
      </trkpt>
      <trkpt lat="48.14558" lon="6.44035">
        <ele>388.51</ele>
        <time>2012-04-09T09:22:01Z</time>
      </trkpt>
      <trkpt lat="48.14536" lon="6.43983">
        <ele>387.07</ele>
        <time>2012-04-09T09:22:09Z</time>
      </trkpt>
      <trkpt lat="48.14532" lon="6.43979">
        <ele>387.07</ele>
        <time>2012-04-09T09:22:10Z</time>
      </trkpt>
      <trkpt lat="48.14527" lon="6.43975">
        <ele>386.59</ele>
        <time>2012-04-09T09:22:11Z</time>
      </trkpt>
      <trkpt lat="48.14523" lon="6.43972">
        <ele>386.59</ele>
        <time>2012-04-09T09:22:12Z</time>
      </trkpt>
      <trkpt lat="48.14518" lon="6.43971">
        <ele>386.59</ele>
        <time>2012-04-09T09:22:13Z</time>
      </trkpt>
      <trkpt lat="48.14514" lon="6.43971">
        <ele>386.11</ele>
        <time>2012-04-09T09:22:14Z</time>
      </trkpt>
      <trkpt lat="48.1451" lon="6.43971">
        <ele>385.63</ele>
        <time>2012-04-09T09:22:15Z</time>
      </trkpt>
      <trkpt lat="48.14495" lon="6.43972">
        <ele>385.15</ele>
        <time>2012-04-09T09:22:19Z</time>
      </trkpt>
      <trkpt lat="48.14474" lon="6.43975">
        <ele>385.63</ele>
        <time>2012-04-09T09:22:23Z</time>
      </trkpt>
      <trkpt lat="48.14469" lon="6.43973">
        <ele>385.63</ele>
        <time>2012-04-09T09:22:24Z</time>
      </trkpt>
      <trkpt lat="48.14458" lon="6.43968">
        <ele>385.63</ele>
        <time>2012-04-09T09:22:26Z</time>
      </trkpt>
      <trkpt lat="48.14454" lon="6.43963">
        <ele>386.11</ele>
        <time>2012-04-09T09:22:27Z</time>
      </trkpt>
      <trkpt lat="48.14443" lon="6.43944">
        <ele>387.07</ele>
        <time>2012-04-09T09:22:30Z</time>
      </trkpt>
      <trkpt lat="48.14431" lon="6.43911">
        <ele>388.99</ele>
        <time>2012-04-09T09:22:37Z</time>
      </trkpt>
      <trkpt lat="48.14433" lon="6.43894">
        <ele>391.39</ele>
        <time>2012-04-09T09:22:40Z</time>
      </trkpt>
      <trkpt lat="48.14437" lon="6.43876">
        <ele>393.32</ele>
        <time>2012-04-09T09:22:43Z</time>
      </trkpt>
      <trkpt lat="48.14441" lon="6.43871">
        <ele>393.32</ele>
        <time>2012-04-09T09:22:44Z</time>
      </trkpt>
      <trkpt lat="48.14445" lon="6.43865">
        <ele>393.8</ele>
        <time>2012-04-09T09:22:45Z</time>
      </trkpt>
      <trkpt lat="48.14449" lon="6.4386">
        <ele>394.28</ele>
        <time>2012-04-09T09:22:46Z</time>
      </trkpt>
      <trkpt lat="48.14455" lon="6.43856">
        <ele>394.76</ele>
        <time>2012-04-09T09:22:47Z</time>
      </trkpt>
      <trkpt lat="48.14521" lon="6.43801">
        <ele>399.08</ele>
        <time>2012-04-09T09:23:00Z</time>
      </trkpt>
      <trkpt lat="48.14526" lon="6.43797">
        <ele>399.57</ele>
        <time>2012-04-09T09:23:01Z</time>
      </trkpt>
      <trkpt lat="48.14534" lon="6.43788">
        <ele>400.05</ele>
        <time>2012-04-09T09:23:03Z</time>
      </trkpt>
      <trkpt lat="48.14537" lon="6.43783">
        <ele>400.53</ele>
        <time>2012-04-09T09:23:04Z</time>
      </trkpt>
      <trkpt lat="48.1454" lon="6.43778">
        <ele>401.01</ele>
        <time>2012-04-09T09:23:05Z</time>
      </trkpt>
      <trkpt lat="48.14542" lon="6.43771">
        <ele>401.49</ele>
        <time>2012-04-09T09:23:06Z</time>
      </trkpt>
      <trkpt lat="48.14544" lon="6.43765">
        <ele>401.49</ele>
        <time>2012-04-09T09:23:07Z</time>
      </trkpt>
      <trkpt lat="48.14546" lon="6.43758">
        <ele>401.49</ele>
        <time>2012-04-09T09:23:08Z</time>
      </trkpt>
      <trkpt lat="48.14547" lon="6.43751">
        <ele>401.97</ele>
        <time>2012-04-09T09:23:09Z</time>
      </trkpt>
      <trkpt lat="48.14549" lon="6.43745">
        <ele>402.45</ele>
        <time>2012-04-09T09:23:10Z</time>
      </trkpt>
      <trkpt lat="48.14551" lon="6.43739">
        <ele>402.45</ele>
        <time>2012-04-09T09:23:11Z</time>
      </trkpt>
      <trkpt lat="48.14554" lon="6.43734">
        <ele>402.45</ele>
        <time>2012-04-09T09:23:12Z</time>
      </trkpt>
      <trkpt lat="48.14557" lon="6.43729">
        <ele>402.93</ele>
        <time>2012-04-09T09:23:13Z</time>
      </trkpt>
      <trkpt lat="48.14561" lon="6.43724">
        <ele>402.93</ele>
        <time>2012-04-09T09:23:14Z</time>
      </trkpt>
      <trkpt lat="48.14579" lon="6.43693">
        <ele>402.93</ele>
        <time>2012-04-09T09:23:18Z</time>
      </trkpt>
      <trkpt lat="48.14583" lon="6.43683">
        <ele>402.45</ele>
        <time>2012-04-09T09:23:19Z</time>
      </trkpt>
      <trkpt lat="48.14586" lon="6.43672">
        <ele>401.97</ele>
        <time>2012-04-09T09:23:20Z</time>
      </trkpt>
      <trkpt lat="48.14587" lon="6.43661">
        <ele>401.97</ele>
        <time>2012-04-09T09:23:21Z</time>
      </trkpt>
      <trkpt lat="48.14587" lon="6.43649">
        <ele>401.49</ele>
        <time>2012-04-09T09:23:22Z</time>
      </trkpt>
      <trkpt lat="48.14587" lon="6.43638">
        <ele>401.49</ele>
        <time>2012-04-09T09:23:23Z</time>
      </trkpt>
      <trkpt lat="48.14568" lon="6.43488">
        <ele>397.16</ele>
        <time>2012-04-09T09:23:35Z</time>
      </trkpt>
      <trkpt lat="48.14567" lon="6.43476">
        <ele>396.68</ele>
        <time>2012-04-09T09:23:36Z</time>
      </trkpt>
      <trkpt lat="48.14567" lon="6.43465">
        <ele>396.2</ele>
        <time>2012-04-09T09:23:37Z</time>
      </trkpt>
      <trkpt lat="48.14567" lon="6.43454">
        <ele>395.72</ele>
        <time>2012-04-09T09:23:38Z</time>
      </trkpt>
      <trkpt lat="48.14569" lon="6.43433">
        <ele>394.76</ele>
        <time>2012-04-09T09:23:40Z</time>
      </trkpt>
      <trkpt lat="48.14571" lon="6.43424">
        <ele>393.8</ele>
        <time>2012-04-09T09:23:41Z</time>
      </trkpt>
      <trkpt lat="48.14581" lon="6.43389">
        <ele>390.91</ele>
        <time>2012-04-09T09:23:46Z</time>
      </trkpt>
      <trkpt lat="48.14582" lon="6.43382">
        <ele>390.43</ele>
        <time>2012-04-09T09:23:47Z</time>
      </trkpt>
      <trkpt lat="48.14586" lon="6.43366">
        <ele>388.51</ele>
        <time>2012-04-09T09:23:50Z</time>
      </trkpt>
      <trkpt lat="48.14589" lon="6.43363">
        <ele>387.55</ele>
        <time>2012-04-09T09:23:51Z</time>
      </trkpt>
      <trkpt lat="48.14593" lon="6.43362">
        <ele>386.11</ele>
        <time>2012-04-09T09:23:52Z</time>
      </trkpt>
      <trkpt lat="48.14596" lon="6.43362">
        <ele>384.66</ele>
        <time>2012-04-09T09:23:53Z</time>
      </trkpt>
      <trkpt lat="48.14599" lon="6.43362">
        <ele>383.7</ele>
        <time>2012-04-09T09:23:54Z</time>
      </trkpt>
      <trkpt lat="48.14602" lon="6.43363">
        <ele>383.22</ele>
        <time>2012-04-09T09:23:55Z</time>
      </trkpt>
      <trkpt lat="48.14604" lon="6.43364">
        <ele>382.74</ele>
        <time>2012-04-09T09:23:56Z</time>
      </trkpt>
      <trkpt lat="48.14613" lon="6.43367">
        <ele>381.78</ele>
        <time>2012-04-09T09:24:00Z</time>
      </trkpt>
      <trkpt lat="48.14615" lon="6.43367">
        <ele>381.78</ele>
        <time>2012-04-09T09:24:01Z</time>
      </trkpt>
      <trkpt lat="48.14616" lon="6.43366">
        <ele>381.78</ele>
        <time>2012-04-09T09:24:02Z</time>
      </trkpt>
      <trkpt lat="48.14617" lon="6.43364">
        <ele>381.78</ele>
        <time>2012-04-09T09:24:03Z</time>
      </trkpt>
      <trkpt lat="48.14618" lon="6.43362">
        <ele>382.26</ele>
        <time>2012-04-09T09:24:04Z</time>
      </trkpt>
      <trkpt lat="48.14618" lon="6.4336">
        <ele>382.74</ele>
        <time>2012-04-09T09:24:05Z</time>
      </trkpt>
      <trkpt lat="48.1462" lon="6.43357">
        <ele>384.18</ele>
        <time>2012-04-09T09:24:08Z</time>
      </trkpt>
      <trkpt lat="48.14621" lon="6.43355">
        <ele>384.66</ele>
        <time>2012-04-09T09:24:09Z</time>
      </trkpt>
      <trkpt lat="48.14621" lon="6.43353">
        <ele>385.63</ele>
        <time>2012-04-09T09:24:10Z</time>
      </trkpt>
      <trkpt lat="48.14622" lon="6.4335">
        <ele>386.11</ele>
        <time>2012-04-09T09:24:11Z</time>
      </trkpt>
      <trkpt lat="48.14622" lon="6.43347">
        <ele>386.59</ele>
        <time>2012-04-09T09:24:12Z</time>
      </trkpt>
      <trkpt lat="48.14622" lon="6.43345">
        <ele>387.07</ele>
        <time>2012-04-09T09:24:13Z</time>
      </trkpt>
      <trkpt lat="48.14626" lon="6.43313">
        <ele>394.76</ele>
        <time>2012-04-09T09:24:23Z</time>
      </trkpt>
      <trkpt lat="48.14627" lon="6.43307">
        <ele>396.68</ele>
        <time>2012-04-09T09:24:25Z</time>
      </trkpt>
      <trkpt lat="48.14628" lon="6.43304">
        <ele>398.12</ele>
        <time>2012-04-09T09:24:26Z</time>
      </trkpt>
      <trkpt lat="48.1463" lon="6.43302">
        <ele>399.08</ele>
        <time>2012-04-09T09:24:27Z</time>
      </trkpt>
      <trkpt lat="48.14637" lon="6.43291">
        <ele>405.33</ele>
        <time>2012-04-09T09:24:33Z</time>
      </trkpt>
      <trkpt lat="48.14645" lon="6.43287">
        <ele>403.41</ele>
        <time>2012-04-09T09:24:40Z</time>
      </trkpt>
      <trkpt lat="48.1465" lon="6.43286">
        <ele>400.53</ele>
        <time>2012-04-09T09:24:54Z</time>
      </trkpt>
      <trkpt lat="48.14658" lon="6.43286">
        <ele>398.12</ele>
        <time>2012-04-09T09:25:15Z</time>
      </trkpt>
      <trkpt lat="48.14659" lon="6.43286">
        <ele>398.12</ele>
        <time>2012-04-09T09:25:32Z</time>
      </trkpt>
      <trkpt lat="48.14656" lon="6.43289">
        <ele>399.08</ele>
        <time>2012-04-09T09:25:35Z</time>
      </trkpt>
      <trkpt lat="48.14655" lon="6.43299">
        <ele>403.41</ele>
        <time>2012-04-09T09:25:40Z</time>
      </trkpt>
      <trkpt lat="48.14654" lon="6.43353">
        <ele>410.14</ele>
        <time>2012-04-09T09:25:54Z</time>
      </trkpt>
      <trkpt lat="48.14666" lon="6.43412">
        <ele>409.66</ele>
        <time>2012-04-09T09:26:06Z</time>
      </trkpt>
      <trkpt lat="48.14683" lon="6.43465">
        <ele>409.66</ele>
        <time>2012-04-09T09:26:17Z</time>
      </trkpt>
      <trkpt lat="48.14702" lon="6.43523">
        <ele>412.06</ele>
        <time>2012-04-09T09:26:29Z</time>
      </trkpt>
      <trkpt lat="48.14717" lon="6.43546">
        <ele>412.06</ele>
        <time>2012-04-09T09:26:34Z</time>
      </trkpt>
      <trkpt lat="48.14732" lon="6.43565">
        <ele>412.06</ele>
        <time>2012-04-09T09:26:38Z</time>
      </trkpt>
      <trkpt lat="48.14738" lon="6.43573">
        <ele>411.1</ele>
        <time>2012-04-09T09:26:39Z</time>
      </trkpt>
      <trkpt lat="48.14744" lon="6.43578">
        <ele>410.62</ele>
        <time>2012-04-09T09:26:40Z</time>
      </trkpt>
      <trkpt lat="48.1477" lon="6.43599">
        <ele>407.74</ele>
        <time>2012-04-09T09:26:44Z</time>
      </trkpt>
      <trkpt lat="48.14774" lon="6.43602">
        <ele>407.74</ele>
        <time>2012-04-09T09:26:45Z</time>
      </trkpt>
      <trkpt lat="48.14777" lon="6.43606">
        <ele>407.74</ele>
        <time>2012-04-09T09:26:46Z</time>
      </trkpt>
      <trkpt lat="48.14783" lon="6.43614">
        <ele>407.26</ele>
        <time>2012-04-09T09:26:48Z</time>
      </trkpt>
      <trkpt lat="48.14785" lon="6.4362">
        <ele>407.74</ele>
        <time>2012-04-09T09:26:49Z</time>
      </trkpt>
      <trkpt lat="48.14786" lon="6.43633">
        <ele>407.74</ele>
        <time>2012-04-09T09:26:51Z</time>
      </trkpt>
      <trkpt lat="48.14788" lon="6.43672">
        <ele>409.18</ele>
        <time>2012-04-09T09:26:56Z</time>
      </trkpt>
      <trkpt lat="48.14789" lon="6.43687">
        <ele>409.66</ele>
        <time>2012-04-09T09:26:58Z</time>
      </trkpt>
      <trkpt lat="48.1479" lon="6.43715">
        <ele>411.1</ele>
        <time>2012-04-09T09:27:02Z</time>
      </trkpt>
      <trkpt lat="48.14791" lon="6.43722">
        <ele>411.58</ele>
        <time>2012-04-09T09:27:03Z</time>
      </trkpt>
      <trkpt lat="48.14792" lon="6.43729">
        <ele>411.58</ele>
        <time>2012-04-09T09:27:04Z</time>
      </trkpt>
      <trkpt lat="48.14792" lon="6.43736">
        <ele>412.06</ele>
        <time>2012-04-09T09:27:05Z</time>
      </trkpt>
      <trkpt lat="48.14792" lon="6.43743">
        <ele>412.06</ele>
        <time>2012-04-09T09:27:06Z</time>
      </trkpt>
      <trkpt lat="48.14796" lon="6.43802">
        <ele>411.58</ele>
        <time>2012-04-09T09:27:15Z</time>
      </trkpt>
      <trkpt lat="48.14797" lon="6.43809">
        <ele>411.58</ele>
        <time>2012-04-09T09:27:16Z</time>
      </trkpt>
      <trkpt lat="48.14799" lon="6.43816">
        <ele>411.58</ele>
        <time>2012-04-09T09:27:17Z</time>
      </trkpt>
      <trkpt lat="48.14805" lon="6.43844">
        <ele>411.1</ele>
        <time>2012-04-09T09:27:21Z</time>
      </trkpt>
      <trkpt lat="48.14807" lon="6.4385">
        <ele>411.1</ele>
        <time>2012-04-09T09:27:22Z</time>
      </trkpt>
      <trkpt lat="48.1486" lon="6.43966">
        <ele>404.37</ele>
        <time>2012-04-09T09:27:38Z</time>
      </trkpt>
      <trkpt lat="48.14906" lon="6.44075">
        <ele>396.68</ele>
        <time>2012-04-09T09:27:52Z</time>
      </trkpt>
      <trkpt lat="48.14934" lon="6.44184">
        <ele>392.84</ele>
        <time>2012-04-09T09:28:06Z</time>
      </trkpt>
      <trkpt lat="48.14981" lon="6.44309">
        <ele>388.51</ele>
        <time>2012-04-09T09:28:21Z</time>
      </trkpt>
      <trkpt lat="48.15006" lon="6.44372">
        <ele>387.07</ele>
        <time>2012-04-09T09:28:30Z</time>
      </trkpt>
      <trkpt lat="48.1501" lon="6.44378">
        <ele>386.59</ele>
        <time>2012-04-09T09:28:31Z</time>
      </trkpt>
      <trkpt lat="48.15014" lon="6.44382">
        <ele>386.59</ele>
        <time>2012-04-09T09:28:32Z</time>
      </trkpt>
      <trkpt lat="48.15019" lon="6.44385">
        <ele>386.59</ele>
        <time>2012-04-09T09:28:33Z</time>
      </trkpt>
      <trkpt lat="48.15023" lon="6.44387">
        <ele>386.11</ele>
        <time>2012-04-09T09:28:34Z</time>
      </trkpt>
      <trkpt lat="48.15028" lon="6.44388">
        <ele>386.11</ele>
        <time>2012-04-09T09:28:35Z</time>
      </trkpt>
      <trkpt lat="48.15032" lon="6.44388">
        <ele>385.63</ele>
        <time>2012-04-09T09:28:36Z</time>
      </trkpt>
      <trkpt lat="48.15036" lon="6.44387">
        <ele>385.15</ele>
        <time>2012-04-09T09:28:37Z</time>
      </trkpt>
      <trkpt lat="48.15063" lon="6.44378">
        <ele>386.59</ele>
        <time>2012-04-09T09:28:44Z</time>
      </trkpt>
      <trkpt lat="48.15067" lon="6.44374">
        <ele>386.59</ele>
        <time>2012-04-09T09:28:45Z</time>
      </trkpt>
      <trkpt lat="48.1507" lon="6.44371">
        <ele>387.07</ele>
        <time>2012-04-09T09:28:46Z</time>
      </trkpt>
      <trkpt lat="48.15073" lon="6.44366">
        <ele>387.55</ele>
        <time>2012-04-09T09:28:47Z</time>
      </trkpt>
      <trkpt lat="48.15077" lon="6.44362">
        <ele>387.55</ele>
        <time>2012-04-09T09:28:48Z</time>
      </trkpt>
      <trkpt lat="48.1508" lon="6.44356">
        <ele>388.03</ele>
        <time>2012-04-09T09:28:49Z</time>
      </trkpt>
      <trkpt lat="48.15082" lon="6.4435">
        <ele>388.51</ele>
        <time>2012-04-09T09:28:50Z</time>
      </trkpt>
      <trkpt lat="48.15084" lon="6.44344">
        <ele>389.47</ele>
        <time>2012-04-09T09:28:51Z</time>
      </trkpt>
      <trkpt lat="48.15086" lon="6.44337">
        <ele>389.95</ele>
        <time>2012-04-09T09:28:52Z</time>
      </trkpt>
      <trkpt lat="48.1509" lon="6.4432">
        <ele>391.87</ele>
        <time>2012-04-09T09:28:55Z</time>
      </trkpt>
      <trkpt lat="48.15091" lon="6.44314">
        <ele>392.36</ele>
        <time>2012-04-09T09:28:56Z</time>
      </trkpt>
      <trkpt lat="48.15092" lon="6.44307">
        <ele>392.84</ele>
        <time>2012-04-09T09:28:57Z</time>
      </trkpt>
      <trkpt lat="48.15094" lon="6.44293">
        <ele>394.28</ele>
        <time>2012-04-09T09:28:59Z</time>
      </trkpt>
      <trkpt lat="48.15094" lon="6.44264">
        <ele>398.12</ele>
        <time>2012-04-09T09:29:03Z</time>
      </trkpt>
      <trkpt lat="48.15092" lon="6.44256">
        <ele>399.08</ele>
        <time>2012-04-09T09:29:04Z</time>
      </trkpt>
      <trkpt lat="48.15091" lon="6.44249">
        <ele>400.05</ele>
        <time>2012-04-09T09:29:05Z</time>
      </trkpt>
      <trkpt lat="48.15075" lon="6.44186">
        <ele>407.74</ele>
        <time>2012-04-09T09:29:13Z</time>
      </trkpt>
      <trkpt lat="48.15072" lon="6.44179">
        <ele>408.7</ele>
        <time>2012-04-09T09:29:14Z</time>
      </trkpt>
      <trkpt lat="48.1507" lon="6.44172">
        <ele>409.66</ele>
        <time>2012-04-09T09:29:15Z</time>
      </trkpt>
      <trkpt lat="48.15069" lon="6.44166">
        <ele>411.1</ele>
        <time>2012-04-09T09:29:16Z</time>
      </trkpt>
      <trkpt lat="48.15066" lon="6.44161">
        <ele>412.06</ele>
        <time>2012-04-09T09:29:17Z</time>
      </trkpt>
      <trkpt lat="48.15064" lon="6.44157">
        <ele>413.02</ele>
        <time>2012-04-09T09:29:18Z</time>
      </trkpt>
      <trkpt lat="48.15062" lon="6.44151">
        <ele>414.47</ele>
        <time>2012-04-09T09:29:19Z</time>
      </trkpt>
      <trkpt lat="48.15054" lon="6.44127">
        <ele>418.79</ele>
        <time>2012-04-09T09:29:23Z</time>
      </trkpt>
      <trkpt lat="48.1505" lon="6.44113">
        <ele>421.68</ele>
        <time>2012-04-09T09:29:25Z</time>
      </trkpt>
      <trkpt lat="48.15049" lon="6.44106">
        <ele>423.6</ele>
        <time>2012-04-09T09:29:26Z</time>
      </trkpt>
      <trkpt lat="48.15047" lon="6.44098">
        <ele>425.04</ele>
        <time>2012-04-09T09:29:27Z</time>
      </trkpt>
      <trkpt lat="48.15047" lon="6.44068">
        <ele>432.73</ele>
        <time>2012-04-09T09:29:32Z</time>
      </trkpt>
      <trkpt lat="48.1505" lon="6.4406">
        <ele>434.65</ele>
        <time>2012-04-09T09:29:33Z</time>
      </trkpt>
      <trkpt lat="48.15054" lon="6.44055">
        <ele>435.61</ele>
        <time>2012-04-09T09:29:34Z</time>
      </trkpt>
      <trkpt lat="48.1506" lon="6.44053">
        <ele>436.58</ele>
        <time>2012-04-09T09:29:35Z</time>
      </trkpt>
      <trkpt lat="48.15065" lon="6.44053">
        <ele>437.54</ele>
        <time>2012-04-09T09:29:36Z</time>
      </trkpt>
      <trkpt lat="48.15071" lon="6.44052">
        <ele>437.54</ele>
        <time>2012-04-09T09:29:37Z</time>
      </trkpt>
      <trkpt lat="48.15076" lon="6.44053">
        <ele>438.02</ele>
        <time>2012-04-09T09:29:38Z</time>
      </trkpt>
      <trkpt lat="48.15096" lon="6.44057">
        <ele>438.5</ele>
        <time>2012-04-09T09:29:42Z</time>
      </trkpt>
      <trkpt lat="48.15102" lon="6.44056">
        <ele>438.5</ele>
        <time>2012-04-09T09:29:43Z</time>
      </trkpt>
      <trkpt lat="48.15106" lon="6.44054">
        <ele>438.5</ele>
        <time>2012-04-09T09:29:44Z</time>
      </trkpt>
      <trkpt lat="48.15114" lon="6.44044">
        <ele>438.5</ele>
        <time>2012-04-09T09:29:47Z</time>
      </trkpt>
      <trkpt lat="48.15115" lon="6.44037">
        <ele>439.94</ele>
        <time>2012-04-09T09:29:48Z</time>
      </trkpt>
      <trkpt lat="48.15115" lon="6.44023">
        <ele>442.82</ele>
        <time>2012-04-09T09:29:50Z</time>
      </trkpt>
      <trkpt lat="48.15114" lon="6.44017">
        <ele>443.31</ele>
        <time>2012-04-09T09:29:51Z</time>
      </trkpt>
      <trkpt lat="48.15112" lon="6.44011">
        <ele>444.27</ele>
        <time>2012-04-09T09:29:52Z</time>
      </trkpt>
      <trkpt lat="48.15107" lon="6.43987">
        <ele>449.07</ele>
        <time>2012-04-09T09:29:56Z</time>
      </trkpt>
      <trkpt lat="48.1511" lon="6.43983">
        <ele>450.52</ele>
        <time>2012-04-09T09:29:57Z</time>
      </trkpt>
      <trkpt lat="48.15114" lon="6.43979">
        <ele>451.48</ele>
        <time>2012-04-09T09:29:58Z</time>
      </trkpt>
      <trkpt lat="48.15119" lon="6.43977">
        <ele>452.44</ele>
        <time>2012-04-09T09:29:59Z</time>
      </trkpt>
      <trkpt lat="48.15124" lon="6.43974">
        <ele>453.4</ele>
        <time>2012-04-09T09:30:00Z</time>
      </trkpt>
      <trkpt lat="48.15128" lon="6.4397">
        <ele>453.88</ele>
        <time>2012-04-09T09:30:01Z</time>
      </trkpt>
      <trkpt lat="48.15132" lon="6.43965">
        <ele>453.88</ele>
        <time>2012-04-09T09:30:02Z</time>
      </trkpt>
      <trkpt lat="48.15136" lon="6.43961">
        <ele>454.84</ele>
        <time>2012-04-09T09:30:03Z</time>
      </trkpt>
      <trkpt lat="48.15139" lon="6.43956">
        <ele>455.32</ele>
        <time>2012-04-09T09:30:04Z</time>
      </trkpt>
      <trkpt lat="48.15142" lon="6.4395">
        <ele>455.8</ele>
        <time>2012-04-09T09:30:05Z</time>
      </trkpt>
      <trkpt lat="48.15146" lon="6.43943">
        <ele>456.28</ele>
        <time>2012-04-09T09:30:06Z</time>
      </trkpt>
      <trkpt lat="48.15151" lon="6.43931">
        <ele>457.72</ele>
        <time>2012-04-09T09:30:08Z</time>
      </trkpt>
      <trkpt lat="48.15154" lon="6.43924">
        <ele>458.21</ele>
        <time>2012-04-09T09:30:09Z</time>
      </trkpt>
      <trkpt lat="48.15157" lon="6.43917">
        <ele>458.21</ele>
        <time>2012-04-09T09:30:10Z</time>
      </trkpt>
      <trkpt lat="48.1516" lon="6.4391">
        <ele>458.21</ele>
        <time>2012-04-09T09:30:11Z</time>
      </trkpt>
      <trkpt lat="48.15162" lon="6.43905">
        <ele>458.69</ele>
        <time>2012-04-09T09:30:12Z</time>
      </trkpt>
      <trkpt lat="48.15165" lon="6.43898">
        <ele>459.17</ele>
        <time>2012-04-09T09:30:13Z</time>
      </trkpt>
      <trkpt lat="48.15168" lon="6.43889">
        <ele>460.61</ele>
        <time>2012-04-09T09:30:15Z</time>
      </trkpt>
      <trkpt lat="48.15171" lon="6.43878">
        <ele>461.09</ele>
        <time>2012-04-09T09:30:16Z</time>
      </trkpt>
      <trkpt lat="48.15173" lon="6.43863">
        <ele>463.01</ele>
        <time>2012-04-09T09:30:18Z</time>
      </trkpt>
      <trkpt lat="48.15176" lon="6.43848">
        <ele>465.42</ele>
        <time>2012-04-09T09:30:20Z</time>
      </trkpt>
      <trkpt lat="48.15176" lon="6.43841">
        <ele>466.38</ele>
        <time>2012-04-09T09:30:21Z</time>
      </trkpt>
      <trkpt lat="48.15177" lon="6.43834">
        <ele>467.82</ele>
        <time>2012-04-09T09:30:22Z</time>
      </trkpt>
      <trkpt lat="48.15177" lon="6.43828">
        <ele>469.26</ele>
        <time>2012-04-09T09:30:23Z</time>
      </trkpt>
      <trkpt lat="48.15177" lon="6.43821">
        <ele>470.22</ele>
        <time>2012-04-09T09:30:24Z</time>
      </trkpt>
      <trkpt lat="48.15176" lon="6.43808">
        <ele>473.11</ele>
        <time>2012-04-09T09:30:26Z</time>
      </trkpt>
      <trkpt lat="48.15175" lon="6.43773">
        <ele>479.35</ele>
        <time>2012-04-09T09:30:31Z</time>
      </trkpt>
      <trkpt lat="48.15176" lon="6.43765">
        <ele>479.35</ele>
        <time>2012-04-09T09:30:32Z</time>
      </trkpt>
      <trkpt lat="48.15178" lon="6.43758">
        <ele>479.35</ele>
        <time>2012-04-09T09:30:33Z</time>
      </trkpt>
      <trkpt lat="48.15188" lon="6.43728">
        <ele>478.39</ele>
        <time>2012-04-09T09:30:37Z</time>
      </trkpt>
      <trkpt lat="48.1519" lon="6.4372">
        <ele>478.39</ele>
        <time>2012-04-09T09:30:38Z</time>
      </trkpt>
      <trkpt lat="48.15192" lon="6.43712">
        <ele>478.39</ele>
        <time>2012-04-09T09:30:39Z</time>
      </trkpt>
      <trkpt lat="48.15205" lon="6.43674">
        <ele>477.91</ele>
        <time>2012-04-09T09:30:44Z</time>
      </trkpt>
      <trkpt lat="48.15208" lon="6.43667">
        <ele>477.91</ele>
        <time>2012-04-09T09:30:45Z</time>
      </trkpt>
      <trkpt lat="48.15213" lon="6.43653">
        <ele>477.91</ele>
        <time>2012-04-09T09:30:47Z</time>
      </trkpt>
      <trkpt lat="48.15226" lon="6.4359">
        <ele>478.39</ele>
        <time>2012-04-09T09:30:55Z</time>
      </trkpt>
      <trkpt lat="48.15228" lon="6.43583">
        <ele>478.87</ele>
        <time>2012-04-09T09:30:56Z</time>
      </trkpt>
      <trkpt lat="48.15231" lon="6.43559">
        <ele>479.35</ele>
        <time>2012-04-09T09:30:59Z</time>
      </trkpt>
      <trkpt lat="48.15232" lon="6.43551">
        <ele>479.35</ele>
        <time>2012-04-09T09:31:00Z</time>
      </trkpt>
      <trkpt lat="48.15232" lon="6.43543">
        <ele>479.35</ele>
        <time>2012-04-09T09:31:01Z</time>
      </trkpt>
      <trkpt lat="48.15233" lon="6.43534">
        <ele>479.35</ele>
        <time>2012-04-09T09:31:02Z</time>
      </trkpt>
      <trkpt lat="48.15234" lon="6.43526">
        <ele>478.87</ele>
        <time>2012-04-09T09:31:03Z</time>
      </trkpt>
      <trkpt lat="48.15236" lon="6.43517">
        <ele>478.87</ele>
        <time>2012-04-09T09:31:04Z</time>
      </trkpt>
      <trkpt lat="48.15237" lon="6.4351">
        <ele>478.87</ele>
        <time>2012-04-09T09:31:05Z</time>
      </trkpt>
      <trkpt lat="48.1524" lon="6.43487">
        <ele>478.39</ele>
        <time>2012-04-09T09:31:08Z</time>
      </trkpt>
      <trkpt lat="48.1524" lon="6.43478">
        <ele>478.39</ele>
        <time>2012-04-09T09:31:09Z</time>
      </trkpt>
      <trkpt lat="48.15241" lon="6.43471">
        <ele>478.39</ele>
        <time>2012-04-09T09:31:10Z</time>
      </trkpt>
      <trkpt lat="48.15251" lon="6.43415">
        <ele>477.43</ele>
        <time>2012-04-09T09:31:18Z</time>
      </trkpt>
      <trkpt lat="48.15264" lon="6.43355">
        <ele>475.51</ele>
        <time>2012-04-09T09:31:28Z</time>
      </trkpt>
      <trkpt lat="48.15266" lon="6.43349">
        <ele>475.51</ele>
        <time>2012-04-09T09:31:29Z</time>
      </trkpt>
      <trkpt lat="48.15269" lon="6.43343">
        <ele>475.99</ele>
        <time>2012-04-09T09:31:30Z</time>
      </trkpt>
      <trkpt lat="48.15271" lon="6.43338">
        <ele>475.99</ele>
        <time>2012-04-09T09:31:31Z</time>
      </trkpt>
      <trkpt lat="48.15273" lon="6.43333">
        <ele>476.47</ele>
        <time>2012-04-09T09:31:32Z</time>
      </trkpt>
      <trkpt lat="48.15275" lon="6.43328">
        <ele>476.95</ele>
        <time>2012-04-09T09:31:33Z</time>
      </trkpt>
      <trkpt lat="48.15276" lon="6.43323">
        <ele>476.95</ele>
        <time>2012-04-09T09:31:34Z</time>
      </trkpt>
      <trkpt lat="48.15277" lon="6.43318">
        <ele>477.43</ele>
        <time>2012-04-09T09:31:35Z</time>
      </trkpt>
      <trkpt lat="48.15278" lon="6.43312">
        <ele>477.91</ele>
        <time>2012-04-09T09:31:36Z</time>
      </trkpt>
      <trkpt lat="48.15284" lon="6.43249">
        <ele>480.32</ele>
        <time>2012-04-09T09:31:49Z</time>
      </trkpt>
      <trkpt lat="48.15305" lon="6.43212">
        <ele>455.8</ele>
        <time>2012-04-09T09:32:01Z</time>
      </trkpt>
      <trkpt lat="48.15313" lon="6.43201">
        <ele>444.75</ele>
        <time>2012-04-09T09:32:23Z</time>
      </trkpt>
      <trkpt lat="48.15318" lon="6.43187">
        <ele>434.17</ele>
        <time>2012-04-09T09:32:54Z</time>
      </trkpt>
      <trkpt lat="48.1532" lon="6.43183">
        <ele>433.21</ele>
        <time>2012-04-09T09:32:57Z</time>
      </trkpt>
      <trkpt lat="48.15345" lon="6.43166">
        <ele>434.17</ele>
        <time>2012-04-09T09:33:09Z</time>
      </trkpt>
      <trkpt lat="48.15369" lon="6.43149">
        <ele>435.61</ele>
        <time>2012-04-09T09:33:21Z</time>
      </trkpt>
      <trkpt lat="48.15395" lon="6.43133">
        <ele>430.81</ele>
        <time>2012-04-09T09:33:32Z</time>
      </trkpt>
      <trkpt lat="48.15425" lon="6.43115">
        <ele>428.89</ele>
        <time>2012-04-09T09:33:45Z</time>
      </trkpt>
      <trkpt lat="48.15455" lon="6.43104">
        <ele>429.85</ele>
        <time>2012-04-09T09:33:57Z</time>
      </trkpt>
      <trkpt lat="48.15461" lon="6.431">
        <ele>431.29</ele>
        <time>2012-04-09T09:34:00Z</time>
      </trkpt>
      <trkpt lat="48.15462" lon="6.43099">
        <ele>431.29</ele>
        <time>2012-04-09T09:34:01Z</time>
      </trkpt>
      <trkpt lat="48.15465" lon="6.43097">
        <ele>431.77</ele>
        <time>2012-04-09T09:34:02Z</time>
      </trkpt>
      <trkpt lat="48.15467" lon="6.43095">
        <ele>432.25</ele>
        <time>2012-04-09T09:34:03Z</time>
      </trkpt>
      <trkpt lat="48.15469" lon="6.43093">
        <ele>432.73</ele>
        <time>2012-04-09T09:34:04Z</time>
      </trkpt>
      <trkpt lat="48.15471" lon="6.43091">
        <ele>432.73</ele>
        <time>2012-04-09T09:34:05Z</time>
      </trkpt>
      <trkpt lat="48.15473" lon="6.4309">
        <ele>433.21</ele>
        <time>2012-04-09T09:34:06Z</time>
      </trkpt>
      <trkpt lat="48.15475" lon="6.4309">
        <ele>433.21</ele>
        <time>2012-04-09T09:34:07Z</time>
      </trkpt>
      <trkpt lat="48.15477" lon="6.43089">
        <ele>433.69</ele>
        <time>2012-04-09T09:34:08Z</time>
      </trkpt>
      <trkpt lat="48.15499" lon="6.4308">
        <ele>437.06</ele>
        <time>2012-04-09T09:34:19Z</time>
      </trkpt>
      <trkpt lat="48.15515" lon="6.43077">
        <ele>439.46</ele>
        <time>2012-04-09T09:34:27Z</time>
      </trkpt>
      <trkpt lat="48.1552" lon="6.43078">
        <ele>440.9</ele>
        <time>2012-04-09T09:34:30Z</time>
      </trkpt>
      <trkpt lat="48.15546" lon="6.43075">
        <ele>445.71</ele>
        <time>2012-04-09T09:34:42Z</time>
      </trkpt>
      <trkpt lat="48.15569" lon="6.43078">
        <ele>449.07</ele>
        <time>2012-04-09T09:34:54Z</time>
      </trkpt>
      <trkpt lat="48.15599" lon="6.43075">
        <ele>454.84</ele>
        <time>2012-04-09T09:35:07Z</time>
      </trkpt>
      <trkpt lat="48.15623" lon="6.4306">
        <ele>455.8</ele>
        <time>2012-04-09T09:35:18Z</time>
      </trkpt>
      <trkpt lat="48.15639" lon="6.43043">
        <ele>461.09</ele>
        <time>2012-04-09T09:35:30Z</time>
      </trkpt>
      <trkpt lat="48.15645" lon="6.43039">
        <ele>463.01</ele>
        <time>2012-04-09T09:35:33Z</time>
      </trkpt>
      <trkpt lat="48.15648" lon="6.43035">
        <ele>465.42</ele>
        <time>2012-04-09T09:35:36Z</time>
      </trkpt>
      <trkpt lat="48.15653" lon="6.43028">
        <ele>469.26</ele>
        <time>2012-04-09T09:35:40Z</time>
      </trkpt>
      <trkpt lat="48.15661" lon="6.43023">
        <ele>469.26</ele>
        <time>2012-04-09T09:35:44Z</time>
      </trkpt>
      <trkpt lat="48.15692" lon="6.43001">
        <ele>466.86</ele>
        <time>2012-04-09T09:35:57Z</time>
      </trkpt>
      <trkpt lat="48.15721" lon="6.42978">
        <ele>463.01</ele>
        <time>2012-04-09T09:36:09Z</time>
      </trkpt>
      <trkpt lat="48.15737" lon="6.42958">
        <ele>467.34</ele>
        <time>2012-04-09T09:36:19Z</time>
      </trkpt>
      <trkpt lat="48.1575" lon="6.42915">
        <ele>468.78</ele>
        <time>2012-04-09T09:36:32Z</time>
      </trkpt>
      <trkpt lat="48.15757" lon="6.42871">
        <ele>470.7</ele>
        <time>2012-04-09T09:36:45Z</time>
      </trkpt>
      <trkpt lat="48.15762" lon="6.42861">
        <ele>471.66</ele>
        <time>2012-04-09T09:36:50Z</time>
      </trkpt>
      <trkpt lat="48.1577" lon="6.42851">
        <ele>474.07</ele>
        <time>2012-04-09T09:36:56Z</time>
      </trkpt>
      <trkpt lat="48.15777" lon="6.42841">
        <ele>475.99</ele>
        <time>2012-04-09T09:37:04Z</time>
      </trkpt>
      <trkpt lat="48.15794" lon="6.42825">
        <ele>475.03</ele>
        <time>2012-04-09T09:37:15Z</time>
      </trkpt>
      <trkpt lat="48.15796" lon="6.42816">
        <ele>477.91</ele>
        <time>2012-04-09T09:37:26Z</time>
      </trkpt>
      <trkpt lat="48.15799" lon="6.4281">
        <ele>478.87</ele>
        <time>2012-04-09T09:37:31Z</time>
      </trkpt>
      <trkpt lat="48.15801" lon="6.4281">
        <ele>478.87</ele>
        <time>2012-04-09T09:37:33Z</time>
      </trkpt>
      <trkpt lat="48.15805" lon="6.42812">
        <ele>478.39</ele>
        <time>2012-04-09T09:37:37Z</time>
      </trkpt>
      <trkpt lat="48.15812" lon="6.42821">
        <ele>479.84</ele>
        <time>2012-04-09T09:37:45Z</time>
      </trkpt>
      <trkpt lat="48.15814" lon="6.42829">
        <ele>481.76</ele>
        <time>2012-04-09T09:37:49Z</time>
      </trkpt>
      <trkpt lat="48.1583" lon="6.42864">
        <ele>485.12</ele>
        <time>2012-04-09T09:38:02Z</time>
      </trkpt>
      <trkpt lat="48.15856" lon="6.42878">
        <ele>487.05</ele>
        <time>2012-04-09T09:38:14Z</time>
      </trkpt>
      <trkpt lat="48.1588" lon="6.42868">
        <ele>489.93</ele>
        <time>2012-04-09T09:38:26Z</time>
      </trkpt>
      <trkpt lat="48.15901" lon="6.42846">
        <ele>492.81</ele>
        <time>2012-04-09T09:38:38Z</time>
      </trkpt>
      <trkpt lat="48.15915" lon="6.42833">
        <ele>492.33</ele>
        <time>2012-04-09T09:38:49Z</time>
      </trkpt>
      <trkpt lat="48.15945" lon="6.42797">
        <ele>489.93</ele>
        <time>2012-04-09T09:38:59Z</time>
      </trkpt>
      <trkpt lat="48.15985" lon="6.42747">
        <ele>487.53</ele>
        <time>2012-04-09T09:39:09Z</time>
      </trkpt>
      <trkpt lat="48.15989" lon="6.42741">
        <ele>482.24</ele>
        <time>2012-04-09T09:39:17Z</time>
      </trkpt>
      <trkpt lat="48.15998" lon="6.4273">
        <ele>465.9</ele>
        <time>2012-04-09T09:39:34Z</time>
      </trkpt>
      <trkpt lat="48.16" lon="6.42728">
        <ele>462.53</ele>
        <time>2012-04-09T09:39:49Z</time>
      </trkpt>
      <trkpt lat="48.16" lon="6.42729">
        <ele>462.53</ele>
        <time>2012-04-09T09:40:04Z</time>
      </trkpt>
      <trkpt lat="48.15998" lon="6.42727">
        <ele>462.05</ele>
        <time>2012-04-09T09:40:20Z</time>
      </trkpt>
      <trkpt lat="48.15999" lon="6.42727">
        <ele>460.13</ele>
        <time>2012-04-09T09:40:35Z</time>
      </trkpt>
      <trkpt lat="48.16" lon="6.42727">
        <ele>459.65</ele>
        <time>2012-04-09T09:40:51Z</time>
      </trkpt>
      <trkpt lat="48.16" lon="6.4273">
        <ele>459.17</ele>
        <time>2012-04-09T09:41:09Z</time>
      </trkpt>
      <trkpt lat="48.16001" lon="6.42733">
        <ele>458.69</ele>
        <time>2012-04-09T09:41:31Z</time>
      </trkpt>
      <trkpt lat="48.16001" lon="6.42734">
        <ele>458.69</ele>
        <time>2012-04-09T09:41:44Z</time>
      </trkpt>
      <trkpt lat="48.16" lon="6.42735">
        <ele>458.69</ele>
        <time>2012-04-09T09:42:10Z</time>
      </trkpt>
      <trkpt lat="48.15999" lon="6.42737">
        <ele>458.69</ele>
        <time>2012-04-09T09:42:34Z</time>
      </trkpt>
      <trkpt lat="48.16" lon="6.42738">
        <ele>457.72</ele>
        <time>2012-04-09T09:42:56Z</time>
      </trkpt>
      <trkpt lat="48.16" lon="6.42738">
        <ele>457.72</ele>
        <time>2012-04-09T09:42:57Z</time>
      </trkpt>
      <trkpt lat="48.16002" lon="6.42737">
        <ele>457.72</ele>
        <time>2012-04-09T09:42:58Z</time>
      </trkpt>
      <trkpt lat="48.16004" lon="6.42737">
        <ele>457.72</ele>
        <time>2012-04-09T09:42:59Z</time>
      </trkpt>
      <trkpt lat="48.16017" lon="6.42733">
        <ele>459.65</ele>
        <time>2012-04-09T09:43:04Z</time>
      </trkpt>
      <trkpt lat="48.16019" lon="6.42731">
        <ele>460.61</ele>
        <time>2012-04-09T09:43:05Z</time>
      </trkpt>
      <trkpt lat="48.16022" lon="6.42729">
        <ele>461.57</ele>
        <time>2012-04-09T09:43:06Z</time>
      </trkpt>
      <trkpt lat="48.16025" lon="6.42729">
        <ele>462.53</ele>
        <time>2012-04-09T09:43:07Z</time>
      </trkpt>
      <trkpt lat="48.16027" lon="6.42729">
        <ele>463.01</ele>
        <time>2012-04-09T09:43:08Z</time>
      </trkpt>
      <trkpt lat="48.16029" lon="6.42729">
        <ele>463.97</ele>
        <time>2012-04-09T09:43:09Z</time>
      </trkpt>
      <trkpt lat="48.16032" lon="6.4273">
        <ele>464.45</ele>
        <time>2012-04-09T09:43:10Z</time>
      </trkpt>
      <trkpt lat="48.16034" lon="6.42729">
        <ele>465.42</ele>
        <time>2012-04-09T09:43:11Z</time>
      </trkpt>
      <trkpt lat="48.16036" lon="6.42729">
        <ele>465.9</ele>
        <time>2012-04-09T09:43:12Z</time>
      </trkpt>
      <trkpt lat="48.16037" lon="6.42728">
        <ele>466.86</ele>
        <time>2012-04-09T09:43:13Z</time>
      </trkpt>
      <trkpt lat="48.1607" lon="6.42734">
        <ele>475.03</ele>
        <time>2012-04-09T09:43:26Z</time>
      </trkpt>
      <trkpt lat="48.16111" lon="6.42781">
        <ele>478.87</ele>
        <time>2012-04-09T09:43:37Z</time>
      </trkpt>
      <trkpt lat="48.16172" lon="6.42828">
        <ele>471.66</ele>
        <time>2012-04-09T09:43:51Z</time>
      </trkpt>
      <trkpt lat="48.16241" lon="6.42829">
        <ele>470.22</ele>
        <time>2012-04-09T09:44:05Z</time>
      </trkpt>
      <trkpt lat="48.16246" lon="6.4283">
        <ele>470.22</ele>
        <time>2012-04-09T09:44:06Z</time>
      </trkpt>
      <trkpt lat="48.16291" lon="6.42836">
        <ele>472.14</ele>
        <time>2012-04-09T09:44:17Z</time>
      </trkpt>
      <trkpt lat="48.16304" lon="6.42833">
        <ele>474.07</ele>
        <time>2012-04-09T09:44:20Z</time>
      </trkpt>
      <trkpt lat="48.16327" lon="6.42805">
        <ele>476.95</ele>
        <time>2012-04-09T09:44:25Z</time>
      </trkpt>
      <trkpt lat="48.16332" lon="6.42801">
        <ele>477.43</ele>
        <time>2012-04-09T09:44:26Z</time>
      </trkpt>
      <trkpt lat="48.16339" lon="6.42797">
        <ele>477.91</ele>
        <time>2012-04-09T09:44:27Z</time>
      </trkpt>
      <trkpt lat="48.16378" lon="6.42781">
        <ele>479.35</ele>
        <time>2012-04-09T09:44:32Z</time>
      </trkpt>
      <trkpt lat="48.16385" lon="6.42776">
        <ele>479.84</ele>
        <time>2012-04-09T09:44:33Z</time>
      </trkpt>
      <trkpt lat="48.16397" lon="6.42762">
        <ele>480.8</ele>
        <time>2012-04-09T09:44:35Z</time>
      </trkpt>
      <trkpt lat="48.16402" lon="6.42753">
        <ele>481.28</ele>
        <time>2012-04-09T09:44:36Z</time>
      </trkpt>
      <trkpt lat="48.16406" lon="6.42744">
        <ele>481.76</ele>
        <time>2012-04-09T09:44:37Z</time>
      </trkpt>
      <trkpt lat="48.1641" lon="6.42735">
        <ele>482.24</ele>
        <time>2012-04-09T09:44:38Z</time>
      </trkpt>
      <trkpt lat="48.16413" lon="6.42725">
        <ele>482.72</ele>
        <time>2012-04-09T09:44:39Z</time>
      </trkpt>
      <trkpt lat="48.16415" lon="6.42716">
        <ele>483.2</ele>
        <time>2012-04-09T09:44:40Z</time>
      </trkpt>
      <trkpt lat="48.16415" lon="6.42707">
        <ele>483.68</ele>
        <time>2012-04-09T09:44:41Z</time>
      </trkpt>
      <trkpt lat="48.16416" lon="6.42698">
        <ele>484.16</ele>
        <time>2012-04-09T09:44:42Z</time>
      </trkpt>
      <trkpt lat="48.16416" lon="6.4269">
        <ele>484.64</ele>
        <time>2012-04-09T09:44:43Z</time>
      </trkpt>
      <trkpt lat="48.16417" lon="6.42666">
        <ele>486.08</ele>
        <time>2012-04-09T09:44:46Z</time>
      </trkpt>
      <trkpt lat="48.16418" lon="6.42658">
        <ele>486.56</ele>
        <time>2012-04-09T09:44:47Z</time>
      </trkpt>
      <trkpt lat="48.1642" lon="6.4265">
        <ele>487.05</ele>
        <time>2012-04-09T09:44:48Z</time>
      </trkpt>
      <trkpt lat="48.16443" lon="6.42588">
        <ele>495.7</ele>
        <time>2012-04-09T09:44:59Z</time>
      </trkpt>
      <trkpt lat="48.16449" lon="6.42571">
        <ele>495.7</ele>
        <time>2012-04-09T09:45:02Z</time>
      </trkpt>
      <trkpt lat="48.16452" lon="6.42565">
        <ele>495.7</ele>
        <time>2012-04-09T09:45:03Z</time>
      </trkpt>
      <trkpt lat="48.1646" lon="6.42548">
        <ele>495.22</ele>
        <time>2012-04-09T09:45:06Z</time>
      </trkpt>
      <trkpt lat="48.16463" lon="6.42542">
        <ele>495.22</ele>
        <time>2012-04-09T09:45:07Z</time>
      </trkpt>
      <trkpt lat="48.16476" lon="6.4252">
        <ele>495.22</ele>
        <time>2012-04-09T09:45:11Z</time>
      </trkpt>
      <trkpt lat="48.1648" lon="6.42515">
        <ele>495.22</ele>
        <time>2012-04-09T09:45:12Z</time>
      </trkpt>
      <trkpt lat="48.16528" lon="6.42459">
        <ele>494.74</ele>
        <time>2012-04-09T09:45:22Z</time>
      </trkpt>
      <trkpt lat="48.16532" lon="6.42454">
        <ele>494.74</ele>
        <time>2012-04-09T09:45:23Z</time>
      </trkpt>
      <trkpt lat="48.1654" lon="6.42442">
        <ele>494.26</ele>
        <time>2012-04-09T09:45:25Z</time>
      </trkpt>
      <trkpt lat="48.16559" lon="6.42404">
        <ele>493.29</ele>
        <time>2012-04-09T09:45:30Z</time>
      </trkpt>
      <trkpt lat="48.16563" lon="6.42394">
        <ele>492.81</ele>
        <time>2012-04-09T09:45:31Z</time>
      </trkpt>
      <trkpt lat="48.16568" lon="6.42385">
        <ele>492.33</ele>
        <time>2012-04-09T09:45:32Z</time>
      </trkpt>
      <trkpt lat="48.16573" lon="6.42379">
        <ele>491.85</ele>
        <time>2012-04-09T09:45:33Z</time>
      </trkpt>
      <trkpt lat="48.16579" lon="6.42374">
        <ele>491.37</ele>
        <time>2012-04-09T09:45:34Z</time>
      </trkpt>
      <trkpt lat="48.16585" lon="6.42369">
        <ele>490.89</ele>
        <time>2012-04-09T09:45:35Z</time>
      </trkpt>
      <trkpt lat="48.16589" lon="6.42367">
        <ele>490.89</ele>
        <time>2012-04-09T09:45:36Z</time>
      </trkpt>
      <trkpt lat="48.16592" lon="6.42364">
        <ele>490.89</ele>
        <time>2012-04-09T09:45:37Z</time>
      </trkpt>
      <trkpt lat="48.16594" lon="6.4236">
        <ele>490.41</ele>
        <time>2012-04-09T09:45:38Z</time>
      </trkpt>
      <trkpt lat="48.16595" lon="6.42356">
        <ele>489.93</ele>
        <time>2012-04-09T09:45:39Z</time>
      </trkpt>
      <trkpt lat="48.166" lon="6.42352">
        <ele>488.49</ele>
        <time>2012-04-09T09:45:41Z</time>
      </trkpt>
      <trkpt lat="48.16602" lon="6.42352">
        <ele>488.49</ele>
        <time>2012-04-09T09:45:42Z</time>
      </trkpt>
      <trkpt lat="48.16605" lon="6.42351">
        <ele>488.01</ele>
        <time>2012-04-09T09:45:43Z</time>
      </trkpt>
      <trkpt lat="48.16607" lon="6.42349">
        <ele>488.01</ele>
        <time>2012-04-09T09:45:44Z</time>
      </trkpt>
      <trkpt lat="48.1661" lon="6.42347">
        <ele>488.49</ele>
        <time>2012-04-09T09:45:45Z</time>
      </trkpt>
      <trkpt lat="48.1664" lon="6.42314">
        <ele>493.29</ele>
        <time>2012-04-09T09:45:54Z</time>
      </trkpt>
      <trkpt lat="48.16652" lon="6.42268">
        <ele>488.01</ele>
        <time>2012-04-09T09:46:02Z</time>
      </trkpt>
      <trkpt lat="48.16659" lon="6.42258">
        <ele>487.53</ele>
        <time>2012-04-09T09:46:05Z</time>
      </trkpt>
      <trkpt lat="48.16719" lon="6.42236">
        <ele>487.53</ele>
        <time>2012-04-09T09:46:13Z</time>
      </trkpt>
      <trkpt lat="48.16762" lon="6.42244">
        <ele>486.56</ele>
        <time>2012-04-09T09:46:19Z</time>
      </trkpt>
      <trkpt lat="48.16768" lon="6.42249">
        <ele>486.56</ele>
        <time>2012-04-09T09:46:20Z</time>
      </trkpt>
      <trkpt lat="48.168" lon="6.42288">
        <ele>484.64</ele>
        <time>2012-04-09T09:46:26Z</time>
      </trkpt>
      <trkpt lat="48.16815" lon="6.42312">
        <ele>484.64</ele>
        <time>2012-04-09T09:46:30Z</time>
      </trkpt>
      <trkpt lat="48.16858" lon="6.42413">
        <ele>490.41</ele>
        <time>2012-04-09T09:46:42Z</time>
      </trkpt>
      <trkpt lat="48.1686" lon="6.42421">
        <ele>490.89</ele>
        <time>2012-04-09T09:46:43Z</time>
      </trkpt>
      <trkpt lat="48.16866" lon="6.42434">
        <ele>491.85</ele>
        <time>2012-04-09T09:46:45Z</time>
      </trkpt>
      <trkpt lat="48.16868" lon="6.42438">
        <ele>492.81</ele>
        <time>2012-04-09T09:46:46Z</time>
      </trkpt>
      <trkpt lat="48.16869" lon="6.42441">
        <ele>493.29</ele>
        <time>2012-04-09T09:46:47Z</time>
      </trkpt>
      <trkpt lat="48.16869" lon="6.4245">
        <ele>491.85</ele>
        <time>2012-04-09T09:46:49Z</time>
      </trkpt>
      <trkpt lat="48.16863" lon="6.42458">
        <ele>485.6</ele>
        <time>2012-04-09T09:47:05Z</time>
      </trkpt>
      <trkpt lat="48.16865" lon="6.4246">
        <ele>482.72</ele>
        <time>2012-04-09T09:47:21Z</time>
      </trkpt>
      <trkpt lat="48.16866" lon="6.42457">
        <ele>483.2</ele>
        <time>2012-04-09T09:47:22Z</time>
      </trkpt>
      <trkpt lat="48.16866" lon="6.42453">
        <ele>484.16</ele>
        <time>2012-04-09T09:47:23Z</time>
      </trkpt>
      <trkpt lat="48.16865" lon="6.42442">
        <ele>486.08</ele>
        <time>2012-04-09T09:47:25Z</time>
      </trkpt>
      <trkpt lat="48.16866" lon="6.42428">
        <ele>488.49</ele>
        <time>2012-04-09T09:47:27Z</time>
      </trkpt>
      <trkpt lat="48.16867" lon="6.4242">
        <ele>489.93</ele>
        <time>2012-04-09T09:47:28Z</time>
      </trkpt>
      <trkpt lat="48.16881" lon="6.42328">
        <ele>499.06</ele>
        <time>2012-04-09T09:47:37Z</time>
      </trkpt>
      <trkpt lat="48.16881" lon="6.4232">
        <ele>499.54</ele>
        <time>2012-04-09T09:47:38Z</time>
      </trkpt>
      <trkpt lat="48.1688" lon="6.42313">
        <ele>499.54</ele>
        <time>2012-04-09T09:47:39Z</time>
      </trkpt>
      <trkpt lat="48.1688" lon="6.42304">
        <ele>499.54</ele>
        <time>2012-04-09T09:47:40Z</time>
      </trkpt>
      <trkpt lat="48.16881" lon="6.42295">
        <ele>499.06</ele>
        <time>2012-04-09T09:47:41Z</time>
      </trkpt>
      <trkpt lat="48.16882" lon="6.42285">
        <ele>499.06</ele>
        <time>2012-04-09T09:47:42Z</time>
      </trkpt>
      <trkpt lat="48.16883" lon="6.42275">
        <ele>498.58</ele>
        <time>2012-04-09T09:47:43Z</time>
      </trkpt>
      <trkpt lat="48.16891" lon="6.42206">
        <ele>496.18</ele>
        <time>2012-04-09T09:47:49Z</time>
      </trkpt>
      <trkpt lat="48.16891" lon="6.42198">
        <ele>495.7</ele>
        <time>2012-04-09T09:47:50Z</time>
      </trkpt>
      <trkpt lat="48.16889" lon="6.42191">
        <ele>495.22</ele>
        <time>2012-04-09T09:47:51Z</time>
      </trkpt>
      <trkpt lat="48.16888" lon="6.42182">
        <ele>493.29</ele>
        <time>2012-04-09T09:47:52Z</time>
      </trkpt>
      <trkpt lat="48.16886" lon="6.42173">
        <ele>491.37</ele>
        <time>2012-04-09T09:47:53Z</time>
      </trkpt>
      <trkpt lat="48.16883" lon="6.42164">
        <ele>488.97</ele>
        <time>2012-04-09T09:47:54Z</time>
      </trkpt>
      <trkpt lat="48.16878" lon="6.42157">
        <ele>487.05</ele>
        <time>2012-04-09T09:47:55Z</time>
      </trkpt>
      <trkpt lat="48.16873" lon="6.42152">
        <ele>485.12</ele>
        <time>2012-04-09T09:47:56Z</time>
      </trkpt>
      <trkpt lat="48.16867" lon="6.42149">
        <ele>483.68</ele>
        <time>2012-04-09T09:47:57Z</time>
      </trkpt>
      <trkpt lat="48.16862" lon="6.42147">
        <ele>482.24</ele>
        <time>2012-04-09T09:47:58Z</time>
      </trkpt>
      <trkpt lat="48.16846" lon="6.4214">
        <ele>479.35</ele>
        <time>2012-04-09T09:48:01Z</time>
      </trkpt>
      <trkpt lat="48.16824" lon="6.42125">
        <ele>473.59</ele>
        <time>2012-04-09T09:48:06Z</time>
      </trkpt>
      <trkpt lat="48.16815" lon="6.42121">
        <ele>471.66</ele>
        <time>2012-04-09T09:48:08Z</time>
      </trkpt>
      <trkpt lat="48.16811" lon="6.4212">
        <ele>470.7</ele>
        <time>2012-04-09T09:48:09Z</time>
      </trkpt>
      <trkpt lat="48.16804" lon="6.42114">
        <ele>464.45</ele>
        <time>2012-04-09T09:48:12Z</time>
      </trkpt>
      <trkpt lat="48.16801" lon="6.42113">
        <ele>463.01</ele>
        <time>2012-04-09T09:48:13Z</time>
      </trkpt>
      <trkpt lat="48.16798" lon="6.42111">
        <ele>463.01</ele>
        <time>2012-04-09T09:48:14Z</time>
      </trkpt>
      <trkpt lat="48.16795" lon="6.42109">
        <ele>462.05</ele>
        <time>2012-04-09T09:48:15Z</time>
      </trkpt>
      <trkpt lat="48.16794" lon="6.42107">
        <ele>460.61</ele>
        <time>2012-04-09T09:48:16Z</time>
      </trkpt>
      <trkpt lat="48.16791" lon="6.42106">
        <ele>459.17</ele>
        <time>2012-04-09T09:48:17Z</time>
      </trkpt>
      <trkpt lat="48.16789" lon="6.42106">
        <ele>457.24</ele>
        <time>2012-04-09T09:48:18Z</time>
      </trkpt>
      <trkpt lat="48.16787" lon="6.42106">
        <ele>455.8</ele>
        <time>2012-04-09T09:48:19Z</time>
      </trkpt>
      <trkpt lat="48.16784" lon="6.42105">
        <ele>453.88</ele>
        <time>2012-04-09T09:48:20Z</time>
      </trkpt>
      <trkpt lat="48.16782" lon="6.42104">
        <ele>452.44</ele>
        <time>2012-04-09T09:48:21Z</time>
      </trkpt>
      <trkpt lat="48.16779" lon="6.42102">
        <ele>451</ele>
        <time>2012-04-09T09:48:22Z</time>
      </trkpt>
      <trkpt lat="48.16777" lon="6.421">
        <ele>450.03</ele>
        <time>2012-04-09T09:48:23Z</time>
      </trkpt>
      <trkpt lat="48.16774" lon="6.42099">
        <ele>449.07</ele>
        <time>2012-04-09T09:48:24Z</time>
      </trkpt>
      <trkpt lat="48.16771" lon="6.42098">
        <ele>448.11</ele>
        <time>2012-04-09T09:48:25Z</time>
      </trkpt>
      <trkpt lat="48.1674" lon="6.42082">
        <ele>440.9</ele>
        <time>2012-04-09T09:48:34Z</time>
      </trkpt>
      <trkpt lat="48.16737" lon="6.42081">
        <ele>439.94</ele>
        <time>2012-04-09T09:48:35Z</time>
      </trkpt>
      <trkpt lat="48.16817" lon="6.42066">
        <ele>409.66</ele>
        <time>2012-04-09T09:48:57Z</time>
      </trkpt>
      <trkpt lat="48.16883" lon="6.42045">
        <ele>405.81</ele>
        <time>2012-04-09T09:49:05Z</time>
      </trkpt>
      <trkpt lat="48.16892" lon="6.42042">
        <ele>404.85</ele>
        <time>2012-04-09T09:49:07Z</time>
      </trkpt>
      <trkpt lat="48.16901" lon="6.42041">
        <ele>404.37</ele>
        <time>2012-04-09T09:49:09Z</time>
      </trkpt>
      <trkpt lat="48.16903" lon="6.42036">
        <ele>403.89</ele>
        <time>2012-04-09T09:49:10Z</time>
      </trkpt>
      <trkpt lat="48.16904" lon="6.42029">
        <ele>403.89</ele>
        <time>2012-04-09T09:49:11Z</time>
      </trkpt>
      <trkpt lat="48.16904" lon="6.4202">
        <ele>403.41</ele>
        <time>2012-04-09T09:49:12Z</time>
      </trkpt>
      <trkpt lat="48.16903" lon="6.42011">
        <ele>403.41</ele>
        <time>2012-04-09T09:49:13Z</time>
      </trkpt>
      <trkpt lat="48.169" lon="6.42004">
        <ele>403.41</ele>
        <time>2012-04-09T09:49:14Z</time>
      </trkpt>
      <trkpt lat="48.16898" lon="6.41995">
        <ele>402.45</ele>
        <time>2012-04-09T09:49:15Z</time>
      </trkpt>
      <trkpt lat="48.16895" lon="6.41986">
        <ele>401.49</ele>
        <time>2012-04-09T09:49:16Z</time>
      </trkpt>
      <trkpt lat="48.16894" lon="6.41978">
        <ele>400.53</ele>
        <time>2012-04-09T09:49:17Z</time>
      </trkpt>
      <trkpt lat="48.16886" lon="6.41933">
        <ele>398.6</ele>
        <time>2012-04-09T09:49:23Z</time>
      </trkpt>
      <trkpt lat="48.16889" lon="6.4192">
        <ele>397.64</ele>
        <time>2012-04-09T09:49:25Z</time>
      </trkpt>
      <trkpt lat="48.16891" lon="6.41917">
        <ele>396.2</ele>
        <time>2012-04-09T09:49:26Z</time>
      </trkpt>
      <trkpt lat="48.16894" lon="6.41914">
        <ele>395.24</ele>
        <time>2012-04-09T09:49:27Z</time>
      </trkpt>
    </trkseg>
  </trk>
</gpx>